GFSGBSN_sfc_rhum_012.txt.gz
RH
81 80 82 86 88 89 82 79 80 83 82 84 82 81 82 82 82 81 78 80 81 81 80 82 81 83 90 70 38 19 65 75 57 33 29 24 26 20 17 16 12 11 10 8 11 12 11
83 83 86 90 90 87 80 81 86 82 84 84 83 83 86 88 91 92 81 82 82 82 81 81 82 83 84 48 21 15 26 42 26 27 26 27 22 16 17 16 11 11 9 9 9 14 13
82 84 88 90 91 89 83 82 83 83 85 86 85 85 89 95 94 89 81 82 83 84 82 80 83 80 73 42 24 20 12 17 18 23 18 16 19 18 21 16 12 11 11 12 14 16 17
84 84 86 90 89 89 84 87 83 84 85 86 86 94 95 95 87 82 82 84 85 83 83 83 82 85 47 23 21 10 12 11 12 12 16 18 18 20 14 15 13 14 18 19 18 17 17
86 86 88 89 87 85 84 88 84 86 87 88 94 92 93 94 94 86 86 86 86 86 84 84 92 87 24 27 14 11 13 12 13 13 14 10 16 19 16 20 22 23 22 25 22 17 18
84 88 89 88 86 84 85 85 86 87 90 94 93 89 90 93 94 93 91 89 90 88 88 74 61 56 34 27 15 12 12 13 18 19 18 16 25 25 27 23 26 24 24 47 21 21 23
85 87 88 84 86 85 86 85 86 89 94 93 90 88 87 91 93 94 95 95 63 56 71 26 30 34 22 12 12 14 13 14 20 19 27 26 27 28 27 25 22 18 27 25 25 20 19
88 88 87 82 86 90 88 88 93 92 93 91 89 88 85 89 91 93 94 79 45 40 34 36 36 27 18 13 19 16 17 23 28 27 29 28 32 24 23 27 28 30 28 31 26 21 18
90 89 86 80 87 90 89 89 90 91 91 89 88 87 83 90 93 93 80 61 50 58 41 27 24 20 21 18 24 22 20 25 25 27 31 32 24 22 27 30 32 38 35 36 32 27 24
90 88 83 81 87 90 89 88 89 90 90 89 89 86 88 95 79 80 67 46 50 50 40 26 24 21 18 22 25 18 18 23 25 28 26 25 29 27 31 31 35 44 34 32 32 35 31
90 88 80 83 87 89 87 87 88 89 89 88 88 86 93 90 76 72 50 62 62 54 62 23 25 18 18 26 24 22 20 24 28 27 30 37 34 34 34 34 32 36 36 37 37 41 44
89 87 80 86 87 88 86 88 89 90 88 88 88 87 94 82 89 67 73 74 46 80 56 29 24 25 25 27 26 22 22 25 27 27 28 31 31 31 34 31 32 30 40 44 45 49 64
89 84 83 86 87 86 86 88 89 91 87 88 88 89 88 66 72 75 84 50 72 74 32 27 29 27 27 32 31 28 34 37 43 42 45 35 35 30 30 36 33 36 54 75 76 78 73
88 84 87 86 87 84 88 90 91 91 88 88 90 93 85 67 87 82 66 54 76 40 32 27 27 31 32 30 35 35 37 41 35 41 45 49 53 34 28 37 40 41 48 77 70 76 67
86 86 87 86 85 86 90 92 92 90 88 88 87 85 91 82 80 78 67 85 67 46 25 27 29 35 37 32 33 34 40 40 41 42 45 52 47 34 30 30 38 44 49 42 67 80 82
85 88 87 86 84 89 92 93 92 89 86 88 76 81 66 78 81 73 82 81 55 34 28 27 35 35 40 33 37 41 45 42 43 38 40 43 47 34 29 33 33 31 35 60 71 66 64
87 89 86 86 91 91 90 91 92 89 87 92 81 54 54 83 63 70 84 77 45 32 35 32 38 34 35 36 37 45 49 45 44 41 37 50 47 45 43 42 46 44 48 50 52 71 77
89 89 87 86 93 95 90 91 92 88 90 76 83 67 75 54 43 86 72 54 41 36 33 37 41 44 36 44 55 60 59 54 51 55 43 51 56 69 49 36 35 39 47 52 74 62 86
90 89 88 89 98 96 92 91 91 87 88 81 77 83 78 53 60 86 60 43 37 38 40 40 44 44 45 49 63 63 62 60 52 53 60 50 57 77 63 54 43 44 41 55 66 74 56
90 89 89 97 98 98 96 90 91 88 82 85 81 82 78 85 74 58 63 50 48 43 41 39 40 41 45 51 58 64 66 57 51 48 70 63 59 58 73 57 45 44 40 56 60 85 76
91 89 96 98 96 97 93 90 93 90 81 73 84 72 59 70 65 69 60 49 50 50 43 40 41 45 47 61 64 70 63 60 51 57 55 58 68 63 52 49 45 44 45 46 46 58 67
91 89 95 98 96 95 91 92 94 94 83 72 74 73 72 60 51 61 66 55 48 47 44 48 48 51 52 62 57 66 56 59 56 55 62 70 80 72 72 60 64 56 51 53 49 43 46
91 92 94 98 97 90 93 92 93 95 83 65 70 79 63 86 58 67 65 53 50 48 51 43 56 64 70 66 65 65 63 61 57 56 77 75 82 78 77 79 76 74 60 53 47 48 48
92 92 92 92 92 91 94 93 92 92 90 81 80 85 82 80 75 60 54 48 52 51 57 59 57 62 60 59 53 48 51 56 61 69 61 82 93 94 83 74 61 54 48 44 50 58 68
93 92 91 93 93 94 95 93 92 92 94 82 94 83 80 93 84 61 52 66 64 68 70 67 64 58 58 60 71 61 79 67 70 76 83 70 89 99 78 89 55 49 50 52 52 63 69
93 93 94 94 94 94 95 94 91 90 93 89 95 96 77 90 78 66 67 64 78 83 79 76 65 70 75 94 83 86 75 57 79 74 71 80 82 82 99 70 62 53 55 50 51 82 75
93 93 94 94 94 94 94 94 93 91 92 88 92 91 84 88 74 72 68 69 76 83 87 83 77 77 72 98 99 96 89 66 85 84 91 97 95 92 99 94 81 58 54 52 75 66 83
93 93 94 94 94 94 94 95 94 92 94 84 88 89 80 89 80 81 78 67 78 81 87 77 76 82 100 88 92 97 98 86 84 76 83 87 94 98 97 95 83 58 57 64 67 84 83
93 94 94 94 93 95 94 95 95 94 94 94 82 88 90 83 77 80 76 70 74 62 81 81 64 84 86 95 98 99 98 99 90 88 70 68 72 84 78 80 60 59 59 61 78 83 83

GFSGBSN_sfc_rhum_015.txt.gz
RH
84 83 84 84 87 88 86 85 82 84 84 85 82 82 81 81 81 81 84 80 85 78 80 78 80 81 92 73 39 20 80 78 46 30 26 26 28 26 21 18 24 16 11 12 12 10 9
87 86 85 86 88 87 86 82 80 86 86 82 82 83 83 83 82 87 86 85 81 79 80 80 80 81 86 38 20 20 44 38 33 32 30 26 24 23 21 18 12 12 13 12 14 13 11
87 86 86 88 91 91 90 83 82 82 86 85 84 83 84 84 83 91 82 80 80 81 81 81 80 81 75 30 27 27 27 32 28 24 24 28 26 26 19 23 16 11 12 13 15 17 17
86 86 86 90 92 92 91 86 83 84 84 85 85 85 87 94 89 85 82 81 82 82 82 81 80 87 41 25 31 22 13 12 16 24 19 15 18 20 16 15 17 17 19 19 16 18 20
86 86 88 90 92 91 89 88 86 84 85 88 87 91 95 96 96 85 83 84 84 84 81 83 95 91 26 25 18 12 15 14 15 17 17 12 18 21 18 20 22 24 23 26 22 19 20
86 87 89 90 91 88 88 88 88 86 87 89 93 94 92 94 95 92 87 86 85 89 87 78 71 56 31 19 18 13 14 15 18 22 19 20 26 25 28 20 21 23 26 47 22 23 22
86 87 89 90 90 86 87 86 87 87 90 94 94 92 89 93 94 95 95 94 69 66 85 24 28 32 30 19 13 14 15 17 20 22 28 28 28 29 32 29 21 24 29 29 28 23 31
88 88 90 90 88 85 88 89 92 94 93 93 92 88 88 92 94 95 96 79 45 49 45 43 42 36 29 21 20 16 20 21 24 28 30 28 30 28 31 33 30 28 30 35 30 24 32
89 90 90 89 85 86 90 91 93 92 91 92 90 86 87 91 94 96 80 55 54 54 55 27 31 29 21 18 24 23 21 27 25 29 30 32 29 27 28 33 35 42 40 38 30 29 33
90 91 90 88 84 88 91 91 90 90 90 90 88 86 92 95 82 79 66 50 61 45 42 26 25 20 22 23 24 20 20 24 27 30 30 36 34 31 32 32 38 43 38 35 32 33 47
90 91 90 88 84 89 91 90 88 89 90 89 87 88 97 87 77 79 55 73 65 49 58 26 26 18 20 26 26 19 20 24 25 28 32 41 40 36 34 37 36 40 39 37 39 43 44
90 90 89 86 86 90 90 88 88 89 90 88 87 93 97 86 94 66 76 67 44 75 54 35 27 28 25 28 28 24 28 28 29 33 33 37 34 33 37 35 35 35 42 48 56 53 67
90 90 89 85 88 90 89 87 88 89 89 88 88 95 84 72 74 81 80 48 64 80 34 33 33 30 32 35 33 34 37 39 41 43 50 37 36 34 35 41 38 41 52 73 76 78 77
90 89 88 85 89 90 87 87 88 91 89 87 91 96 91 73 90 83 56 44 75 46 36 30 31 34 35 36 38 39 40 42 39 44 50 52 50 36 29 40 43 46 50 78 63 76 67
88 88 85 88 90 88 87 88 90 91 88 91 93 90 93 89 86 72 57 73 68 53 28 32 34 38 41 36 35 39 47 42 43 44 49 52 48 36 33 33 40 48 53 48 74 82 83
87 87 86 89 90 89 89 94 91 90 89 92 83 77 68 82 78 71 76 75 61 42 30 32 39 40 42 38 41 46 50 46 47 42 43 45 46 38 31 36 37 37 39 59 72 63 64
88 86 89 89 89 90 89 90 91 90 90 90 74 49 48 85 55 65 73 76 61 34 38 33 36 42 39 39 43 52 54 51 54 47 43 50 44 45 41 44 49 46 49 55 60 73 74
87 89 89 90 90 91 89 90 91 91 92 80 76 50 70 50 44 90 76 61 52 37 35 41 44 43 42 51 61 62 60 58 56 58 46 56 59 71 50 41 43 45 50 50 72 65 88
88 90 88 91 98 92 90 90 91 92 83 84 74 92 83 46 60 88 60 52 43 40 40 44 47 49 50 60 64 67 65 62 51 54 57 52 60 77 62 52 43 48 48 61 64 73 69
89 88 90 96 97 97 93 91 91 91 91 81 76 86 79 85 67 51 60 56 52 45 44 43 45 46 49 60 65 70 68 62 53 49 70 60 64 57 67 58 51 47 49 58 57 79 71
89 89 96 97 97 98 92 90 92 91 88 77 85 69 67 79 79 82 58 55 52 50 46 43 45 47 51 66 70 75 69 62 51 60 61 58 65 64 60 59 50 47 43 57 60 60 65
89 96 98 97 97 96 89 90 93 91 87 76 86 75 77 60 55 66 76 59 49 50 46 51 49 60 55 57 55 69 58 57 51 58 71 71 78 65 76 66 68 56 47 50 51 50 60
90 97 98 97 98 90 91 91 96 90 75 74 82 87 66 86 71 74 74 57 52 49 57 52 58 64 67 69 67 69 68 64 59 61 80 74 78 66 60 80 68 54 58 56 50 50 50
93 95 99 97 93 91 93 93 94 86 84 79 91 82 83 89 65 59 58 54 55 53 58 64 58 64 59 58 54 49 54 68 73 80 66 83 92 88 81 75 54 42 53 50 51 58 71
94 94 93 93 94 94 94 93 94 91 90 71 92 77 80 96 80 68 64 71 70 75 75 75 71 62 60 53 69 61 74 65 72 84 81 73 89 98 78 80 50 40 53 58 58 57 72
93 92 92 94 95 95 95 95 94 95 91 83 95 90 76 91 81 63 71 67 76 82 78 78 76 74 69 89 80 69 59 54 78 83 78 79 78 77 98 66 54 44 60 53 52 75 75
93 93 94 95 95 95 96 95 94 95 89 78 93 92 79 89 79 71 73 70 76 82 86 81 77 78 70 95 92 92 86 64 82 82 94 97 97 86 99 84 72 53 56 54 65 57 83
93 93 94 94 95 95 95 96 95 95 94 81 93 93 76 90 86 86 78 77 80 80 84 77 76 82 92 83 86 93 98 88 85 75 88 94 97 98 97 95 68 56 60 66 65 77 78
93 94 95 95 96 97 98 98 97 96 96 86 86 93 90 83 82 84 80 81 79 62 83 84 68 79 83 93 98 99 98 99 88 86 73 76 68 81 74 74 58 60 64 63 72 80 86

GFSGBSN_sfc_rhum_018.txt.gz
RH
87 86 85 86 87 87 83 86 86 80 80 84 81 81 80 80 83 86 87 88 78 77 76 77 78 79 93 83 46 45 82 80 53 28 25 26 28 28 27 27 24 20 14 13 12 12 12
90 89 88 88 88 86 83 87 90 80 81 82 86 82 82 84 83 84 83 85 80 77 78 78 78 79 92 49 22 41 58 45 36 29 29 26 26 24 27 21 17 17 12 13 15 12 11
89 90 89 88 88 88 88 91 92 83 85 82 82 82 84 85 86 85 85 85 79 79 79 78 78 84 88 43 26 33 38 34 35 29 30 28 24 23 26 24 16 12 12 13 14 18 18
88 90 89 88 89 91 92 92 91 81 82 83 83 84 85 89 90 88 83 80 80 80 81 82 82 92 59 26 32 28 26 17 26 28 25 22 26 27 26 20 19 16 19 18 16 19 21
88 90 88 88 90 92 93 92 90 83 83 83 85 86 86 95 95 86 82 85 83 79 82 81 95 92 34 25 22 14 14 16 17 26 25 16 22 22 18 21 22 23 23 26 23 21 20
89 89 88 88 90 92 92 90 90 84 85 85 86 87 95 95 96 89 84 84 83 88 86 77 77 66 32 19 22 14 14 16 21 25 23 23 26 26 26 19 24 22 25 47 25 34 42
88 88 88 88 90 90 90 88 88 86 86 88 94 95 94 93 96 93 93 90 81 79 93 32 33 27 29 23 16 15 16 20 23 22 29 28 28 29 31 27 21 25 26 28 31 27 45
89 88 88 89 90 90 88 86 91 93 95 94 93 93 91 93 96 95 97 87 45 54 60 53 46 38 34 28 24 19 22 23 25 28 31 27 32 31 34 34 31 31 31 36 34 34 49
90 89 88 89 90 90 88 86 94 94 93 91 92 90 89 94 96 97 94 61 54 59 59 32 40 29 27 21 23 23 23 28 26 29 32 32 35 32 35 38 34 42 35 41 36 40 45
90 90 89 89 90 90 87 88 94 93 90 90 92 89 93 96 95 86 72 51 70 52 44 30 26 21 23 22 24 21 22 24 29 33 40 38 37 34 33 35 40 42 40 35 36 45 50
90 90 90 90 90 90 88 91 92 90 89 90 91 90 95 86 79 84 60 80 72 46 54 27 27 19 22 27 25 22 29 24 29 31 36 44 40 36 36 40 37 42 40 38 42 46 47
91 90 90 90 90 89 88 91 92 90 89 90 91 91 96 97 95 70 78 62 44 71 55 34 28 28 29 30 30 28 31 30 31 38 38 41 38 37 40 37 37 38 46 50 59 56 66
92 90 90 90 90 87 88 91 91 89 89 91 91 95 96 74 74 87 74 46 58 79 36 36 35 30 33 38 36 36 39 44 40 44 51 39 40 36 36 42 40 47 53 75 76 79 77
92 90 89 89 88 86 89 91 90 89 91 91 92 96 93 79 86 85 50 43 58 50 38 34 36 35 37 40 42 40 42 45 41 46 53 51 45 36 32 42 43 48 53 77 63 83 73
93 89 89 89 87 87 90 91 90 90 92 91 96 99 95 93 88 71 49 64 58 57 33 36 36 41 45 40 39 43 49 45 48 48 50 52 49 39 35 38 42 51 56 52 74 82 84
94 88 89 88 87 89 91 90 90 92 92 95 93 90 77 88 81 68 62 58 60 54 36 34 41 43 46 44 45 48 53 53 50 50 47 48 51 42 36 40 40 43 45 57 72 63 59
93 87 88 87 88 91 91 91 92 92 92 94 68 56 53 87 55 58 62 60 65 48 40 34 40 45 43 44 48 57 55 56 59 53 48 49 46 45 42 47 51 49 52 61 62 73 73
91 87 86 87 90 91 91 92 92 93 93 92 64 54 68 53 54 87 71 66 61 39 43 45 43 42 43 56 61 61 57 57 60 62 49 58 60 69 49 46 51 49 52 50 68 59 87
89 87 87 88 90 90 92 91 92 93 87 82 75 95 87 50 66 88 62 57 50 41 45 46 50 50 55 64 65 68 67 62 51 56 52 50 61 76 56 47 44 51 58 60 63 75 73
88 87 88 89 90 95 92 92 93 93 89 79 81 94 85 78 70 52 50 57 52 49 48 44 50 50 57 68 68 72 70 63 54 56 71 59 63 55 58 51 54 54 58 59 54 77 68
88 89 89 92 95 97 96 92 93 93 92 84 80 80 80 89 85 60 50 55 54 52 47 45 49 50 55 69 73 77 71 62 52 64 68 55 62 64 68 66 56 48 47 62 56 56 60
90 90 95 96 96 98 95 92 93 93 91 81 90 73 71 74 79 72 71 56 51 53 51 52 49 63 58 61 54 69 60 55 42 66 74 69 75 60 75 72 70 60 49 51 62 59 64
89 96 98 97 97 98 92 92 94 92 81 78 94 86 64 87 82 81 82 62 54 55 62 58 53 61 67 68 70 73 69 67 61 67 79 72 77 61 56 79 63 60 53 53 54 55 52
96 98 98 98 98 90 91 93 96 90 80 79 91 83 83 87 75 74 64 62 57 55 57 66 60 62 65 60 57 52 58 74 78 85 71 79 79 81 76 73 58 43 55 55 54 54 54
96 99 99 96 93 94 94 94 96 90 90 84 97 76 84 96 70 66 69 76 74 79 78 78 79 70 60 55 72 67 75 67 73 85 79 71 84 95 76 77 48 33 45 61 60 53 64
94 94 93 94 95 96 96 95 95 88 91 95 97 86 81 89 81 60 73 72 78 84 81 84 79 70 64 89 76 74 72 62 69 84 81 76 75 75 93 64 53 42 51 56 52 73 62
93 94 94 95 96 96 96 97 96 88 89 82 97 90 80 92 84 72 73 74 75 80 87 83 76 77 68 92 91 80 69 62 72 79 96 98 98 82 98 81 67 47 55 56 64 59 81
94 94 96 95 96 97 98 98 96 91 87 79 95 95 78 94 90 85 77 77 82 80 85 80 78 82 90 80 85 90 95 87 84 72 93 93 98 98 95 90 67 54 60 63 64 72 80
94 94 96 97 99 99 99 98 99 96 90 83 82 96 93 87 86 85 82 83 81 62 84 86 70 80 81 90 96 98 98 99 88 82 80 77 71 80 72 73 55 57 67 65 66 63 82

GFSGBSN_sfc_rhum_021.txt.gz
RH
90 88 87 88 89 89 86 86 88 91 78 79 82 82 84 81 79 82 79 87 82 77 76 75 75 77 84 75 46 44 81 76 54 24 22 24 25 24 27 25 20 19 15 11 11 12 18
91 91 90 89 90 89 86 86 88 92 87 79 84 81 85 81 82 81 83 78 85 82 77 79 76 76 87 43 20 46 56 47 33 24 24 22 21 20 22 20 20 17 11 10 12 10 11
91 92 91 91 91 90 88 89 91 93 93 80 86 83 87 82 85 84 80 79 79 80 80 77 75 78 90 41 20 40 37 35 31 24 26 24 21 23 25 21 14 11 11 12 13 11 13
91 92 91 91 91 90 90 91 92 92 92 84 83 82 84 83 88 89 80 83 84 82 78 78 78 83 63 30 30 27 31 23 30 26 22 23 23 23 22 15 16 13 17 15 13 14 15
92 91 91 91 91 90 91 92 92 92 89 86 83 86 84 86 90 83 82 87 85 79 78 82 89 89 44 28 21 15 15 15 27 28 26 22 24 26 16 18 18 21 16 18 16 25 15
93 91 90 91 91 90 91 92 92 92 87 88 85 85 85 92 96 88 82 85 83 85 82 73 78 71 34 20 23 14 14 16 27 26 24 23 23 23 21 16 21 20 19 18 18 24 32
85 92 90 90 90 90 90 91 92 92 87 89 86 88 94 95 96 88 90 86 81 79 94 42 37 32 21 20 19 14 16 20 30 23 26 25 22 23 23 18 16 18 19 20 24 30 48
85 93 90 90 89 89 89 89 91 91 88 92 95 94 93 93 95 88 88 90 44 47 60 61 49 42 33 28 23 17 19 23 28 26 23 24 28 27 30 27 26 25 27 31 33 37 45
86 85 91 89 89 89 89 89 91 91 94 95 93 93 91 96 96 93 89 82 53 53 62 38 46 33 23 24 20 20 21 23 22 26 26 30 28 29 31 30 31 34 31 31 34 38 39
85 86 93 89 89 90 90 90 90 91 94 93 91 92 94 97 95 91 84 58 62 62 44 32 26 22 22 21 26 19 21 23 27 32 35 33 30 29 30 33 31 37 30 35 39 34 34
84 85 88 90 89 91 92 91 89 92 93 91 91 92 96 89 82 81 58 76 70 52 56 27 23 18 23 23 20 22 26 23 29 30 30 35 34 31 35 33 32 36 32 32 31 33 34
84 84 88 91 90 91 92 90 89 91 92 91 91 92 96 92 95 77 72 59 54 65 67 33 27 26 28 29 29 26 27 28 30 35 34 34 28 30 30 35 34 40 38 42 45 41 42
84 86 86 93 91 91 91 89 89 91 91 90 92 94 94 80 74 87 74 52 57 67 38 33 32 29 32 36 34 33 37 40 34 43 44 34 33 29 32 33 33 36 40 52 56 58 51
82 87 86 92 91 90 89 88 89 92 91 90 93 96 94 86 81 84 56 47 54 45 41 31 33 33 36 35 36 36 36 39 38 38 41 37 38 28 30 32 33 40 40 62 54 63 54
81 88 89 91 90 90 88 88 90 92 90 93 97 96 94 90 84 82 53 62 53 50 33 34 34 39 40 36 36 39 42 39 40 38 41 45 36 30 32 31 32 40 41 43 61 68 63
80 90 91 92 89 88 87 88 91 92 92 95 93 93 85 88 88 66 60 55 45 48 36 33 39 41 43 38 42 41 42 45 41 43 38 42 46 35 31 32 36 35 39 46 51 58 47
82 90 93 95 89 88 87 89 92 92 93 92 82 77 66 82 65 58 61 52 57 54 40 34 39 42 42 42 43 45 44 47 48 42 38 37 44 42 35 38 39 41 44 52 47 53 48
88 90 93 95 88 87 86 90 93 93 94 96 76 63 74 63 58 75 62 54 62 44 42 44 39 41 43 50 53 51 50 46 52 51 41 44 54 56 37 37 39 37 40 44 53 49 64
87 92 94 94 87 85 88 92 93 94 91 90 67 92 85 60 71 83 59 52 49 42 44 44 49 47 53 59 58 59 58 57 50 46 51 48 56 59 46 38 36 38 44 46 54 60 60
87 94 94 91 86 87 89 92 93 94 90 79 85 94 84 70 64 55 55 54 48 48 48 45 50 51 58 61 64 67 61 57 55 52 75 58 53 50 48 38 44 46 51 44 44 60 52
91 93 92 88 86 88 91 92 93 93 90 82 79 82 82 84 65 56 46 52 49 51 47 45 49 48 56 66 64 68 60 50 50 67 62 51 54 52 54 54 46 37 44 49 41 44 51
94 93 93 89 91 91 92 93 94 94 91 85 75 74 72 77 71 56 62 58 50 49 50 49 52 56 54 59 52 66 58 50 42 58 61 60 63 54 58 60 58 51 43 44 50 50 44
92 94 92 94 95 96 97 94 95 94 83 80 93 76 62 84 84 66 69 62 53 55 64 54 52 57 60 60 59 64 62 64 55 62 69 62 68 60 60 62 51 60 48 44 46 47 44
93 93 94 95 95 98 95 94 95 90 84 78 87 76 78 82 80 65 66 59 57 53 58 61 57 58 62 61 57 53 59 69 66 70 62 68 64 68 73 71 59 37 45 41 44 42 41
95 97 97 96 97 95 93 95 95 89 88 84 94 74 78 98 70 68 71 74 73 76 76 72 75 65 61 56 72 67 75 76 75 69 63 59 70 81 79 59 42 27 36 50 55 37 42
98 97 98 98 94 93 94 95 95 90 88 91 95 86 77 85 75 57 74 70 76 81 79 85 71 64 62 79 79 79 74 60 53 72 71 64 66 72 78 65 61 41 32 47 43 60 41
98 97 95 94 96 96 95 95 95 90 88 88 96 86 80 88 79 70 73 72 73 77 85 79 70 74 64 84 90 79 66 56 54 68 93 98 95 83 81 79 58 41 41 46 55 53 54
94 95 96 96 97 98 97 95 92 88 88 86 95 94 73 92 89 83 71 75 76 76 83 80 76 80 85 88 90 80 91 75 68 58 81 74 91 91 85 78 69 45 51 61 56 55 54
95 96 98 99 98 98 99 96 89 84 86 88 87 97 88 85 85 85 80 80 78 62 79 85 69 76 76 86 90 94 100 98 82 75 72 70 68 72 63 65 51 48 58 52 56 53 54

GFSGBSN_sfc_rhum_024.txt.gz
RH
92 90 90 90 89 90 89 88 90 91 91 85 82 85 85 82 82 85 86 86 86 82 78 74 74 76 66 46 21 28 77 72 28 17 14 14 14 13 12 12 13 15 12 10 9 18 24
94 92 91 91 90 90 89 88 90 90 92 90 84 80 88 84 80 84 86 86 86 85 80 78 75 78 60 31 14 26 31 25 17 16 16 14 12 12 13 16 14 13 12 9 8 12 20
85 93 92 92 91 91 90 91 90 90 92 93 88 86 87 86 80 85 87 87 86 85 81 78 76 66 63 25 14 22 23 19 16 14 16 15 13 14 16 18 13 10 10 9 9 11 15
84 91 93 93 93 92 92 92 90 90 92 92 88 84 84 87 82 88 89 86 87 83 77 77 79 71 40 19 16 19 16 20 20 16 15 16 17 17 18 13 10 10 10 10 12 10 11
84 84 94 93 93 92 92 91 90 90 91 92 88 86 86 89 87 91 88 87 83 76 77 82 74 71 28 26 17 10 14 14 19 20 20 16 19 19 17 17 12 12 10 11 13 14 11
83 83 92 93 93 92 91 91 91 91 91 91 88 82 87 89 90 94 87 84 82 83 76 64 58 64 26 14 14 12 10 15 20 21 24 21 18 17 13 14 15 12 12 9 11 18 11
82 84 86 93 93 92 90 90 91 91 91 90 87 84 88 93 93 90 79 65 64 64 67 29 22 26 13 12 14 10 11 14 15 17 19 20 18 18 13 13 12 10 12 11 15 25 25
81 79 82 90 92 91 90 89 91 92 90 89 87 93 94 93 95 89 69 55 35 44 34 36 32 28 21 18 17 11 12 13 18 16 18 18 20 21 20 15 14 13 13 18 23 26 25
82 82 83 82 94 91 90 89 91 92 90 90 94 93 92 95 94 84 68 49 38 40 44 31 31 21 15 17 14 12 12 13 17 17 20 20 22 22 20 18 17 20 18 23 19 26 26
81 82 86 82 88 91 90 90 91 91 89 91 94 91 94 95 80 58 56 36 38 49 27 21 21 18 16 16 15 14 15 14 18 18 22 23 22 21 19 21 19 21 22 21 25 22 19
80 83 84 84 85 93 91 91 91 90 90 92 92 91 96 87 60 50 44 43 55 45 38 19 17 12 16 15 14 18 18 15 17 23 25 26 23 22 22 25 24 26 25 22 22 20 23
81 82 84 86 84 94 92 92 92 90 90 92 91 92 95 88 68 53 49 51 50 42 37 22 17 18 20 18 18 19 20 19 20 22 22 24 22 22 24 26 24 25 26 25 24 24 30
82 83 83 86 85 92 92 92 91 90 90 91 91 94 92 61 48 64 65 48 38 42 25 22 21 19 18 20 22 22 23 23 20 29 29 23 24 21 23 25 27 26 25 32 42 39 34
80 83 85 84 86 89 93 92 90 90 90 91 92 95 88 57 49 66 50 37 40 24 25 20 20 20 22 21 25 26 26 24 26 23 22 23 31 22 24 25 22 25 24 32 30 34 28
80 82 84 83 87 89 92 92 90 90 92 92 95 90 78 62 69 68 42 45 31 28 23 22 21 22 26 24 23 26 27 24 27 27 21 26 26 24 26 24 24 29 28 30 41 55 50
80 81 80 81 87 88 93 90 88 90 92 94 68 74 50 59 68 60 49 41 27 30 24 20 23 21 27 23 24 26 28 30 30 30 29 28 33 26 27 25 27 27 26 35 36 50 34
81 82 80 79 87 90 92 90 88 91 93 91 59 50 63 71 62 54 48 36 28 34 28 23 21 27 23 28 22 24 27 33 32 30 26 24 27 34 30 28 26 31 30 30 28 37 30
82 83 82 81 88 92 93 89 88 92 93 87 57 50 72 60 56 42 38 30 48 30 34 26 25 26 26 29 31 25 28 28 35 30 29 30 32 42 31 29 29 27 26 24 32 33 44
84 83 82 83 88 92 95 89 89 93 89 65 50 59 64 53 57 61 38 30 37 29 29 30 29 28 33 35 37 37 37 41 37 34 34 33 37 43 38 32 29 30 28 26 34 39 39
84 83 83 84 89 91 95 89 92 93 86 54 46 70 70 48 37 37 36 33 32 34 32 32 35 36 38 40 42 46 44 42 39 36 70 46 36 34 38 27 26 34 33 26 25 40 28
82 84 84 91 89 92 94 90 92 91 86 64 50 49 46 59 46 38 32 30 28 37 32 32 36 32 34 47 43 46 42 38 40 64 46 38 38 36 32 33 32 28 28 29 26 25 36
85 85 87 92 91 92 93 90 90 91 88 64 50 52 52 44 39 36 43 35 26 34 33 32 34 36 37 40 32 43 39 35 34 44 42 42 45 43 44 40 37 36 27 25 26 25 27
86 83 89 93 92 93 92 90 92 92 84 51 56 48 37 67 42 39 36 29 28 37 47 34 33 38 43 42 43 40 40 36 33 41 48 46 51 47 42 43 41 72 39 27 24 26 29
85 88 93 94 92 91 90 92 93 92 86 40 51 40 52 64 47 33 30 30 35 34 43 44 38 39 51 41 38 39 42 42 41 47 41 53 48 59 68 70 82 21 25 24 26 23 20
89 94 92 90 91 93 94 94 94 93 88 60 57 44 53 99 45 38 33 32 46 48 53 48 54 46 42 42 52 55 66 81 63 48 44 39 49 76 92 44 28 14 23 28 33 22 20
93 94 95 95 97 96 94 94 94 93 86 69 62 57 47 80 62 33 38 44 50 52 59 64 54 47 42 56 68 74 64 44 50 56 49 43 46 56 73 89 89 28 30 34 33 36 24
96 95 96 98 98 95 94 94 94 94 85 76 69 74 45 66 46 46 43 48 45 50 56 59 56 59 48 76 97 81 59 41 44 62 89 83 86 89 72 92 47 25 25 36 43 34 32
97 98 98 95 94 93 94 95 95 91 86 77 77 77 53 68 57 59 49 53 54 48 64 58 56 61 69 92 92 69 90 53 45 36 55 60 80 92 77 97 80 30 38 46 37 36 37
95 95 96 96 96 95 95 96 94 90 85 83 70 76 66 56 65 64 66 61 56 42 50 56 50 52 48 68 83 87 97 96 65 59 48 54 47 51 46 44 33 34 34 33 40 41 39

GFSGBSN_sfc_rhum_027.txt.gz
RH
84 87 92 92 91 90 88 89 90 90 90 91 89 85 77 80 82 86 87 86 87 85 82 77 76 76 64 42 23 30 80 70 26 21 12 9 10 10 10 9 8 12 10 10 12 14 13
80 85 88 92 92 91 89 89 91 91 91 90 91 90 85 84 84 84 86 87 87 86 82 78 75 79 59 34 11 16 18 20 13 15 11 9 9 9 10 8 10 10 10 8 9 14 19
81 82 86 94 93 92 91 91 91 91 90 90 91 91 87 84 87 84 85 87 88 86 79 77 75 54 48 27 11 15 15 13 10 12 12 10 10 12 13 14 11 10 11 8 9 14 19
82 81 83 86 94 93 92 92 92 91 90 90 90 91 86 87 88 86 87 89 86 80 77 75 75 52 39 13 11 13 14 14 13 12 12 13 13 14 15 14 11 11 12 14 10 12 14
80 83 84 84 95 94 93 92 92 91 90 90 91 89 86 87 88 88 90 84 78 75 73 75 67 53 28 27 13 10 10 12 15 15 14 13 17 18 16 18 13 13 13 13 12 9 11
79 80 83 86 88 95 93 92 92 91 90 90 91 88 86 87 88 91 88 81 80 80 68 47 43 54 29 13 11 9 9 14 17 19 19 18 18 20 16 15 20 15 12 10 11 10 12
77 80 81 85 86 94 93 92 92 91 90 90 90 88 87 88 91 92 78 55 48 56 48 30 21 20 12 11 10 9 8 12 15 16 21 19 18 20 15 14 12 11 12 9 11 14 10
74 78 79 82 84 88 94 92 92 91 90 90 90 87 90 93 93 90 71 38 32 38 38 26 21 17 15 13 14 9 9 13 18 21 17 18 24 16 15 12 13 10 11 12 12 12 16
75 78 79 81 81 80 92 92 92 92 90 90 90 90 93 92 94 81 52 36 29 34 43 22 18 18 13 13 12 10 9 10 16 18 18 38 22 18 15 12 13 12 13 15 14 15 14
76 76 80 81 82 82 86 94 92 92 91 90 90 93 92 94 79 44 45 28 30 36 42 21 18 16 13 13 14 10 9 10 15 18 18 30 18 18 14 14 14 17 16 15 16 19 18
78 77 78 83 82 84 87 94 93 92 90 89 91 92 96 88 58 41 38 30 38 53 47 15 14 11 11 13 11 13 12 11 16 16 17 29 18 18 16 18 18 27 17 17 17 17 22
80 77 78 81 84 86 84 94 94 92 91 90 92 92 96 85 64 45 39 48 52 58 43 19 14 15 16 13 11 13 12 11 13 15 14 28 17 17 18 20 19 18 20 20 19 16 26
79 80 78 81 83 86 85 93 94 93 91 91 93 93 90 56 43 44 53 51 51 46 18 17 17 14 15 15 14 14 16 16 14 21 23 19 17 19 18 20 20 17 20 32 36 32 33
78 82 79 80 82 86 86 92 95 93 91 91 93 94 87 53 44 56 58 48 54 21 20 14 14 15 16 14 14 15 14 14 12 16 21 21 29 19 18 19 18 20 18 33 33 31 23
72 77 82 82 83 84 87 91 95 94 91 92 93 79 75 64 65 62 57 57 39 17 15 16 15 17 17 16 16 16 17 13 13 14 23 21 23 18 20 19 16 20 24 20 29 48 41
78 77 85 80 84 85 88 89 94 93 91 93 65 74 54 55 64 66 59 47 26 18 16 15 19 17 20 19 18 17 19 16 20 21 20 18 26 19 22 20 21 23 18 27 26 38 35
72 79 86 78 81 85 88 89 94 94 92 90 58 57 39 52 61 56 57 38 23 18 19 18 17 17 16 18 16 18 18 21 20 22 20 17 20 28 24 24 17 26 24 22 22 30 37
78 81 86 79 78 82 88 88 94 94 91 84 65 57 58 61 53 53 45 30 27 20 25 19 20 17 19 19 20 17 19 18 19 20 21 20 22 32 25 22 20 21 22 22 36 29 33
76 91 81 79 78 79 85 89 92 94 87 60 65 59 71 55 64 67 36 27 22 23 25 23 20 20 17 20 25 20 18 35 31 27 22 26 26 36 31 26 22 22 19 20 20 30 32
80 86 80 82 78 80 87 91 92 94 84 60 50 63 76 66 40 42 38 30 29 23 22 19 17 22 25 26 26 27 27 34 35 28 62 42 25 28 36 25 20 28 21 19 23 37 30
88 85 85 84 83 85 89 91 94 94 83 63 57 42 45 64 52 41 34 28 27 30 25 24 26 24 25 31 30 32 28 35 35 59 34 32 35 27 23 23 22 21 18 20 21 20 29
80 85 84 84 84 84 90 92 97 92 81 76 60 36 36 43 43 39 41 31 24 23 27 29 25 22 21 26 27 29 30 30 32 37 35 31 36 36 40 28 27 27 21 17 16 17 15
82 82 84 85 85 91 91 90 95 90 80 65 56 45 37 56 46 42 37 28 23 26 37 24 23 24 30 31 33 32 29 27 26 36 39 38 40 43 36 32 31 63 36 24 18 16 19
79 80 84 85 86 87 87 91 95 86 74 44 54 48 56 62 44 35 27 25 23 27 34 30 25 29 40 31 31 31 31 31 32 37 32 45 44 52 55 69 82 17 16 15 20 16 14
79 80 86 85 90 90 92 91 92 89 86 51 66 54 50 99 35 28 26 27 24 32 34 36 42 34 34 32 44 54 60 68 43 33 30 31 42 63 90 41 25 17 13 20 22 19 15
81 85 84 85 90 93 93 89 94 89 87 86 72 51 41 68 48 22 25 24 37 44 52 54 43 37 39 47 61 54 53 38 46 46 34 34 38 50 57 86 88 32 22 23 23 32 19
84 87 86 90 94 92 92 94 92 88 86 86 66 68 32 38 26 27 30 30 27 36 43 55 54 53 43 74 96 67 53 33 46 58 89 75 79 81 66 83 49 21 21 26 40 41 28
89 90 92 92 95 95 94 93 90 87 90 88 63 61 37 44 41 39 25 30 27 34 58 50 51 54 58 78 86 64 82 50 43 29 51 58 74 90 71 98 79 22 26 37 37 27 25
93 94 91 95 97 96 93 91 90 90 93 89 62 55 45 41 57 51 56 50 38 27 32 50 35 46 44 51 76 79 96 94 56 52 32 48 40 50 41 44 29 24 24 23 27 32 31

GFSGBSN_sfc_rhum_030.txt.gz
RH
79 81 85 88 94 92 90 89 90 90 89 90 90 90 86 81 81 82 82 81 86 85 83 80 78 78 66 45 28 33 78 69 27 19 17 13 10 10 12 10 9 10 10 9 10 17 16
79 82 82 86 87 93 91 90 91 91 90 90 90 90 90 87 82 86 87 84 83 87 84 79 77 80 62 37 10 17 20 24 13 16 14 9 9 8 10 9 9 9 11 10 9 16 15
75 81 83 86 86 94 93 92 92 92 91 91 90 90 90 88 82 86 81 85 78 88 81 76 75 58 46 28 12 13 14 12 10 13 12 10 9 12 11 13 8 11 13 11 10 14 19
75 80 83 85 87 89 96 94 92 92 91 91 90 90 90 87 87 87 84 87 89 83 77 75 74 57 44 15 12 12 13 13 12 10 12 12 13 14 15 15 14 14 13 17 12 14 18
75 78 80 82 87 87 93 95 93 92 91 91 90 90 90 87 83 88 87 90 86 79 76 74 70 56 33 24 15 10 10 11 13 13 14 12 15 19 16 21 22 15 19 20 15 12 18
73 76 79 80 83 88 89 95 94 93 92 91 90 90 89 87 84 88 91 86 81 79 73 47 41 47 34 18 11 9 9 11 17 17 18 19 19 21 20 21 29 21 19 15 14 10 11
76 74 74 81 82 85 87 92 94 94 92 90 90 89 88 87 85 91 85 62 62 63 51 30 24 23 12 10 10 10 8 15 15 19 24 20 22 24 38 22 16 16 14 14 11 9 12
76 77 76 76 80 81 86 90 95 94 92 90 89 89 87 90 92 92 75 53 33 38 48 32 18 19 14 13 14 10 8 14 21 34 24 23 28 20 25 17 17 16 16 15 11 11 13
78 80 77 76 78 80 83 83 94 95 93 90 89 89 88 93 94 84 59 41 27 32 44 24 16 15 16 13 14 11 9 11 24 28 28 38 29 23 21 17 16 15 15 20 14 10 8
73 79 80 78 78 80 81 84 88 95 94 91 90 90 93 94 87 53 49 34 34 41 48 24 18 15 14 12 14 8 8 10 17 20 39 35 22 22 17 16 14 23 18 16 16 17 20
73 73 80 80 78 79 83 87 88 95 94 91 91 92 94 90 68 43 39 28 41 55 62 18 17 10 12 14 11 11 9 12 16 19 28 35 28 24 22 20 18 26 24 20 14 16 42
74 76 79 80 80 80 83 88 88 95 95 92 91 93 95 89 74 59 47 50 56 65 57 18 14 16 15 14 11 9 11 12 11 15 17 24 19 26 44 25 17 19 22 18 18 20 59
80 76 80 81 80 81 83 86 87 94 96 93 91 93 89 53 52 45 53 64 63 52 16 18 17 15 15 15 14 13 16 16 17 22 26 21 20 16 22 19 16 15 19 42 71 68 56
74 76 80 83 81 81 81 87 87 94 96 94 92 94 90 58 49 58 66 91 59 26 26 11 13 14 17 14 13 13 16 16 13 13 16 28 29 17 16 17 38 21 18 51 76 84 41
72 77 79 80 83 81 82 85 87 94 96 94 94 82 77 70 70 72 80 90 48 29 17 15 13 17 17 13 13 14 16 15 13 13 30 39 42 24 17 15 16 20 25 19 28 54 66
71 80 76 78 84 83 80 84 87 96 96 95 74 72 69 66 69 77 89 70 36 21 16 14 18 16 18 15 17 17 17 13 12 13 39 65 82 37 19 17 17 20 16 32 31 50 46
75 79 75 74 84 86 81 85 86 95 96 93 67 69 52 62 71 74 79 57 40 19 15 18 16 16 16 17 16 17 15 12 15 18 18 23 48 28 22 22 16 24 26 21 18 33 59
78 79 75 76 77 83 84 82 87 95 95 98 69 70 59 65 70 51 64 41 35 24 16 20 18 15 16 17 18 16 18 16 15 16 22 18 24 37 24 17 17 19 24 22 61 38 46
78 77 77 77 77 82 85 78 87 93 94 94 66 62 71 64 63 64 50 41 28 25 22 24 20 18 16 19 21 18 16 31 27 23 27 24 30 44 28 23 21 22 18 18 23 39 46
76 78 78 80 79 77 84 77 84 93 92 89 65 84 98 88 40 47 53 42 34 24 19 20 20 17 20 20 19 22 21 33 32 26 58 43 26 26 43 25 22 30 23 16 22 66 47
77 80 81 81 81 87 81 76 78 95 93 98 77 58 63 88 69 48 46 36 33 30 21 20 22 18 24 29 22 28 22 36 32 53 33 31 33 25 20 19 22 24 20 18 19 24 39
78 80 82 81 91 86 76 78 78 93 94 98 72 50 51 48 54 50 53 44 30 24 24 26 24 20 23 26 25 28 25 33 33 38 33 31 43 37 40 27 25 29 23 21 18 16 17
79 82 88 88 86 78 77 80 81 92 95 96 58 54 61 58 54 55 53 43 32 26 26 21 23 24 27 26 30 32 33 31 26 39 40 39 52 56 62 34 35 59 36 25 20 17 19
85 86 84 87 81 79 84 87 86 90 94 84 54 61 84 65 49 46 45 35 27 26 34 24 24 29 34 28 30 31 30 30 32 34 31 44 52 72 80 74 74 23 16 15 19 16 14
80 82 81 84 85 83 81 88 87 87 94 86 70 83 87 94 42 38 43 37 27 25 31 28 39 34 34 36 53 59 69 70 50 30 32 32 55 81 98 61 33 23 16 19 22 21 17
80 80 82 85 86 86 88 87 91 86 91 92 88 92 90 80 57 31 34 31 36 44 51 53 39 38 39 54 77 66 69 41 42 42 28 30 43 77 76 91 86 36 22 19 19 45 22
80 80 82 86 86 87 87 87 89 91 88 88 92 91 98 85 39 37 35 37 33 47 55 54 52 53 47 93 98 84 67 30 56 66 91 80 90 91 79 96 64 24 22 23 50 56 30
82 83 84 86 86 89 90 90 91 90 85 89 90 90 99 94 41 34 27 31 35 44 70 55 54 54 71 87 92 80 94 62 48 33 63 73 87 96 86 100 90 22 25 40 45 38 33
83 85 87 88 86 89 91 92 90 87 86 92 95 88 89 98 61 57 54 48 43 36 51 57 47 49 51 60 80 88 98 98 75 68 26 56 48 66 60 66 36 25 29 25 31 35 36

GFSGBSN_sfc_rhum_033.txt.gz
RH
77 74 83 84 86 86 93 92 90 90 90 89 89 90 90 86 87 87 88 86 83 83 86 85 82 82 83 72 53 43 75 70 34 24 22 22 25 19 18 15 14 16 13 11 30 31 41
77 79 82 84 86 85 88 93 92 91 90 90 90 90 90 90 89 86 80 80 87 86 88 86 81 82 89 63 23 47 40 40 25 23 24 23 19 11 14 15 18 14 13 13 14 32 36
74 77 80 85 88 88 86 94 94 92 91 91 90 90 90 90 90 88 87 82 88 87 88 83 80 69 67 52 22 23 23 23 18 19 22 18 16 20 20 24 20 16 19 16 15 25 41
77 77 79 83 87 89 88 89 96 94 92 91 90 90 90 90 89 88 89 89 89 91 87 83 79 79 76 28 30 23 20 17 14 16 17 16 19 24 23 22 23 21 22 24 17 28 33
77 77 77 79 84 88 90 88 94 96 94 92 91 90 90 90 89 87 88 89 91 90 85 82 88 86 66 32 24 18 16 18 18 17 22 13 22 30 27 30 36 30 31 28 22 23 32
68 76 77 77 81 84 88 90 90 95 95 93 91 90 89 89 89 88 90 88 86 87 78 63 58 70 49 28 18 15 14 17 23 25 28 30 30 35 33 39 45 34 28 29 27 20 31
72 68 71 77 78 84 84 88 90 95 96 94 91 90 89 88 88 89 93 91 89 88 76 60 42 38 20 16 14 15 15 21 25 26 46 47 41 44 42 36 26 28 24 23 19 13 26
74 76 74 78 77 75 83 83 91 95 95 94 91 89 89 88 91 89 95 89 52 52 70 49 40 31 20 19 21 15 15 24 32 42 40 44 54 34 26 28 30 27 25 25 19 14 19
68 73 78 74 78 77 78 81 89 92 96 95 92 89 89 90 92 95 92 71 42 51 74 43 34 36 21 20 22 19 14 20 30 30 42 47 41 29 26 29 30 31 36 26 22 18 16
74 76 72 76 80 78 77 80 86 87 96 96 92 90 89 93 93 82 85 59 58 59 91 40 35 22 16 18 25 15 12 18 27 40 41 43 34 31 29 29 25 26 28 29 24 25 28
75 76 76 75 78 82 80 81 86 88 93 96 94 91 94 86 92 85 59 62 51 71 93 30 26 15 16 22 20 17 12 15 26 38 37 41 40 40 41 30 26 32 28 27 29 32 46
73 75 78 76 75 80 82 80 87 89 94 96 94 92 95 95 96 81 65 63 80 93 91 31 22 21 22 21 19 14 16 20 21 29 29 30 30 34 39 30 30 27 30 32 39 44 56
73 72 75 79 76 77 81 80 84 90 91 96 94 93 94 70 78 67 70 86 95 97 27 25 24 22 23 24 21 18 21 25 27 36 50 32 30 28 34 34 31 29 36 62 69 80 72
75 73 71 76 78 79 80 80 82 89 91 96 96 95 91 72 72 75 91 96 98 42 38 23 22 23 25 21 21 20 25 27 24 24 37 40 50 37 29 34 32 36 35 67 80 88 73
79 74 74 78 82 81 83 78 81 89 92 97 97 96 92 80 76 80 98 97 76 44 25 28 19 26 25 20 20 22 24 27 20 18 34 51 51 38 32 34 29 37 39 36 69 82 86
76 76 73 72 77 82 82 82 79 88 92 97 98 97 85 76 84 84 99 74 62 34 29 28 29 24 29 23 24 24 25 20 20 18 44 61 61 45 38 33 23 27 26 44 55 54 56
76 75 74 74 76 79 82 84 82 86 93 95 97 97 71 70 86 96 91 71 58 38 30 31 26 25 25 26 24 26 25 18 21 37 44 52 59 61 48 40 31 34 36 35 35 56 66
76 75 75 75 75 78 81 87 81 85 90 98 98 97 72 74 99 86 80 65 58 40 38 36 29 30 26 28 30 26 27 39 21 28 31 50 62 80 52 29 23 25 35 46 70 46 64
75 75 76 75 77 85 79 86 86 85 84 92 96 82 78 63 78 88 63 62 55 48 43 36 35 34 33 28 35 30 45 44 41 35 37 44 46 58 42 36 35 32 28 26 40 62 55
75 75 75 74 74 85 78 79 89 83 85 92 97 91 98 90 46 62 62 56 63 45 44 34 30 33 34 30 34 34 52 47 45 45 64 50 40 46 56 42 36 44 32 30 35 75 59
73 74 76 78 81 82 77 80 82 84 83 94 99 71 77 90 88 59 53 49 58 58 42 34 35 34 34 39 40 38 51 50 48 58 47 44 47 43 35 34 31 31 34 33 30 41 52
74 76 78 80 80 78 76 79 85 85 83 98 97 65 78 80 70 73 59 58 54 45 43 37 40 34 33 38 40 40 43 48 49 55 46 44 58 52 57 40 37 42 35 34 32 31 32
73 78 80 79 81 80 81 80 84 86 85 97 80 79 70 79 76 79 57 51 51 43 40 29 36 37 42 40 44 48 41 43 45 54 54 54 62 72 72 49 44 56 40 33 35 33 32
76 78 80 81 82 83 81 83 85 84 85 95 71 77 92 80 77 69 46 44 51 45 49 33 38 42 47 43 47 49 49 48 50 55 49 66 65 83 83 75 57 40 26 21 24 27 26
78 78 81 84 82 82 84 83 86 81 82 92 86 93 97 100 66 58 45 47 48 46 46 40 51 41 47 53 74 72 80 57 55 46 48 60 76 88 78 84 54 36 31 36 35 38 33
78 81 85 89 86 91 85 84 79 77 80 88 78 93 99 97 81 45 43 48 57 61 79 77 67 61 53 78 86 77 87 62 62 50 53 53 70 74 90 84 72 56 31 30 29 61 42
75 85 89 88 90 92 85 80 86 86 89 89 94 90 98 100 70 57 48 49 50 74 87 89 84 74 69 100 99 86 77 50 76 76 79 90 86 85 96 93 78 47 31 36 50 61 46
78 84 82 83 87 84 84 88 88 85 84 85 91 91 99 99 83 71 45 48 54 71 82 77 90 81 89 91 92 91 92 73 70 66 77 80 94 97 97 98 84 38 36 44 63 52 44
83 83 87 88 89 88 90 90 88 87 87 86 94 85 89 99 96 87 74 76 58 57 76 75 70 74 80 88 97 98 99 98 76 81 57 79 81 87 78 84 62 40 38 44 44 52 58

GFSGBSN_sfc_rhum_036.txt.gz
RH
75 76 72 84 86 85 85 93 94 93 91 90 90 89 90 88 87 90 90 85 83 86 85 84 85 84 87 76 58 50 75 73 39 26 25 27 32 33 24 18 18 19 16 24 40 40 37
77 79 80 82 85 86 84 86 94 94 92 91 90 90 90 90 90 90 90 90 88 88 89 86 83 82 90 50 32 49 45 36 29 26 26 26 26 25 19 18 25 21 23 36 39 36 28
76 77 80 82 87 88 89 88 88 96 94 92 91 90 90 90 90 91 90 90 91 90 90 86 81 74 81 38 35 39 33 29 26 22 26 24 24 26 26 24 23 24 21 40 50 48 41
78 79 78 80 85 89 90 90 88 92 95 93 92 91 91 90 90 90 90 89 90 90 90 86 80 86 75 38 42 36 27 21 20 21 22 20 22 27 30 25 26 29 24 25 39 38 38
70 78 79 80 82 87 89 89 90 90 96 95 93 92 91 90 90 90 90 90 91 89 90 87 92 93 70 41 35 28 22 23 20 20 21 16 23 32 28 34 40 36 34 31 30 29 31
69 69 75 79 80 82 87 87 89 90 93 96 94 93 91 89 89 90 91 90 88 91 81 69 66 79 49 30 26 20 19 18 25 25 28 28 35 38 39 40 50 43 31 32 30 25 31
70 68 73 72 80 80 81 85 89 91 91 95 95 92 90 89 88 89 93 92 80 86 85 57 39 42 27 26 20 19 19 21 27 36 40 48 46 47 44 39 36 36 37 38 25 20 33
75 76 76 74 76 80 78 80 87 92 92 94 95 93 90 88 88 91 94 88 65 56 70 56 50 44 32 31 29 21 21 26 35 44 49 45 50 40 34 32 35 34 39 36 26 20 30
79 74 76 75 76 72 79 78 82 89 92 95 95 94 90 88 92 96 97 82 55 51 77 58 52 50 42 32 28 24 21 27 33 40 42 49 38 36 35 31 32 37 38 38 35 23 20
78 77 77 78 76 76 78 79 80 86 89 95 96 95 91 92 88 88 94 70 69 63 90 58 45 41 24 20 30 20 16 24 34 40 42 42 37 36 39 36 34 39 28 28 33 29 25
80 77 78 77 76 69 79 79 79 83 89 89 96 95 93 83 92 86 68 63 68 75 75 35 43 23 19 25 25 21 17 21 34 40 38 34 41 39 39 35 32 37 33 35 30 40 46
87 79 74 77 79 74 73 82 82 84 88 90 95 96 95 95 98 89 70 72 86 86 88 45 30 26 26 26 26 21 19 19 26 39 39 37 36 36 36 33 33 36 35 40 51 49 52
80 87 76 75 79 81 78 74 81 82 88 92 95 97 91 79 81 84 76 89 94 92 40 36 31 27 28 30 28 24 25 26 28 44 50 40 36 35 38 34 34 35 43 64 62 76 62
72 74 80 75 73 80 81 77 75 82 86 91 96 97 91 75 88 88 93 94 94 57 53 32 29 28 30 28 28 26 28 29 30 31 48 45 48 37 38 37 44 43 39 66 59 75 62
72 73 82 79 71 74 82 80 78 79 85 91 98 99 97 86 89 79 98 96 76 66 30 32 29 33 34 27 25 27 30 29 24 26 34 55 50 43 38 39 38 36 44 40 72 85 87
73 76 87 83 76 72 74 83 79 77 83 92 97 98 92 83 79 82 99 78 68 48 38 37 35 33 36 29 31 29 30 26 28 23 36 49 58 45 40 35 35 35 30 45 59 63 70
73 75 86 80 80 74 76 80 80 74 83 91 95 95 81 77 86 92 90 73 59 42 46 46 42 34 31 31 29 32 26 23 24 39 39 52 47 53 51 47 40 36 38 40 43 60 62
74 78 82 80 79 78 80 78 82 78 81 93 94 95 84 80 94 88 86 63 62 49 49 53 48 43 33 33 34 31 30 24 33 44 42 51 63 72 45 40 37 32 38 44 67 44 68
74 77 80 79 78 75 78 76 78 84 79 90 93 89 87 74 93 83 71 64 55 49 52 51 48 41 34 34 40 35 42 49 48 39 45 50 60 67 49 36 40 38 31 37 53 64 57
75 80 82 81 79 76 75 75 80 84 79 90 95 94 93 92 71 58 70 71 70 51 53 55 55 50 42 36 37 42 50 50 51 44 64 47 48 52 61 39 40 47 41 40 43 75 60
76 80 80 80 79 77 77 76 78 85 84 91 94 77 72 95 89 65 56 64 70 65 53 49 49 50 55 42 38 57 55 51 51 57 53 44 47 43 39 40 42 40 37 39 37 43 52
76 79 80 78 77 76 76 78 83 83 92 95 91 93 80 88 72 82 64 62 58 48 47 45 53 50 46 38 37 46 52 54 47 54 48 48 51 53 55 47 42 45 37 38 38 38 43
77 78 77 77 76 76 77 83 83 82 94 96 87 84 80 70 77 86 73 59 50 45 46 39 45 46 53 40 40 39 45 48 47 50 57 55 66 72 70 53 47 62 45 36 36 39 36
78 78 77 76 76 79 81 81 89 81 90 92 84 82 94 84 80 77 64 53 49 47 46 46 41 50 46 52 51 47 49 59 58 62 56 68 72 81 81 69 68 46 34 33 39 37 34
77 77 78 80 80 79 81 83 81 81 84 98 86 95 99 92 68 74 66 55 46 46 56 41 44 43 49 61 73 70 83 68 57 53 59 63 80 88 76 78 58 40 31 32 39 46 42
78 78 79 81 79 79 80 81 80 80 86 95 93 98 99 99 81 57 72 55 56 66 60 61 69 71 66 87 87 75 79 65 65 52 56 67 78 80 94 75 70 52 37 32 38 64 44
78 79 80 80 82 82 82 82 80 83 85 91 94 95 98 100 90 60 66 65 54 66 82 87 73 76 77 98 92 86 84 58 74 71 71 88 89 83 97 84 69 49 37 38 43 49 48
82 81 82 82 86 86 85 83 81 82 83 91 91 97 96 98 94 94 61 58 50 58 85 84 85 85 95 91 91 92 86 75 80 68 71 69 89 93 96 93 69 50 38 44 53 60 54
79 81 89 92 87 82 85 84 84 83 85 83 97 95 94 98 94 88 84 79 75 46 83 89 66 76 85 89 97 97 93 95 82 90 69 71 67 79 76 77 58 48 51 55 56 64 71

GFSGBSN_sfc_rhum_042.txt.gz
RH
72 76 79 80 71 76 77 84 86 89 91 97 94 92 91 90 90 91 91 91 91 88 87 86 85 85 86 53 30 51 80 78 62 36 28 28 32 35 35 29 26 24 20 23 29 49 52
75 74 78 81 79 77 73 76 84 90 89 90 97 94 92 91 90 91 91 91 91 90 88 87 86 84 85 36 26 49 62 42 37 34 31 28 29 29 36 32 27 23 38 43 47 51 43
72 74 78 79 84 83 81 83 87 88 90 90 94 96 94 92 91 91 91 91 91 90 88 87 86 82 84 28 47 42 38 38 34 32 30 29 31 33 34 34 29 29 46 46 48 44 50
73 73 74 80 79 83 82 83 84 87 88 90 89 95 96 94 92 91 91 91 90 90 88 88 83 90 67 37 52 48 44 39 31 30 28 25 30 32 37 33 32 30 33 50 48 50 49
76 74 74 79 80 80 82 81 82 85 87 88 91 92 97 96 94 92 91 90 90 90 89 89 95 94 51 40 37 33 35 31 28 28 27 19 30 38 35 40 40 41 41 36 39 42 45
74 79 72 74 81 80 78 81 80 83 87 88 88 91 95 97 95 92 90 90 89 87 87 77 73 71 32 32 33 29 39 29 32 32 32 37 42 43 46 43 44 47 46 58 43 42 46
70 75 82 75 76 78 76 78 82 80 83 88 89 91 93 96 95 89 90 82 67 79 83 55 41 30 27 32 36 28 27 27 35 33 43 53 47 51 44 42 41 41 44 46 42 30 46
72 74 76 83 74 75 75 76 80 84 81 85 90 92 93 96 93 91 93 76 65 71 78 59 57 49 39 44 52 39 24 27 37 42 54 45 54 41 41 41 46 39 41 43 36 33 38
73 73 74 76 83 73 75 77 79 81 83 81 86 92 94 95 93 95 91 73 62 73 79 49 57 58 52 47 50 46 26 34 40 47 49 48 38 41 43 41 39 42 44 45 38 36 31
74 72 73 75 77 83 73 76 77 78 83 83 85 90 95 95 91 87 89 72 72 76 74 53 63 57 51 49 42 35 26 29 42 41 48 48 41 42 46 43 37 44 37 42 43 42 38
76 74 73 72 77 82 84 75 77 79 80 83 84 89 94 92 86 96 74 68 72 75 50 30 60 40 46 30 28 29 24 28 35 43 42 42 49 48 47 40 36 37 42 44 46 46 50
78 76 75 73 71 75 84 81 74 76 80 84 83 88 91 99 94 84 73 80 84 74 63 35 44 46 37 31 31 28 25 27 33 47 49 41 43 42 39 40 38 38 40 44 53 53 59
81 79 76 76 74 73 77 88 75 75 78 83 82 85 96 82 87 86 78 90 97 87 37 40 49 37 35 35 31 29 31 35 38 48 53 47 44 41 43 43 43 42 48 63 61 71 62
82 81 79 76 76 75 75 82 82 77 79 82 83 87 95 85 81 88 92 97 98 64 53 45 40 38 35 32 32 34 32 36 36 40 53 48 48 42 42 38 42 47 46 66 58 69 54
82 82 81 78 77 74 73 77 89 79 80 83 87 97 96 86 86 78 96 99 73 64 51 40 38 40 39 33 34 34 37 37 31 37 38 57 48 49 46 47 41 46 50 45 73 84 84
81 82 82 81 78 76 73 76 85 82 80 82 95 97 88 82 90 90 98 80 64 49 53 56 43 40 45 39 36 38 40 33 31 34 36 44 44 50 48 48 45 44 42 52 64 60 63
83 82 82 83 80 78 75 77 86 84 79 80 95 97 78 89 95 99 92 80 60 50 50 59 70 64 42 42 37 43 38 31 31 35 36 48 39 43 54 48 43 48 48 50 50 62 60
85 86 83 83 82 79 76 75 81 86 77 83 94 97 90 92 99 85 82 74 60 53 54 59 66 68 64 44 43 40 37 29 29 40 37 48 47 50 39 46 42 41 44 48 69 52 72
81 87 86 84 84 80 77 76 81 88 74 85 94 83 91 80 90 92 68 65 62 59 59 61 65 62 62 51 43 43 41 36 44 38 44 51 54 54 44 42 48 48 45 50 59 68 67
80 83 90 87 87 81 77 76 76 88 77 86 96 94 97 94 63 71 71 67 68 59 58 58 66 67 63 57 49 45 40 50 57 42 65 49 58 46 46 41 44 57 46 53 53 76 63
82 80 85 89 88 82 77 75 81 88 80 89 98 78 77 96 87 78 63 62 72 64 56 59 67 68 64 63 58 55 59 60 56 70 55 46 50 54 47 42 43 43 44 49 48 50 54
82 80 83 92 88 84 78 74 81 84 78 93 98 91 88 87 70 78 76 65 69 60 67 62 67 61 68 74 57 55 60 61 53 58 56 54 54 54 67 52 49 55 46 50 49 50 49
83 81 82 92 88 86 80 75 79 79 79 94 95 88 85 74 78 83 74 64 63 61 56 57 54 55 67 56 46 45 50 53 53 61 60 55 66 66 58 60 54 65 52 46 46 48 45
84 82 82 91 88 86 81 79 81 82 78 91 96 88 92 89 82 70 64 63 61 58 64 53 57 62 53 53 57 61 59 65 61 71 61 67 66 74 80 71 66 46 49 46 49 46 43
83 81 83 90 88 85 83 86 86 82 77 91 97 98 95 96 77 74 64 64 61 58 61 56 51 46 48 54 68 73 84 74 73 75 76 68 76 82 75 78 57 50 44 45 44 40 43
82 83 89 90 87 83 84 83 83 79 78 85 93 97 99 98 78 65 63 62 70 68 70 66 52 52 62 83 83 81 89 73 72 68 66 67 75 74 86 76 76 57 48 37 38 51 45
82 89 90 89 86 82 86 84 77 79 80 86 89 92 98 98 89 69 72 74 64 67 79 70 66 86 71 94 93 90 85 69 79 75 80 89 89 82 96 84 75 56 43 40 47 51 52
90 90 89 89 85 84 82 77 76 80 81 83 90 92 96 98 90 88 90 78 67 64 79 77 73 80 94 88 93 91 93 83 83 70 77 79 88 91 90 86 76 48 48 45 50 69 59
90 90 88 85 84 81 82 79 80 81 80 81 94 92 92 99 96 92 89 82 77 75 61 78 72 82 72 90 96 94 92 96 80 83 69 70 72 79 73 74 60 58 49 51 56 60 61

GFSGBSN_sfc_rhum_045.txt.gz
RH
71 69 72 74 74 70 69 71 73 85 89 91 90 94 95 92 91 91 91 91 91 89 87 86 83 85 76 38 23 54 82 77 56 34 21 21 23 25 25 22 19 22 17 18 22 42 42
73 74 73 76 74 68 68 70 76 83 88 90 90 91 95 95 93 92 92 91 91 90 89 87 85 85 66 29 29 50 56 42 33 26 22 22 23 24 26 26 20 20 24 34 39 42 39
75 73 76 79 81 70 68 74 77 82 85 88 90 90 93 97 95 93 92 92 91 91 89 86 87 78 70 27 40 38 37 30 30 25 20 21 22 24 24 27 23 24 30 35 39 38 42
70 80 75 76 80 80 78 76 80 72 81 86 89 90 91 93 97 95 93 92 92 91 89 88 84 82 56 31 40 44 37 33 30 27 20 20 23 24 27 26 24 23 29 34 32 39 43
68 71 75 82 75 80 80 79 77 78 77 83 87 88 90 92 96 97 95 92 91 89 89 88 87 83 40 34 29 26 31 27 30 27 24 19 24 30 28 29 28 33 26 27 26 39 42
68 69 72 77 83 76 78 80 78 79 79 81 85 88 90 93 95 97 94 90 87 86 86 77 71 63 33 23 28 28 36 28 26 27 26 30 33 31 34 28 29 34 31 31 29 36 38
65 63 66 72 75 81 76 78 80 78 80 78 76 87 90 93 94 95 86 74 58 74 84 56 48 34 20 27 35 26 28 27 28 28 33 40 35 37 34 35 30 31 33 31 28 25 36
74 72 70 70 72 72 79 77 80 81 79 79 79 83 90 93 95 93 84 74 59 67 79 60 58 49 38 38 45 38 24 28 34 36 41 37 42 35 34 36 36 35 33 32 29 26 30
75 76 75 71 69 69 72 80 76 79 79 79 79 80 87 94 95 92 85 70 64 66 86 57 56 54 48 40 45 42 25 29 32 40 42 41 31 37 37 34 37 34 33 34 32 30 26
75 76 76 76 74 73 72 77 85 77 78 77 82 80 87 95 94 83 83 68 70 73 72 47 51 51 51 47 43 34 24 27 33 34 43 39 35 36 36 36 32 36 29 32 33 32 30
77 77 78 77 76 75 74 75 82 80 77 78 78 82 86 96 87 86 70 69 77 74 61 32 60 38 49 36 28 35 26 26 38 40 38 37 38 40 40 36 33 33 35 34 34 34 38
79 79 79 79 78 76 75 75 82 87 77 78 78 83 85 96 97 81 75 77 83 83 67 30 47 53 54 35 28 26 26 29 31 40 38 34 34 35 35 33 34 33 34 38 42 40 44
81 81 80 81 80 79 76 75 77 80 84 78 78 83 88 85 83 84 78 84 93 91 38 31 49 42 40 35 32 30 32 39 36 45 48 37 36 32 35 34 35 33 36 45 51 55 50
82 82 82 80 81 81 78 76 74 78 82 79 79 86 87 77 80 80 89 95 94 61 50 37 38 40 39 32 32 31 35 34 32 31 40 37 36 35 37 33 35 40 37 55 48 53 42
82 83 82 82 82 82 82 78 76 75 82 82 82 93 93 84 83 83 94 98 72 62 49 41 33 42 38 32 30 33 38 34 31 34 35 48 39 35 38 35 32 38 41 37 60 69 63
82 84 82 82 83 82 83 80 77 77 83 85 93 93 86 83 87 94 98 79 70 50 49 52 41 40 45 37 38 35 41 34 32 35 33 43 40 40 40 36 38 35 35 46 52 56 56
81 82 84 83 83 83 83 82 78 78 82 83 94 97 72 80 94 98 88 73 58 49 49 53 66 64 42 42 37 42 37 30 30 32 31 41 37 38 42 41 36 42 41 44 40 47 48
81 82 82 83 83 84 85 83 79 77 82 92 93 97 80 83 98 84 79 63 61 50 50 55 59 63 62 45 45 43 38 31 29 36 36 41 48 50 36 37 34 35 40 42 57 47 56
73 79 81 81 84 85 87 85 80 78 81 96 97 84 88 87 90 88 67 62 55 56 55 59 61 60 57 56 45 43 42 36 42 37 44 48 47 46 35 35 37 39 38 42 50 58 55
77 78 80 80 84 87 89 87 82 78 79 94 97 96 96 93 67 63 74 70 65 57 59 56 60 61 57 56 52 44 45 45 49 38 64 46 50 45 39 37 38 48 43 43 45 60 52
80 80 78 80 83 83 91 88 83 80 81 94 98 87 77 96 84 73 63 61 68 69 55 59 64 58 62 60 58 51 50 56 55 68 51 46 47 49 38 32 37 37 39 45 40 43 51
82 82 82 80 81 81 89 88 84 80 84 97 97 90 86 74 68 76 71 68 64 60 54 60 62 63 56 66 55 58 51 54 53 56 55 49 50 53 47 43 39 43 38 42 42 40 40
84 86 88 83 81 82 90 88 85 81 87 98 93 85 69 76 74 73 66 66 62 61 57 47 54 60 72 59 53 53 52 50 50 55 58 56 63 60 53 49 44 64 50 42 41 41 39
88 85 83 83 82 82 90 88 86 82 80 93 90 83 89 84 79 68 61 60 61 58 61 52 52 54 53 53 53 56 54 59 63 62 55 62 63 66 73 67 73 40 38 36 41 40 37
89 90 85 81 82 82 91 88 85 83 78 96 97 95 93 90 72 68 66 62 62 58 61 52 58 54 55 54 66 72 80 73 71 67 64 57 68 76 79 62 49 37 38 41 42 30 34
87 84 84 84 78 84 89 86 84 81 78 87 99 97 98 89 81 61 68 62 69 67 71 66 60 58 66 79 76 73 85 72 68 64 60 65 64 69 74 72 70 51 36 35 30 45 34
85 85 84 80 83 91 88 86 83 81 78 79 98 94 96 98 87 73 71 68 58 67 78 76 66 71 63 90 96 87 76 66 75 76 82 78 78 73 78 82 62 46 37 37 49 45 42
86 84 82 85 92 90 87 85 81 79 77 74 98 94 96 98 91 88 88 76 65 59 72 77 74 78 95 88 92 88 92 78 75 65 75 72 79 85 78 90 68 45 38 45 47 45 48
84 84 89 91 90 90 87 83 80 81 78 81 95 94 94 98 96 91 88 83 76 49 61 68 66 70 71 88 93 92 98 96 77 71 62 76 66 70 60 63 54 47 44 42 44 44 52

GFSGBSN_sfc_rhum_051.txt.gz
RH
69 71 80 75 76 74 72 72 77 80 80 79 82 84 80 83 85 92 96 94 93 92 90 87 84 85 53 26 16 26 76 72 25 20 12 13 13 12 13 10 10 12 11 10 11 15 21
69 69 71 75 80 74 71 75 78 77 77 79 80 83 85 87 86 90 93 96 94 93 92 89 85 90 42 29 10 15 23 28 16 15 11 11 13 12 14 12 12 12 12 12 14 17 17
66 68 69 74 76 76 82 77 77 77 75 76 72 77 84 85 85 87 90 93 95 95 93 89 86 53 39 24 12 13 19 15 12 12 12 11 12 14 14 14 10 12 14 13 15 17 17
66 67 68 73 75 77 79 85 78 76 76 73 74 76 79 86 85 86 90 92 95 96 92 87 86 46 38 14 11 16 16 15 12 11 12 11 13 16 16 13 13 11 12 16 53 17 17
72 69 67 72 75 76 78 80 83 81 76 76 72 73 76 81 87 88 91 93 95 93 83 82 63 47 29 31 16 12 16 15 14 13 14 12 14 15 14 16 14 13 13 16 26 13 17
63 69 76 74 74 75 76 76 76 83 84 77 75 75 77 80 86 90 93 95 81 83 70 46 39 46 29 16 11 9 16 15 17 18 18 18 16 17 16 14 17 13 13 12 12 28 16
66 67 71 73 78 75 70 71 74 77 87 84 77 75 76 79 83 90 87 48 51 59 46 28 25 19 13 12 15 12 12 20 16 18 22 18 20 20 17 15 13 13 13 12 13 16 18
75 73 72 72 72 73 73 71 72 75 80 84 83 77 76 79 80 88 83 46 33 48 44 26 28 24 20 18 19 12 15 22 22 23 18 20 24 16 16 17 17 16 17 14 16 15 17
79 79 78 76 75 75 70 74 76 74 74 80 86 79 77 79 81 82 63 41 33 42 44 20 17 21 19 19 22 14 16 18 20 22 19 23 18 17 19 18 17 17 19 19 19 26 13
80 80 80 79 79 78 77 76 75 76 75 78 85 84 79 81 78 48 45 33 32 50 42 16 26 22 20 18 25 13 12 16 18 20 18 20 15 19 20 20 16 20 15 18 17 17 19
81 81 81 82 82 80 79 78 77 77 77 77 87 86 80 87 64 51 38 36 46 60 28 13 19 18 18 23 15 17 11 14 19 18 17 20 18 21 22 20 16 18 18 18 17 19 20
82 82 81 82 82 82 82 80 79 79 79 78 84 87 82 68 67 60 62 49 60 49 34 18 26 30 32 26 18 12 15 13 12 16 16 16 13 16 18 16 17 16 21 20 20 21 32
82 82 82 82 83 83 83 82 80 81 80 79 81 85 82 47 52 48 70 90 51 37 10 15 28 29 29 28 20 16 20 20 20 26 26 19 19 16 17 21 21 19 23 36 40 35 39
86 85 83 83 82 83 84 83 82 82 81 80 83 85 77 54 45 60 87 96 46 17 16 19 19 26 34 22 23 21 22 20 17 17 20 24 26 19 17 19 24 22 22 38 55 48 36
86 85 85 84 83 82 83 84 83 83 82 81 84 66 84 66 55 60 99 95 44 19 10 13 20 33 30 21 21 21 21 18 17 16 21 23 21 13 14 16 16 23 26 19 31 36 44
85 85 85 84 84 83 83 84 84 83 83 82 79 55 57 69 62 82 99 94 39 17 10 15 20 27 30 23 22 22 21 16 17 14 14 18 24 15 17 16 17 20 21 30 30 50 50
85 85 85 86 84 84 84 84 85 85 84 82 88 93 47 65 77 98 97 66 41 19 13 16 20 20 25 26 20 21 22 16 15 16 15 16 21 23 24 26 23 25 28 25 25 30 52
89 87 86 86 85 85 85 85 86 85 85 89 95 98 53 65 99 94 84 52 35 30 23 20 22 29 18 25 26 20 21 18 16 18 24 18 23 31 28 18 16 19 24 25 38 37 31
80 80 79 78 82 90 90 87 86 86 88 96 98 86 74 75 95 94 63 47 27 30 26 24 29 29 24 28 34 26 21 17 19 22 26 21 25 34 27 25 21 24 22 21 25 27 35
80 81 80 79 79 78 80 83 86 88 89 95 98 99 98 94 55 58 57 50 40 28 27 22 31 25 27 36 29 32 25 26 21 21 45 39 24 28 33 25 21 26 21 18 22 43 34
80 80 79 79 79 79 78 80 85 84 91 95 99 85 77 96 86 53 45 36 32 31 30 25 34 44 28 32 30 34 31 39 31 42 30 33 30 24 20 16 16 17 18 18 19 22 31
80 81 81 82 80 80 79 77 81 88 91 98 100 67 60 56 68 58 52 42 32 24 27 33 36 50 36 31 28 34 33 33 31 33 30 25 33 28 26 18 16 18 15 14 14 16 17
82 82 83 84 84 82 81 78 84 87 91 98 96 48 50 55 66 60 57 43 32 24 27 21 26 31 46 31 41 40 40 40 40 40 34 38 37 33 40 22 22 39 22 16 15 14 16
87 87 85 84 84 83 81 79 81 84 89 96 92 43 66 61 75 53 45 38 33 25 32 23 21 28 30 33 34 37 40 34 42 42 35 42 36 38 54 66 67 26 16 16 18 16 14
83 83 84 84 84 84 82 81 80 91 85 93 58 61 64 85 44 51 44 39 32 29 34 26 22 20 24 37 46 46 59 55 49 47 38 36 45 59 68 53 29 20 20 21 21 19 13
87 87 84 85 86 90 87 86 82 82 86 88 59 54 69 74 52 38 42 38 40 40 39 43 27 30 38 56 52 52 46 30 31 51 41 32 43 63 59 58 64 32 19 16 16 33 15
86 84 86 86 86 84 89 88 83 82 87 89 84 67 81 74 40 44 53 47 34 41 55 46 42 51 41 75 88 56 47 22 33 63 85 67 66 80 67 64 38 20 16 16 39 37 16
84 87 88 87 87 90 90 87 84 84 88 89 86 71 81 76 58 53 52 57 44 41 53 48 48 63 68 77 65 49 62 39 33 26 60 68 66 85 67 72 75 27 22 30 27 24 20
87 89 91 88 90 89 90 85 80 82 87 80 93 78 73 82 93 72 64 55 57 36 37 41 60 49 44 46 50 46 77 81 41 52 23 57 53 58 45 43 33 32 28 22 19 20 24

GFSGBSN_sfc_rhum_054.txt.gz
RH
69 69 69 72 75 81 76 74 76 71 70 75 69 78 77 76 80 87 90 91 94 95 94 91 90 90 59 32 24 34 76 63 23 19 17 11 13 12 14 11 9 11 10 9 9 10 14
67 68 70 72 72 71 71 80 81 77 76 66 70 71 72 80 80 84 85 87 91 93 95 93 90 92 54 40 13 16 21 32 17 16 14 10 12 12 14 14 12 10 10 11 10 12 14
67 68 70 74 77 74 72 77 79 84 76 72 68 70 78 74 82 84 84 85 90 91 94 93 89 62 55 41 13 11 14 22 15 13 12 10 10 14 13 16 11 10 12 12 13 13 16
68 71 71 73 75 78 78 78 80 78 84 78 75 67 72 77 74 85 86 86 89 91 94 92 85 58 52 19 15 15 13 15 12 10 10 10 11 14 17 15 14 14 12 14 15 17 18
65 68 70 76 76 76 78 80 80 80 78 84 81 76 67 72 78 82 86 87 89 90 92 84 70 59 37 26 21 14 12 14 13 11 11 10 13 17 15 18 18 15 16 13 20 19 21
65 68 71 72 72 78 77 78 79 79 80 80 83 81 76 73 71 81 87 87 75 86 73 54 46 41 32 18 14 14 11 14 14 14 15 17 17 19 18 18 24 17 15 13 12 17 16
66 67 70 74 74 74 69 78 77 78 80 81 84 84 80 77 77 81 72 54 48 73 62 42 30 23 10 15 10 11 10 16 16 17 22 19 21 22 19 19 18 15 14 14 17 18 19
76 76 74 73 76 75 70 70 77 78 77 78 85 82 84 78 80 82 67 61 26 40 52 29 38 34 22 18 18 15 9 21 22 23 20 21 25 18 15 16 18 17 17 16 12 16 16
79 80 79 75 75 76 74 75 75 74 80 78 80 82 82 80 80 73 66 60 33 32 50 27 18 16 20 19 23 17 11 18 23 22 21 24 19 17 16 19 18 17 16 16 21 22 16
80 81 81 79 78 79 79 78 78 77 75 80 81 83 81 82 77 46 45 37 38 39 62 20 11 13 12 16 22 16 11 15 20 21 19 20 16 18 20 20 17 20 12 14 19 22 22
81 82 83 83 82 82 83 82 80 79 79 80 82 86 84 86 60 56 54 58 38 59 42 8 10 14 13 18 16 17 14 16 22 20 19 22 19 19 22 19 17 18 18 19 16 18 20
81 82 82 84 84 83 84 84 83 81 80 80 82 85 86 80 66 53 48 64 61 61 41 14 23 25 24 20 20 15 17 15 15 19 18 18 13 15 17 16 16 15 19 21 20 22 35
83 83 83 84 84 84 83 84 85 84 82 82 82 83 80 51 66 45 61 88 68 49 11 10 24 26 25 27 25 22 22 23 22 30 30 19 17 14 15 19 17 18 23 38 44 43 45
82 83 84 85 85 84 84 84 85 85 83 83 83 84 73 49 53 60 86 97 50 21 24 12 13 23 31 26 27 28 27 24 20 19 22 25 29 16 16 20 23 24 25 40 57 68 46
84 84 84 85 85 85 84 84 85 86 85 84 84 78 74 64 61 70 98 93 45 22 13 17 14 22 29 26 23 26 24 24 20 20 25 27 24 14 16 16 17 26 30 22 32 44 60
84 84 84 84 85 86 85 85 85 86 86 85 95 84 75 62 68 84 98 90 45 19 13 15 19 18 28 28 27 26 24 19 22 18 18 23 31 17 16 15 17 19 20 34 30 57 60
84 84 84 84 85 85 86 86 85 86 86 85 97 98 60 62 81 98 96 75 48 24 18 20 24 19 16 22 24 25 24 19 20 18 17 20 27 25 17 20 21 21 26 31 28 31 54
84 84 84 85 85 85 86 86 86 86 86 92 96 99 66 67 98 96 77 60 46 29 24 24 25 23 22 21 30 26 24 21 16 18 22 21 30 33 22 16 16 18 24 28 46 40 40
83 84 85 85 86 89 88 86 88 86 87 97 98 97 74 70 97 96 70 47 41 38 27 23 26 23 25 31 47 32 36 19 22 21 24 23 30 40 29 25 21 22 22 23 28 32 43
84 85 91 85 82 80 80 90 92 89 89 97 99 99 94 94 62 70 67 59 49 37 34 24 24 24 29 44 42 47 36 23 27 20 50 34 30 32 41 40 27 29 22 26 31 53 46
87 86 83 82 80 80 80 82 87 92 91 97 99 98 78 96 92 64 58 44 49 46 33 28 27 26 28 45 58 59 46 36 27 44 29 34 37 33 24 20 22 23 22 22 24 24 51
84 83 83 83 82 81 80 79 84 91 92 99 100 97 62 53 68 67 64 56 43 35 32 32 32 25 26 36 51 59 75 38 44 29 31 31 40 34 36 22 22 23 19 18 18 18 18
80 79 79 80 80 80 80 80 79 80 88 98 99 81 64 63 71 72 67 58 46 38 33 23 24 29 31 34 41 60 84 71 51 35 39 41 40 40 48 29 27 38 25 19 17 17 17
82 82 82 82 82 82 82 83 81 79 81 95 96 82 97 83 78 62 51 47 46 38 42 26 24 30 25 29 66 69 68 74 79 42 38 39 43 43 61 66 60 27 18 17 20 18 14
84 85 85 84 84 84 84 83 83 81 79 94 95 82 82 100 51 57 51 46 43 41 40 33 24 20 23 44 59 90 96 91 76 42 44 40 54 71 70 59 38 26 23 22 25 23 16
88 85 85 86 87 87 86 85 84 82 80 92 95 68 81 88 74 40 49 45 51 51 50 40 29 25 30 34 59 80 95 70 65 44 38 42 52 74 78 67 71 48 24 17 20 38 19
86 85 85 85 86 84 85 85 85 83 81 90 95 72 84 97 63 48 52 56 44 46 50 41 38 44 43 53 67 71 59 31 49 59 71 75 80 91 78 78 52 26 22 21 42 44 26
86 87 87 87 88 86 85 85 85 83 80 90 93 73 80 93 70 56 70 67 53 49 60 43 55 64 90 76 69 62 71 45 36 26 60 69 85 92 77 85 81 29 26 33 35 35 30
88 88 90 89 89 87 87 90 84 82 81 89 94 74 78 92 88 72 71 79 69 49 56 47 52 52 65 92 58 59 87 78 46 59 33 68 54 74 55 55 49 42 36 33 35 36 34

GFSGBSN_sfc_rhum_060.txt.gz
RH
68 68 68 69 70 71 71 71 77 82 82 82 82 76 72 68 69 69 70 79 83 83 82 79 83 92 93 70 58 37 68 65 42 26 24 25 29 26 21 20 21 21 20 16 15 23 44
68 71 72 73 72 71 69 70 78 81 83 82 82 82 79 71 71 68 71 76 80 82 84 80 81 92 96 79 26 29 45 42 28 27 27 28 26 22 21 23 31 24 25 23 17 16 44
66 67 72 74 75 75 76 79 81 82 82 83 83 82 82 81 76 73 74 76 78 79 82 79 79 85 81 67 35 34 34 40 34 27 26 24 24 26 22 26 27 25 26 22 20 19 39
64 66 67 73 76 78 78 82 82 81 82 82 81 83 84 82 80 82 78 78 77 78 80 81 81 87 81 42 46 47 46 41 31 31 25 23 24 23 24 25 26 28 30 32 22 20 32
62 66 67 73 76 77 79 80 80 81 82 82 84 84 86 86 87 86 83 82 81 79 79 84 87 91 86 48 51 41 34 30 26 29 28 20 26 25 28 35 38 40 38 34 26 19 28
65 66 68 70 75 77 78 78 79 80 83 85 84 84 85 88 87 86 85 83 73 81 79 73 73 79 62 28 30 25 31 26 26 29 31 27 28 32 36 39 47 40 37 39 30 24 43
69 65 67 70 70 71 72 75 78 80 81 81 85 83 83 86 84 86 86 70 60 82 92 82 73 62 31 26 28 28 25 27 26 29 34 31 34 35 36 34 30 30 32 33 27 28 39
69 65 67 70 71 72 73 75 79 82 81 80 82 84 82 85 84 86 88 84 69 70 78 53 61 61 48 40 47 38 26 29 31 34 30 32 35 27 28 29 30 31 32 31 25 26 29
70 64 66 70 73 74 75 76 80 81 83 84 82 84 83 83 84 87 88 68 49 66 95 55 46 47 49 47 57 46 33 26 30 38 32 33 31 25 28 29 30 29 31 31 28 26 30
60 73 76 74 75 76 78 79 81 82 83 84 85 83 84 81 82 82 78 59 53 66 94 50 37 33 28 34 50 26 24 24 29 34 36 35 24 27 31 30 28 35 26 27 27 33 42
73 79 79 78 78 82 84 84 84 85 85 85 86 84 84 80 85 86 64 57 61 85 24 14 27 24 28 28 27 31 20 30 28 34 36 41 33 33 33 29 26 30 27 30 31 35 38
74 78 79 81 83 84 84 84 86 87 86 86 87 85 82 89 98 89 70 65 87 93 71 34 23 28 31 26 24 25 30 29 27 33 34 34 26 27 28 25 25 24 30 34 39 43 55
77 79 79 82 83 84 85 86 87 88 87 87 88 87 84 73 89 79 66 93 94 96 25 15 35 28 26 29 24 26 26 37 40 41 39 31 30 25 24 28 27 27 37 57 61 62 62
77 80 81 81 82 83 84 86 86 88 88 87 86 89 86 82 84 76 86 99 90 46 28 20 21 17 42 29 25 26 31 29 32 36 37 39 51 30 25 28 31 34 37 63 61 74 61
74 78 79 80 83 84 86 85 86 89 89 87 87 96 96 92 86 81 98 99 69 48 29 27 20 22 22 31 37 28 34 32 29 30 42 49 42 26 24 24 25 34 43 34 50 68 75
73 76 79 80 83 85 88 88 87 88 90 88 98 97 89 78 87 92 99 91 67 44 37 39 40 31 35 27 42 56 53 37 33 31 30 38 48 31 24 23 24 28 32 48 59 64 68
77 79 80 81 82 83 87 88 88 88 89 88 99 100 81 80 91 98 97 82 62 44 47 49 45 41 38 35 35 46 56 42 41 35 29 34 37 37 34 32 32 37 40 46 46 62 68
79 79 81 82 81 83 86 88 89 89 87 95 99 100 82 78 99 92 91 69 62 52 48 51 48 49 48 42 45 43 45 38 43 58 50 35 43 46 34 26 26 23 32 37 61 62 69
80 81 80 81 81 82 83 85 86 89 88 97 99 98 83 74 97 94 70 65 62 61 55 52 55 50 42 48 50 49 52 44 60 58 69 64 48 54 48 31 26 29 32 29 42 59 56
80 82 83 85 84 83 85 84 89 90 91 98 99 100 100 95 78 76 75 70 69 55 62 57 58 54 53 55 46 51 54 48 65 64 83 76 64 54 49 44 37 40 34 28 35 70 55
82 84 84 84 84 84 85 85 88 90 90 98 100 98 92 98 97 84 73 64 66 69 58 56 64 60 62 69 58 50 51 73 60 78 70 78 90 51 40 30 29 35 33 33 33 41 51
84 85 85 85 87 88 86 88 88 88 89 99 100 99 92 87 76 90 78 75 71 62 59 66 61 48 47 60 56 55 50 49 72 71 79 78 93 70 52 36 30 32 33 32 31 36 40
87 86 86 87 88 88 87 87 88 88 92 98 96 94 78 82 88 97 87 75 67 63 58 53 54 56 57 51 47 51 79 83 88 78 80 84 96 96 87 42 38 57 39 33 37 39 40
87 86 86 87 88 87 87 87 88 92 93 96 99 96 98 97 85 90 69 68 68 64 69 51 48 59 48 43 77 82 80 80 86 85 73 87 92 98 97 71 76 41 36 33 36 33 31
88 85 82 82 84 84 85 87 89 89 89 96 97 98 98 98 87 71 68 65 67 61 65 63 56 47 46 50 73 68 85 75 81 78 89 80 90 100 99 90 57 50 44 40 40 34 29
82 83 83 83 83 82 82 82 84 82 86 96 95 94 98 99 95 64 67 65 73 78 74 65 52 52 57 66 74 70 74 76 80 93 81 86 86 92 98 97 96 56 39 36 34 54 32
83 82 82 84 86 86 85 83 82 82 80 90 97 91 97 100 92 77 73 74 61 70 77 70 67 67 58 85 91 85 74 56 70 82 95 96 100 97 97 97 88 58 57 36 53 51 36
88 89 88 88 88 88 88 86 85 82 82 90 90 93 95 99 93 87 70 75 65 64 75 70 71 78 86 86 88 85 94 80 83 66 76 82 93 98 100 98 96 64 62 64 66 65 62
93 92 92 90 90 89 90 90 89 89 84 84 94 91 88 97 95 85 76 78 65 66 67 73 67 70 76 88 89 83 89 92 76 77 51 82 70 83 74 78 57 67 64 68 68 65 68

GFSGBSN_sfc_rhum_063.txt.gz
RH
70 72 74 74 74 73 71 70 77 82 84 84 84 81 75 76 75 76 78 79 79 77 75 76 78 79 92 83 64 41 69 68 48 25 21 24 28 26 26 22 25 22 23 23 22 22 39
68 68 69 70 70 71 73 75 78 82 85 84 85 85 84 77 76 80 79 78 80 79 79 75 77 81 83 90 28 34 49 51 30 29 28 25 23 24 28 26 31 28 27 27 23 29 56
63 64 69 73 74 73 72 79 81 82 83 84 83 84 86 80 80 82 82 84 82 81 80 75 75 78 76 70 44 41 35 40 37 29 28 28 26 31 30 29 27 29 28 27 24 25 49
67 68 64 72 75 78 79 79 80 79 80 83 81 84 86 87 86 87 85 86 84 83 80 77 77 88 87 48 56 52 54 49 38 30 31 27 26 30 28 28 27 30 35 36 26 24 29
64 68 68 71 75 78 80 80 81 78 79 82 84 86 86 86 88 87 84 84 84 81 79 80 83 86 83 52 56 49 42 39 33 36 37 26 28 32 33 37 39 42 38 35 29 24 28
64 66 69 69 73 76 76 77 80 81 82 84 85 85 86 85 85 85 85 85 78 82 79 70 76 81 58 33 30 32 44 34 30 34 40 35 33 35 42 40 47 43 42 53 38 29 46
67 67 69 68 69 70 70 72 78 82 84 83 83 83 86 85 85 85 87 80 64 79 73 78 70 69 44 34 35 37 35 34 30 34 42 35 39 40 32 35 34 34 38 39 33 26 44
67 67 68 66 67 67 71 74 80 83 84 84 85 84 85 86 85 85 91 92 69 69 92 63 56 57 54 51 58 33 32 36 37 41 37 38 38 31 30 34 35 37 39 37 31 26 38
68 69 66 64 65 69 72 73 80 83 84 85 86 85 84 86 86 83 93 79 50 57 91 73 51 43 29 52 60 51 36 35 36 41 39 42 34 27 30 35 35 37 38 36 33 30 35
69 73 65 62 66 70 74 76 80 82 85 86 87 87 85 85 81 82 89 64 54 64 98 47 50 42 33 46 64 34 26 29 35 35 38 39 29 31 34 32 34 39 31 31 32 39 43
71 71 69 71 74 78 81 83 83 83 85 86 88 88 86 83 83 86 64 60 60 79 29 14 34 27 33 34 26 33 25 32 35 38 41 46 38 35 34 33 31 35 32 34 38 38 44
73 69 71 73 77 81 83 85 84 85 86 86 88 88 86 92 98 91 81 73 85 92 67 32 27 40 42 37 29 32 32 32 29 34 39 36 33 32 32 28 29 28 37 40 46 47 59
72 71 70 73 77 80 83 85 84 86 87 87 87 88 88 78 87 84 80 94 98 92 32 21 32 35 34 36 32 27 37 38 42 46 45 37 36 31 28 34 33 36 41 62 63 64 59
71 71 72 74 75 80 82 83 85 86 87 86 87 87 88 86 86 80 91 99 93 53 49 28 23 21 35 29 29 29 36 38 37 39 42 42 49 31 31 33 35 40 40 66 63 69 58
68 69 71 75 74 79 81 82 84 86 87 87 87 97 97 98 87 88 97 99 68 58 38 46 31 29 30 29 43 36 39 37 31 36 43 47 41 28 24 26 29 42 48 35 50 70 79
64 67 72 75 77 80 81 83 84 87 87 87 98 98 89 95 89 95 99 84 67 54 47 46 44 38 40 35 41 48 56 45 38 31 35 43 53 34 28 29 32 31 35 50 62 65 70
68 67 70 75 78 80 81 83 84 86 88 87 99 99 82 85 90 98 95 75 63 49 49 61 56 42 49 50 46 47 54 39 45 51 39 36 45 42 33 39 37 42 44 48 46 62 58
75 76 78 78 80 80 81 82 83 86 88 94 98 100 89 77 99 96 82 62 58 55 52 55 59 55 54 49 48 49 48 40 56 60 68 58 54 53 38 28 30 32 38 40 58 62 72
76 78 79 80 80 80 80 81 82 84 88 99 99 98 93 77 98 95 68 67 62 66 61 60 63 58 51 52 52 50 52 46 61 63 69 63 78 72 52 40 36 35 33 34 49 61 57
77 78 78 79 79 79 80 81 82 84 86 98 99 100 100 97 87 74 79 72 72 59 62 62 65 61 61 63 57 58 55 43 53 68 80 76 80 80 86 57 43 46 35 30 41 60 53
77 78 77 76 82 83 84 83 84 84 86 98 100 98 92 99 96 80 69 68 68 67 60 61 64 60 68 78 65 62 53 55 51 73 76 81 88 90 85 69 54 46 37 33 34 40 50
79 79 79 83 80 83 84 84 84 85 88 99 100 99 93 90 83 86 77 75 64 59 62 70 76 64 63 66 61 66 58 58 58 66 78 80 87 91 85 64 62 54 37 32 38 41 43
79 80 80 82 83 84 85 85 85 87 91 98 96 94 88 87 91 97 84 72 69 63 62 51 64 67 71 61 54 53 59 59 68 80 82 89 91 92 78 77 66 71 52 39 32 30 43
82 81 83 86 86 86 86 86 86 86 91 96 96 95 98 98 89 83 72 73 70 64 68 59 56 66 57 51 66 74 83 81 84 90 79 92 92 96 98 84 91 65 44 40 36 31 36
86 84 86 88 88 88 89 89 89 89 90 97 99 96 94 96 92 78 77 73 65 64 67 60 55 52 53 63 72 74 83 87 87 88 93 81 92 98 95 88 68 52 50 46 48 41 32
86 88 88 90 90 86 87 91 90 90 90 97 97 97 98 97 95 76 78 71 92 79 76 69 59 58 63 73 80 87 83 70 90 87 86 90 84 91 99 95 87 51 43 30 45 62 40
83 84 83 83 84 84 84 81 81 86 91 95 98 90 97 100 91 79 88 83 64 76 82 72 66 72 64 92 96 86 88 61 66 96 97 98 100 97 98 97 87 64 74 68 90 74 66
84 84 84 84 84 84 85 84 83 84 85 96 99 93 96 100 93 86 79 79 65 65 81 76 77 84 91 91 91 91 96 80 71 69 88 95 98 99 98 99 91 70 68 91 80 71 71
88 91 90 89 91 89 86 87 86 84 82 85 99 95 90 97 96 81 69 74 82 61 62 71 66 78 82 87 93 87 94 96 84 84 65 80 67 86 83 77 62 65 69 72 75 81 61

GFSGBSN_sfc_rhum_066.txt.gz
RH
68 69 70 71 72 72 73 75 77 82 83 82 80 77 77 75 75 78 82 83 83 80 79 75 74 77 87 73 48 42 68 73 59 28 23 27 29 27 26 23 23 25 23 24 23 28 30
67 66 67 68 70 71 70 70 73 81 84 85 85 83 79 77 75 75 82 85 85 86 82 77 75 77 92 78 28 40 42 57 37 29 27 25 25 26 27 26 27 28 27 30 28 25 56
63 64 66 70 70 71 71 75 75 79 82 83 84 85 86 81 77 80 82 83 85 84 83 79 76 75 90 64 46 49 48 41 43 31 29 30 28 32 32 33 27 32 33 30 26 28 43
66 64 61 62 74 76 76 76 75 75 78 79 78 84 88 88 87 86 85 82 81 80 80 78 76 82 86 48 60 57 58 48 41 37 36 32 29 31 32 31 31 35 36 38 26 33 39
63 66 68 67 67 75 78 77 78 76 77 82 84 85 87 88 88 86 86 84 75 79 80 81 79 80 86 49 57 51 48 39 31 37 37 25 31 35 37 39 41 42 42 37 30 29 49
64 61 66 71 70 68 70 75 78 80 82 84 85 85 85 87 88 88 87 73 74 80 77 71 72 72 52 23 30 41 54 43 35 41 42 44 44 42 45 43 43 43 45 55 41 34 38
66 65 66 64 63 65 66 69 76 81 84 85 85 86 86 85 86 88 81 78 71 70 75 79 74 69 46 46 40 41 40 40 38 45 35 45 51 52 42 39 34 35 39 43 37 29 36
66 65 63 61 61 64 64 66 76 81 84 85 86 86 86 87 87 88 83 86 73 69 93 63 69 67 53 52 65 37 34 43 42 47 43 42 49 38 34 35 36 38 41 42 34 28 34
70 66 59 62 64 60 63 69 77 81 84 85 87 87 87 87 88 81 93 83 58 58 96 70 60 59 44 41 50 41 35 40 40 45 45 41 41 31 33 39 37 41 41 42 31 37 37
70 70 66 70 63 63 69 72 75 79 84 85 88 89 89 88 85 82 92 63 59 67 93 61 63 52 34 50 61 31 24 29 42 42 43 45 33 35 36 34 33 39 36 34 36 44 48
71 71 70 72 65 69 75 77 78 80 83 83 87 88 88 85 89 92 64 67 60 80 39 18 41 31 40 34 30 37 28 37 39 39 43 47 42 39 41 35 32 33 34 38 40 47 50
71 69 70 69 69 74 76 77 82 84 84 86 88 88 89 94 94 90 86 76 88 82 75 32 33 43 50 45 38 39 40 32 32 39 44 38 39 36 33 29 32 34 41 44 51 52 66
72 70 71 71 70 70 72 75 83 84 82 85 86 88 90 82 90 86 84 90 95 92 39 29 35 42 44 42 41 36 41 39 40 42 47 39 40 37 33 39 39 39 44 65 68 70 69
71 72 71 69 69 70 71 75 82 84 85 87 86 88 90 87 85 84 90 98 94 59 58 39 34 32 41 37 35 30 37 45 36 38 42 48 52 38 35 35 39 44 46 71 66 71 60
66 65 69 69 69 69 70 74 81 82 84 86 88 95 98 96 87 89 95 99 72 60 50 52 42 38 37 31 43 39 42 39 30 36 40 49 44 28 30 30 29 47 53 40 53 73 77
65 68 69 70 72 70 72 74 80 82 85 86 99 96 90 94 81 93 96 77 70 53 53 58 53 43 50 45 45 50 55 46 46 39 38 48 53 37 32 30 35 38 36 52 65 66 71
66 68 68 70 71 74 71 74 80 82 84 86 99 98 86 85 90 98 97 82 61 47 50 62 67 60 57 53 46 47 50 57 57 59 43 43 50 48 38 44 42 43 44 51 50 65 67
70 69 69 69 69 71 72 75 78 82 84 90 98 100 96 86 100 97 93 70 60 53 56 59 63 65 59 55 51 43 48 62 51 62 62 69 65 65 43 30 31 37 44 47 66 59 77
70 70 68 69 72 75 76 76 80 82 82 95 98 97 98 82 98 96 78 75 60 68 64 62 67 69 57 56 54 53 53 54 64 69 71 65 79 90 60 47 40 43 38 36 51 63 62
72 72 70 70 72 77 79 81 81 80 81 96 100 100 100 99 84 76 85 79 72 62 67 67 70 66 67 68 61 64 60 51 54 63 81 74 76 92 95 95 79 81 60 46 39 55 54
74 75 76 78 78 78 78 78 79 79 81 96 100 99 96 99 97 81 69 67 74 74 60 64 70 72 74 79 73 68 56 52 47 55 78 73 83 88 85 74 72 76 69 63 58 41 50
74 76 78 78 78 78 77 76 81 82 82 99 100 100 98 98 75 96 85 90 69 64 66 74 79 69 68 71 64 62 63 62 60 51 82 85 83 94 93 67 61 68 54 58 56 46 44
79 79 79 79 78 78 78 80 82 82 84 99 98 95 99 97 92 98 87 77 79 60 60 53 67 69 76 68 64 61 57 58 62 66 73 90 92 98 82 75 63 68 70 55 50 53 50
82 82 82 82 83 80 80 81 82 83 85 96 97 97 99 98 96 88 75 70 68 66 67 61 56 68 61 59 62 68 73 67 65 63 68 83 91 96 98 91 88 44 55 44 54 43 36
83 84 87 88 88 85 82 83 83 84 85 97 96 95 98 97 96 84 81 89 68 61 69 62 58 51 56 60 78 77 80 88 89 88 88 85 92 97 97 95 69 53 39 45 47 41 36
88 85 79 81 88 84 84 87 87 86 86 95 96 93 98 98 96 90 87 78 92 87 75 69 55 57 62 78 83 94 92 71 82 83 90 92 86 89 97 98 91 56 61 68 63 70 73
85 84 79 77 79 88 87 88 90 90 88 95 97 93 98 100 86 76 96 94 78 85 86 71 68 72 68 94 89 91 92 64 76 80 97 98 100 95 95 97 86 64 67 72 91 74 73
84 83 83 81 79 78 82 85 88 91 91 95 95 93 97 99 96 85 78 89 84 74 86 79 83 90 94 98 88 87 98 82 74 79 90 90 97 94 99 98 94 65 65 66 71 69 59
87 92 85 86 86 82 82 83 82 83 89 95 99 95 92 98 97 87 83 77 75 61 65 67 70 81 83 93 94 87 95 96 83 90 74 84 80 86 85 84 64 70 57 58 63 59 57

GFSGBSN_sfc_rhum_069.txt.gz
RH
66 66 67 68 68 69 68 69 73 79 80 82 81 79 80 78 76 75 81 83 82 78 79 78 78 76 80 45 26 37 59 72 60 32 21 22 26 26 24 20 20 22 18 17 16 19 23
63 63 64 66 66 61 61 69 72 79 81 82 84 84 80 78 80 79 82 83 83 80 76 75 77 76 87 33 18 38 41 40 33 25 22 21 19 21 22 19 19 20 19 20 22 21 24
60 61 64 66 67 67 69 73 74 75 77 79 81 82 84 80 79 82 82 85 85 83 80 72 74 75 77 37 28 40 43 33 35 26 25 22 19 22 24 24 23 23 26 22 20 20 25
67 63 66 68 71 71 72 74 75 74 74 77 77 84 86 87 87 86 86 87 85 81 76 76 74 72 75 42 48 53 46 40 36 28 32 27 24 24 24 23 24 26 28 26 18 26 42
70 70 63 68 72 74 72 73 75 74 74 79 82 86 87 88 88 88 88 87 82 75 79 78 81 78 57 44 52 41 41 33 34 33 30 23 27 29 27 26 27 34 28 29 22 21 41
63 64 67 64 66 67 66 68 73 76 80 83 84 85 86 88 89 89 89 83 74 77 75 71 67 72 43 19 29 39 47 40 30 37 34 33 35 36 34 28 25 25 34 31 25 23 27
67 64 69 63 65 64 64 66 70 74 80 82 82 83 86 87 87 89 86 74 65 67 67 70 61 60 49 45 42 40 44 38 29 33 35 45 38 48 37 31 25 27 30 27 26 24 23
69 72 67 62 63 65 62 63 68 77 78 79 85 86 87 88 88 86 77 77 70 73 92 64 64 58 50 50 57 41 33 30 37 39 34 42 44 38 34 32 30 30 32 30 26 26 27
68 68 69 67 57 61 64 61 69 77 81 82 85 86 88 89 89 76 85 78 57 66 93 66 56 60 54 46 49 37 32 38 36 40 38 29 30 34 36 35 35 34 33 31 28 27 25
68 69 70 66 62 67 60 61 72 75 77 83 85 85 89 88 80 78 75 67 62 72 90 56 62 56 42 42 52 30 22 27 40 38 41 32 23 35 34 34 32 38 30 28 31 30 26
69 69 73 69 65 70 69 67 70 75 77 82 85 87 88 85 84 84 63 71 64 83 44 21 41 29 41 36 28 37 26 30 23 38 39 40 40 37 37 33 30 29 31 32 31 33 35
67 68 69 67 69 72 71 72 73 74 78 83 84 86 86 90 90 81 81 78 85 78 60 34 31 42 50 45 37 37 36 30 24 32 40 34 34 32 27 29 28 28 30 35 42 42 50
66 68 67 70 70 69 70 69 73 74 77 81 85 84 87 80 82 79 80 84 89 81 40 36 38 35 33 43 42 37 44 39 33 37 54 40 34 32 31 33 32 30 36 45 55 58 50
66 67 68 74 72 65 68 70 74 78 80 82 85 86 88 86 77 80 85 90 88 54 59 41 39 39 39 33 35 35 42 44 34 36 33 44 44 36 34 34 37 38 36 48 47 57 45
65 65 69 68 69 68 68 69 71 76 80 83 85 97 96 96 88 83 89 97 62 54 50 56 45 37 40 35 39 36 36 39 32 34 40 51 36 26 31 30 29 43 45 35 47 54 56
64 64 68 69 72 75 71 70 70 71 76 83 99 92 86 93 85 95 98 76 67 54 53 56 56 47 51 43 39 44 52 53 60 40 37 42 48 34 28 28 31 34 34 49 53 52 51
58 70 64 67 71 70 68 70 68 70 75 81 96 98 86 88 92 98 96 79 55 41 42 61 64 63 58 54 43 35 53 50 55 55 40 38 45 46 35 35 36 38 39 43 41 50 47
66 62 69 72 70 68 68 68 68 70 79 85 95 99 96 92 100 100 96 70 56 49 51 55 60 62 58 52 48 45 52 53 39 60 59 62 59 53 37 30 30 30 36 39 52 47 58
67 66 67 72 70 71 69 69 70 76 76 97 99 97 98 87 98 96 98 88 58 62 55 57 65 62 56 53 51 46 54 46 46 45 65 59 73 74 54 43 50 56 49 50 48 49 48
67 68 69 69 70 68 66 70 72 77 75 95 100 99 97 99 94 73 91 86 77 60 59 64 66 61 61 62 57 59 55 47 52 42 67 75 63 85 88 88 76 75 64 57 54 66 50
73 72 72 71 70 67 67 70 73 75 76 94 100 99 97 98 93 92 78 76 75 66 57 61 68 64 66 69 64 59 52 50 44 51 69 69 69 62 59 60 72 62 60 49 44 50 64
69 70 74 74 73 71 72 75 77 77 79 95 100 99 98 99 88 97 83 97 74 64 65 68 71 66 66 67 60 54 55 49 52 53 61 60 77 83 85 68 64 67 55 49 43 48 48
79 75 74 74 75 76 76 79 79 78 79 96 93 93 98 78 85 99 95 78 83 64 62 55 59 64 69 65 58 56 56 56 54 59 61 65 82 86 77 71 64 68 61 47 44 42 46
89 83 79 78 79 77 79 80 80 79 80 93 95 96 98 93 97 89 95 76 74 65 67 58 54 66 59 52 60 61 67 65 64 64 60 64 72 89 85 78 78 36 40 42 48 42 39
82 86 81 81 81 81 81 84 85 82 80 96 93 99 99 94 78 92 92 91 71 65 67 65 56 50 57 62 96 85 71 78 77 68 68 61 72 90 90 81 56 40 32 38 45 39 56
82 82 82 84 85 87 90 90 89 84 80 93 94 93 99 98 93 69 97 88 84 91 87 72 58 74 62 96 98 86 76 64 66 74 78 77 72 84 98 85 83 46 47 58 46 54 57
86 85 86 85 85 84 80 88 90 85 82 92 96 90 98 100 89 76 82 89 76 80 90 80 80 95 77 98 91 87 75 60 69 71 87 90 94 91 95 86 69 52 48 66 61 54 54
86 86 84 84 85 84 80 86 90 87 84 91 96 93 97 100 94 79 69 79 95 88 91 83 95 97 99 97 90 84 84 70 61 64 82 73 90 88 82 90 83 50 57 55 44 50 52
89 88 87 85 86 83 81 82 88 91 90 90 98 94 92 98 97 87 78 72 67 68 72 80 74 80 81 85 84 75 87 87 69 73 66 69 67 74 72 66 56 59 63 51 55 59 56

GFSGBSN_sfc_rhum_075.txt.gz
RH
60 63 62 63 65 66 59 66 68 70 72 73 74 75 75 74 76 78 83 85 83 80 78 77 75 73 52 27 21 11 54 60 30 27 21 16 16 15 15 10 9 11 9 8 7 7 7
68 67 65 64 63 63 61 61 65 70 74 76 77 78 77 78 78 79 83 86 86 85 81 79 76 74 47 35 12 7 9 11 17 20 16 14 14 12 12 11 11 10 9 9 8 8 8
64 65 71 68 66 66 68 70 67 68 72 75 76 80 81 80 80 80 83 86 86 86 83 78 77 57 40 24 8 8 12 8 8 16 20 14 13 13 13 15 11 11 12 10 10 9 8
68 66 64 67 71 70 69 69 69 66 66 71 72 79 85 86 85 86 87 87 86 85 82 78 78 49 38 12 10 12 12 12 9 8 14 14 14 16 17 14 14 15 15 17 11 9 8
67 65 62 66 68 69 68 68 68 68 69 70 72 80 85 86 86 88 88 87 84 82 73 75 57 44 28 27 17 12 12 14 10 8 13 12 15 19 17 20 20 18 18 16 14 9 10
65 66 68 68 69 69 65 66 70 68 69 69 76 77 82 85 86 88 88 88 64 71 64 38 33 51 30 12 13 17 24 18 12 11 12 13 15 18 17 18 26 20 17 16 15 10 10
63 66 65 67 66 71 66 62 67 70 70 68 75 76 80 85 85 87 72 31 29 44 36 30 24 30 17 10 15 16 21 28 24 22 18 12 20 20 17 17 17 17 16 15 12 10 12
66 64 63 64 63 65 68 62 68 70 68 73 76 77 79 84 84 86 64 40 46 50 63 34 28 25 20 16 20 17 16 32 32 40 41 23 27 18 16 17 19 20 20 18 14 11 15
64 68 68 66 65 62 67 64 65 67 65 67 75 78 80 84 83 70 43 42 38 43 54 30 22 24 24 24 26 21 14 22 28 37 47 41 22 20 20 20 22 22 24 21 18 13 13
68 67 66 66 69 68 68 67 61 65 66 72 76 80 85 84 79 42 41 36 37 48 63 28 25 24 28 27 30 18 15 20 24 31 45 54 30 19 24 24 21 28 18 18 18 19 21
64 64 67 72 69 68 70 70 65 63 68 70 75 78 82 80 53 44 39 38 41 56 32 14 20 20 22 28 22 24 17 19 31 26 32 53 40 28 23 23 20 25 19 18 18 22 23
65 66 63 64 67 70 67 70 71 67 68 69 73 76 80 52 60 44 40 46 49 74 35 16 20 22 28 24 25 24 32 19 22 26 28 30 26 27 21 17 20 19 19 20 19 23 31
67 70 74 79 78 72 70 70 71 70 66 68 73 76 70 47 60 44 50 48 48 36 14 15 20 20 20 24 25 25 33 33 25 36 38 35 37 23 20 24 17 19 24 36 39 38 37
62 62 65 64 63 65 65 68 75 73 69 70 74 80 57 40 39 53 57 52 50 18 19 18 22 19 21 22 26 27 27 30 25 26 23 28 42 31 21 25 26 24 25 34 47 48 33
63 60 64 62 62 63 68 66 69 71 74 72 75 48 49 48 49 63 70 77 24 22 15 24 23 19 17 22 27 27 29 32 24 27 32 29 33 22 23 22 26 34 30 20 30 36 43
63 64 66 66 69 65 74 71 70 72 70 73 45 56 53 47 59 77 87 59 30 22 29 27 23 22 25 26 28 27 36 37 42 35 22 28 32 20 27 24 23 27 25 34 30 52 52
64 63 63 66 64 67 63 72 74 70 71 69 50 70 37 44 76 93 89 53 34 23 29 34 28 32 26 33 29 28 66 44 28 32 28 23 34 35 26 40 31 28 31 33 29 31 46
66 65 63 66 67 70 66 65 74 71 70 70 50 90 42 55 94 88 84 46 40 28 23 30 35 38 38 32 35 31 30 38 28 30 44 25 45 42 34 21 24 24 25 31 44 44 36
67 67 67 69 70 68 68 69 73 75 75 41 72 54 48 76 93 82 57 43 38 34 28 27 34 28 29 36 40 31 28 30 28 29 43 38 39 46 46 35 24 27 26 26 30 32 50
65 66 65 66 72 70 68 68 74 72 75 66 86 97 55 84 80 71 54 51 45 34 33 26 26 27 30 38 33 37 33 26 28 30 60 50 49 42 40 43 33 32 30 32 32 45 38
70 71 72 72 68 66 67 67 75 73 76 69 88 86 52 89 72 66 73 81 45 44 35 32 37 30 37 41 34 34 30 30 28 43 32 43 73 53 44 44 36 36 34 30 31 32 41
74 78 78 76 75 72 70 72 74 77 76 92 99 75 46 54 54 60 58 71 62 32 31 38 39 31 30 38 38 38 36 36 38 30 35 34 42 39 53 33 32 37 33 31 28 28 27
79 82 81 86 85 81 75 74 75 79 78 88 96 57 67 56 45 62 66 55 50 50 60 38 33 33 43 40 36 38 40 46 41 41 43 46 44 37 49 29 36 51 35 30 29 27 27
79 78 80 87 88 85 84 76 75 78 78 61 62 54 84 77 53 41 39 50 44 54 67 52 40 42 37 40 39 40 41 40 42 41 39 48 46 44 55 53 62 27 20 21 24 23 20
82 80 80 83 82 85 86 89 75 78 78 85 57 90 78 86 40 37 40 41 49 52 59 84 74 37 48 55 67 59 62 60 54 41 41 39 46 61 66 49 32 23 19 21 24 21 22
84 82 81 84 84 85 83 84 82 77 79 86 81 70 90 93 59 32 34 34 50 59 87 56 72 58 58 70 92 74 59 48 48 41 36 40 44 57 58 60 55 26 27 27 23 32 26
84 84 83 85 85 85 85 89 84 77 76 83 74 76 91 100 49 57 42 38 32 54 82 66 88 87 73 98 92 70 56 36 52 56 64 67 76 74 66 62 39 24 22 27 43 50 34
85 87 89 88 88 86 86 87 90 80 79 87 93 74 88 97 54 44 45 61 55 48 69 92 96 98 100 100 79 61 61 50 39 39 56 63 77 79 69 85 68 24 26 41 49 41 38
87 87 88 89 92 88 87 87 85 88 87 89 98 92 76 92 57 45 42 40 46 62 86 76 72 83 70 82 59 55 64 59 43 50 37 62 47 52 41 41 33 32 40 41 42 43 42

GFSGBSN_sfc_rhum_078.txt.gz
RH
67 66 66 66 63 62 61 62 65 68 69 70 71 72 74 73 74 77 82 84 85 80 80 79 78 77 55 29 26 11 68 65 32 25 21 20 20 17 18 14 12 11 9 8 8 8 8
64 66 67 72 67 66 64 67 69 70 73 73 75 74 75 76 77 77 80 84 86 85 81 79 77 77 54 40 12 9 11 9 10 20 23 20 17 14 15 14 13 10 9 8 8 9 9
68 68 68 68 71 70 65 68 69 70 69 68 72 76 76 77 77 80 81 84 85 85 82 78 78 61 52 29 10 12 11 10 8 9 19 16 14 15 15 16 12 12 14 11 10 9 10
65 68 67 67 70 71 70 68 68 68 68 69 69 75 82 84 83 84 84 84 85 85 81 80 76 55 49 14 12 12 10 10 11 10 10 15 17 19 18 15 15 15 16 19 12 10 10
65 64 67 70 70 73 72 69 67 67 67 68 70 78 82 84 84 85 84 84 84 82 80 74 68 56 36 24 16 12 11 12 12 13 11 7 15 22 21 24 25 22 24 21 16 11 11
63 64 66 67 68 69 71 72 71 71 70 70 71 75 79 83 85 84 83 83 73 72 57 46 39 47 36 17 11 13 14 22 15 14 12 12 16 23 24 25 33 26 23 20 19 12 11
62 64 66 64 64 64 64 69 69 72 72 69 71 74 76 82 83 82 73 55 35 54 50 39 30 33 19 13 10 12 12 24 18 16 20 15 19 19 18 24 22 21 22 22 16 12 13
66 64 65 68 66 66 64 62 73 71 71 66 67 71 76 81 82 81 66 44 41 45 58 33 26 23 18 16 19 14 12 25 30 30 22 22 24 17 16 14 16 18 21 23 19 14 13
70 69 69 66 65 64 66 68 71 71 69 67 69 74 77 84 82 69 51 39 32 39 59 31 21 21 18 19 22 19 13 14 28 32 30 39 31 24 23 24 20 21 26 26 23 18 15
66 66 65 64 66 68 71 71 70 70 69 71 71 74 82 86 72 50 45 33 33 50 67 32 24 20 22 23 27 16 15 15 16 28 25 34 30 32 36 49 45 41 25 24 22 25 31
65 69 70 69 67 68 68 68 68 72 68 69 72 71 79 78 62 51 47 36 39 59 67 23 18 18 19 25 23 20 17 18 19 23 22 34 38 41 49 59 45 51 33 33 36 26 28
62 64 67 68 71 73 73 72 70 68 70 70 70 70 76 55 58 51 48 46 58 90 62 16 20 24 25 23 22 19 24 16 15 20 24 27 24 36 52 51 37 38 36 40 36 29 38
68 73 67 68 75 74 73 71 71 75 71 69 71 72 69 47 61 54 59 62 82 55 12 14 17 18 17 16 17 20 29 32 25 36 38 29 29 35 46 58 48 39 39 75 66 49 47
66 68 66 62 64 64 63 65 70 70 77 69 74 76 61 42 43 54 62 75 66 17 16 17 17 16 18 14 18 22 27 32 26 22 22 28 38 26 31 42 48 41 38 81 70 60 43
65 66 63 64 69 66 67 67 73 70 74 73 71 57 54 52 56 62 90 80 30 26 14 14 18 21 13 14 20 24 26 26 30 24 31 32 27 18 26 27 34 57 53 45 66 61 84
66 67 65 65 65 69 64 67 69 75 72 73 56 54 53 52 63 76 97 77 36 20 21 24 28 15 18 15 23 22 22 35 49 32 25 35 41 24 26 27 36 46 34 51 60 74 84
65 66 66 65 65 66 68 66 64 70 76 61 62 62 43 51 75 95 94 62 39 25 23 30 29 25 21 22 23 27 38 48 39 30 32 35 36 36 26 36 43 43 46 58 58 59 68
66 67 68 68 70 65 71 67 67 68 71 69 64 84 60 58 96 95 96 51 43 28 21 23 26 31 34 30 30 29 29 39 27 29 43 46 42 46 36 30 28 34 39 40 72 80 54
68 67 68 67 67 71 70 70 72 71 71 65 77 50 47 74 91 86 60 53 46 37 30 28 26 26 26 30 34 27 30 30 28 28 41 37 44 56 51 53 29 37 44 47 38 59 93
62 64 69 70 70 68 68 69 73 74 70 75 89 91 50 87 73 74 72 54 49 31 31 27 25 23 26 29 26 34 31 27 26 26 57 46 48 57 78 86 66 57 44 44 45 57 62
68 68 70 71 74 75 72 70 70 71 71 90 86 84 60 85 74 66 58 55 54 38 28 27 31 29 29 36 32 32 28 26 24 42 32 40 61 56 43 54 56 78 65 54 72 67 65
67 71 74 73 76 78 76 72 73 72 72 97 99 68 42 57 56 59 56 61 50 44 40 44 40 30 31 35 34 42 35 38 46 28 34 31 53 44 45 36 60 43 35 32 38 46 32
67 71 77 79 79 83 86 80 77 75 78 98 70 52 83 61 44 57 67 50 45 44 43 64 52 50 37 29 42 54 49 53 56 51 44 48 46 46 50 34 40 55 39 33 30 29 30
69 73 76 78 77 82 88 86 82 77 78 73 53 51 80 81 53 49 35 37 46 35 48 40 42 68 51 53 40 47 46 41 57 50 37 46 46 49 65 51 70 35 22 22 27 26 24
76 76 77 77 81 81 85 88 86 80 77 75 57 82 82 88 47 39 38 40 52 48 53 49 41 49 81 74 56 54 55 53 46 40 41 40 48 67 67 57 36 25 20 20 25 24 20
81 78 78 83 84 83 85 86 90 88 78 72 64 66 86 99 61 33 34 33 40 45 49 51 44 67 89 69 75 70 63 48 50 43 37 39 49 64 68 66 62 32 18 24 22 34 28
84 82 82 83 85 84 86 85 88 89 87 78 67 75 90 100 58 49 50 44 34 41 56 72 91 89 75 82 81 72 66 42 59 54 58 62 70 77 76 73 45 23 35 29 48 57 37
84 85 86 86 85 90 90 86 83 85 88 87 79 71 82 96 62 48 42 53 56 57 77 81 92 95 100 97 82 64 72 54 51 44 64 58 77 80 72 71 73 28 32 56 65 59 47
84 86 86 87 87 88 92 88 87 88 87 84 88 72 75 89 59 51 46 42 40 49 85 92 90 87 64 72 60 65 78 76 51 58 49 85 49 58 48 50 35 37 54 46 44 51 50

GFSGBSN_sfc_rhum_081.txt.gz
RH
65 66 67 70 72 69 66 66 70 76 77 76 74 70 71 72 72 76 82 82 82 79 78 78 77 77 83 51 43 32 71 71 57 42 33 28 24 26 28 23 22 21 16 13 12 11 12
66 69 69 70 68 71 70 66 68 73 74 74 76 75 72 72 72 75 81 82 82 82 81 78 77 77 89 67 17 15 21 38 29 31 29 27 24 23 25 22 23 19 18 16 12 12 11
68 66 68 70 69 69 70 71 70 69 70 71 73 76 75 73 76 78 80 82 82 82 81 78 78 74 78 57 20 20 20 17 14 16 15 26 25 27 24 25 19 19 21 18 18 16 16
66 66 66 68 72 75 76 76 72 69 68 68 68 73 78 82 83 85 84 82 81 80 80 78 80 79 84 29 28 24 22 17 14 12 16 14 16 27 33 27 25 27 27 28 18 16 14
66 64 65 67 70 73 75 75 76 72 68 70 71 75 80 82 84 85 84 82 80 78 78 82 89 88 66 32 32 24 22 17 13 15 17 12 13 24 30 40 42 38 41 33 25 18 16
67 65 63 66 67 66 67 70 72 76 74 76 73 72 77 81 83 84 83 80 71 75 71 51 56 83 56 29 18 16 17 25 31 20 20 22 19 29 38 45 53 43 37 34 30 21 18
61 69 65 64 66 68 66 66 71 73 76 73 71 69 75 81 83 83 82 71 53 73 63 66 62 50 30 25 16 16 14 27 30 25 29 23 27 34 31 32 30 30 32 31 26 20 21
68 71 71 69 68 66 65 63 71 77 74 72 74 72 75 79 84 83 81 86 48 53 74 47 43 40 34 26 26 19 15 23 40 38 27 30 29 23 20 18 19 25 29 28 23 19 19
66 67 68 67 66 65 66 66 71 72 74 73 75 72 74 82 81 82 74 65 40 47 84 53 34 36 31 26 29 28 21 21 27 44 42 41 34 26 32 25 26 32 32 30 32 20 21
65 64 66 68 68 68 68 71 71 68 72 75 75 77 79 83 81 71 64 48 45 52 90 47 33 22 22 26 33 20 19 19 21 28 40 41 32 36 43 41 34 41 32 41 51 72 77
68 63 65 65 67 69 73 72 71 72 70 71 76 76 79 76 85 75 49 49 53 66 99 34 24 17 20 30 26 23 23 24 28 24 29 40 46 48 50 44 37 46 49 55 72 88 72
61 63 68 70 68 70 72 74 73 71 71 72 76 73 76 73 70 64 57 59 74 97 84 24 26 26 29 29 28 29 28 26 23 26 23 29 30 39 44 43 49 59 74 64 75 88 98
63 65 67 69 68 64 65 68 68 69 69 73 75 72 71 63 74 51 53 72 93 94 27 19 30 28 31 25 28 28 36 32 36 44 45 34 34 44 52 71 63 74 92 99 99 98 92
62 64 65 66 65 65 66 67 69 70 76 71 76 80 75 62 58 54 72 94 96 41 32 19 20 20 22 18 20 26 34 46 34 35 34 46 52 36 47 56 52 69 87 96 88 93 76
63 64 65 67 65 65 66 68 69 70 74 74 71 79 78 67 62 66 95 98 63 38 23 28 21 26 26 18 21 28 36 37 38 34 38 45 39 24 22 36 43 55 72 66 84 96 97
63 66 65 66 67 66 66 67 69 69 70 77 88 88 73 55 65 84 98 85 51 31 34 28 34 28 28 22 29 30 34 45 56 48 34 45 59 31 26 31 37 41 46 80 97 96 96
66 67 68 67 68 68 71 66 70 72 67 74 83 98 60 53 86 96 96 81 52 39 33 32 34 36 39 40 30 33 46 52 43 39 40 50 59 48 36 40 45 54 60 92 93 82 98
66 68 67 68 68 68 68 69 72 67 74 79 98 100 73 63 97 95 94 70 56 44 39 38 36 30 36 39 42 40 36 42 32 34 50 48 60 61 43 29 30 44 64 70 99 94 76
66 69 68 65 66 69 69 69 68 73 74 97 100 86 64 93 98 99 86 63 58 56 50 39 36 33 31 37 49 40 40 40 36 40 49 42 58 77 60 56 46 55 54 62 84 78 99
64 64 64 70 70 72 73 74 70 73 70 96 100 99 78 98 98 92 74 65 61 43 43 41 36 35 37 42 37 43 39 34 38 40 58 49 55 70 87 96 91 97 68 64 82 99 76
68 69 69 70 69 72 73 74 76 71 76 95 100 94 92 98 92 87 75 89 88 76 42 37 40 38 41 48 45 46 41 38 37 53 46 50 68 62 64 49 49 86 66 92 90 91 94
65 68 71 69 69 72 74 78 77 77 77 98 100 96 71 78 69 88 71 76 62 52 45 64 60 50 47 47 45 49 60 53 56 57 61 51 61 58 61 44 38 48 54 66 73 86 82
65 68 71 70 72 71 74 86 87 79 77 99 95 82 91 84 71 80 80 77 61 54 51 40 62 76 69 74 87 67 65 65 66 72 71 66 71 63 70 47 56 73 52 41 50 69 70
64 67 69 72 73 72 76 81 90 84 78 92 92 77 93 91 81 66 54 46 53 57 64 48 66 87 67 72 70 62 60 58 70 69 62 73 65 67 84 68 81 53 35 32 39 35 30
70 70 72 74 76 78 83 84 90 88 81 86 83 93 93 97 67 59 57 51 44 55 64 61 55 62 80 83 88 90 76 70 64 65 66 63 68 84 87 82 57 37 29 30 36 33 32
70 72 73 76 82 84 85 85 85 88 82 84 80 82 95 99 87 52 56 52 72 70 65 56 77 80 84 89 97 93 83 68 62 53 46 54 65 81 87 88 83 49 36 35 33 59 46
73 75 78 79 84 85 85 86 86 85 88 87 86 77 95 99 73 70 85 81 70 78 85 70 95 88 90 100 97 92 86 51 74 76 80 70 79 83 84 91 78 40 47 43 58 81 59
79 82 83 84 84 86 87 85 87 87 87 95 89 80 85 98 75 66 63 73 73 79 100 94 92 97 99 97 94 87 91 76 73 77 96 75 83 91 91 92 87 45 48 66 85 67 58
83 83 83 84 85 86 86 88 88 88 85 92 99 76 85 91 82 70 67 62 65 65 74 95 100 99 93 92 91 91 96 92 73 97 74 99 68 83 69 72 76 81 80 78 73 78 68

GFSGBSN_sfc_rhum_084.txt.gz
RH
66 68 69 70 70 69 70 71 70 76 76 76 74 70 69 68 69 73 79 82 82 75 74 73 73 75 75 78 63 22 72 73 69 55 40 32 22 23 30 28 31 33 28 23 20 17 16
68 68 67 68 71 69 68 70 72 75 76 76 77 76 70 69 70 74 80 81 81 81 76 73 74 76 85 88 23 19 21 32 51 41 35 34 30 24 31 30 29 25 24 22 19 18 16
66 66 66 69 71 72 74 75 75 74 74 75 74 75 74 71 73 75 80 82 81 81 78 73 74 68 76 66 29 26 28 25 25 30 31 30 29 33 35 35 27 25 29 25 22 19 21
67 66 64 66 68 70 70 70 70 70 74 74 69 75 79 79 80 80 81 82 81 80 77 74 75 76 81 42 46 44 36 27 20 16 16 18 18 30 35 33 32 34 34 37 25 24 20
67 69 66 64 67 69 72 72 72 69 68 75 71 78 79 78 78 82 83 81 80 77 76 74 86 86 76 45 48 37 31 26 17 15 20 13 23 18 32 43 49 46 47 40 33 25 24
61 62 69 67 65 66 69 69 72 73 74 74 74 74 76 77 80 82 82 80 71 78 73 63 63 90 60 33 25 20 25 23 32 33 23 26 26 23 41 48 58 52 46 48 42 30 25
66 67 69 71 70 69 67 66 68 73 74 75 73 70 76 78 79 79 77 85 62 64 64 74 69 67 46 36 24 20 16 20 34 30 30 31 31 32 29 38 39 39 40 42 37 26 31
63 66 68 68 67 66 65 64 66 72 71 71 75 72 72 77 80 79 86 90 64 61 75 51 52 51 48 45 53 38 21 24 45 44 34 34 33 25 26 27 30 33 36 34 28 26 44
67 64 63 64 64 65 67 68 70 72 72 71 73 72 72 79 81 86 69 64 48 59 85 62 46 47 42 32 47 40 24 24 31 51 44 39 32 25 25 26 26 27 34 37 37 46 48
67 70 66 65 66 66 68 69 69 70 70 71 75 77 79 81 75 82 60 50 54 61 85 58 49 37 33 30 36 22 23 23 25 30 48 51 34 35 43 44 41 49 35 41 50 78 82
57 60 64 65 67 70 69 71 72 73 71 71 73 74 79 74 96 96 63 54 50 76 89 36 34 24 26 32 28 26 22 27 27 26 37 45 50 49 50 46 40 53 65 67 69 85 80
61 63 64 66 68 71 68 66 67 69 71 69 71 74 78 81 90 82 56 53 80 92 83 40 30 27 34 33 30 30 28 24 25 31 29 31 31 44 44 52 50 64 73 76 78 85 89
65 62 63 65 66 68 66 65 67 68 69 70 74 72 78 72 93 61 61 77 93 83 34 33 34 28 37 36 33 35 33 32 36 44 44 37 32 50 56 75 72 77 85 94 99 98 84
63 61 64 65 65 66 67 66 68 69 70 71 73 76 84 74 80 65 72 97 87 47 39 25 27 35 40 30 33 37 40 41 36 37 44 51 48 56 54 54 71 85 89 92 93 94 84
60 61 62 65 65 66 66 67 67 68 71 72 74 95 95 74 75 75 98 97 71 47 41 41 32 28 30 25 24 36 44 45 40 34 39 44 40 31 49 48 49 78 94 70 99 99 98
58 61 65 67 68 67 68 68 70 67 69 73 97 97 92 65 76 91 100 80 60 41 42 40 44 37 45 42 38 31 48 54 60 43 38 52 64 44 34 41 49 54 68 99 99 96 97
61 65 65 69 67 68 69 69 70 67 69 75 97 97 73 73 88 99 98 84 56 42 44 52 47 38 36 41 39 41 61 56 41 38 48 62 65 65 48 44 53 53 86 95 97 94 98
61 64 70 68 69 67 68 69 70 73 73 81 96 98 85 78 97 98 99 72 60 51 46 51 46 41 39 42 47 44 48 45 32 37 55 51 61 81 58 36 36 42 58 79 99 97 92
62 64 65 64 64 68 71 71 73 72 73 95 100 95 78 90 98 94 83 68 55 56 55 52 53 46 41 47 49 48 49 47 38 46 48 48 80 83 71 60 69 76 61 65 76 85 95
60 68 62 64 66 71 72 76 76 75 73 95 99 99 88 97 98 99 96 81 71 50 52 45 46 46 44 48 44 49 45 38 40 47 62 51 60 75 92 80 90 92 82 83 95 99 89
65 61 64 65 68 68 71 72 73 78 73 96 99 96 90 98 99 98 96 96 90 76 60 54 52 48 51 56 49 50 46 50 44 61 54 54 66 68 65 62 54 60 68 87 94 94 98
64 63 66 64 67 71 70 71 75 81 76 97 99 97 90 88 76 89 89 82 68 59 59 56 74 67 72 74 85 94 70 64 61 59 68 68 75 67 66 50 47 56 46 76 91 86 90
59 66 66 64 66 68 72 72 76 85 82 98 93 92 93 82 79 81 91 65 67 71 62 54 52 78 87 80 81 72 76 72 69 72 73 74 84 83 79 58 56 73 58 56 74 72 82
68 68 62 67 70 73 75 77 80 87 88 86 82 91 96 95 85 64 58 54 56 57 81 63 65 81 68 71 69 71 68 65 71 72 68 75 82 92 94 71 78 48 32 32 50 49 63
69 63 65 69 72 74 77 80 82 84 88 92 94 95 93 99 82 70 64 58 60 58 62 61 57 68 75 79 86 82 80 73 68 72 76 74 78 85 87 81 58 34 29 43 39 61 56
63 62 65 70 74 77 80 82 82 84 88 91 80 93 95 99 86 62 80 72 82 84 81 61 89 86 84 95 98 97 91 73 68 61 64 72 77 82 92 90 89 54 39 36 41 85 61
67 66 69 72 76 80 81 82 84 84 83 94 87 87 94 98 87 76 85 87 83 90 97 90 94 93 86 98 98 97 88 61 75 77 77 92 92 89 92 92 80 52 64 50 70 88 68
68 68 71 74 78 82 84 84 86 86 84 94 95 78 86 97 75 72 72 83 82 93 97 93 92 95 96 99 97 89 93 77 79 71 77 85 93 93 92 94 84 77 70 76 84 72 69
68 71 77 81 83 83 84 85 87 87 87 88 100 82 83 94 85 74 70 66 64 64 82 92 100 100 99 99 96 97 98 96 87 92 81 98 94 90 76 74 88 83 87 75 79 85 80

GFSGBSN_sfc_rhum_087.txt.gz
RH
68 69 68 68 70 71 69 70 72 75 75 74 73 71 70 69 68 70 76 79 79 75 74 73 71 72 78 78 50 31 49 65 72 50 38 32 28 25 29 32 37 40 35 30 27 26 24
66 67 66 68 71 71 70 72 72 73 76 77 77 75 71 71 72 71 74 77 79 79 74 72 71 71 70 91 23 25 26 26 55 63 50 39 27 23 26 28 33 30 31 30 28 26 23
67 66 65 65 66 68 69 69 69 70 70 72 75 76 74 73 74 73 76 78 80 80 76 71 71 67 78 73 36 33 33 33 28 46 45 38 34 40 33 36 31 30 35 30 30 25 24
66 68 68 66 66 67 69 70 70 70 69 70 70 75 80 80 79 79 79 80 79 78 77 73 72 76 81 43 50 52 49 43 32 28 31 26 25 39 42 37 36 38 41 44 30 26 22
62 61 62 70 67 68 69 68 69 68 67 70 74 76 79 79 80 80 80 79 76 76 76 72 79 85 84 45 50 46 44 37 28 26 20 14 22 24 30 45 53 54 60 46 37 27 26
61 64 66 69 71 70 68 67 68 68 70 72 72 74 77 79 80 80 80 78 77 77 71 66 69 92 63 35 36 24 40 31 24 24 26 24 30 25 47 54 62 56 53 64 43 34 31
64 64 66 68 68 68 66 64 67 71 73 73 72 73 74 78 77 78 80 93 74 70 71 77 68 71 53 41 36 30 23 22 33 32 35 33 37 38 28 42 43 44 48 51 43 28 44
64 66 64 62 62 61 61 65 69 69 69 70 72 73 74 76 78 79 85 66 66 75 92 64 60 55 51 47 59 44 28 24 46 44 32 36 40 32 26 29 36 41 46 47 31 29 44
66 70 67 66 64 63 66 66 66 68 71 71 72 73 75 79 80 87 80 54 52 53 95 63 49 48 48 45 59 46 40 27 33 52 40 39 32 29 26 29 30 33 34 37 34 54 55
57 56 59 62 64 66 68 68 69 69 70 71 72 72 78 81 74 94 71 55 53 53 96 59 61 51 39 37 52 30 29 24 28 37 52 51 36 33 31 30 30 45 42 44 54 70 74
57 55 61 62 63 66 69 70 67 67 67 68 72 72 77 76 96 96 66 58 52 78 93 33 46 32 34 28 31 34 27 29 30 29 43 51 51 51 51 48 43 54 62 68 74 89 93
64 63 61 61 65 67 68 67 66 66 67 70 69 71 73 85 95 87 74 65 75 92 79 44 35 42 40 37 36 31 30 28 27 31 32 37 30 40 49 65 55 69 69 69 85 91 97
65 62 60 64 65 64 65 67 68 68 69 69 70 72 76 79 90 82 73 87 92 87 38 39 38 37 40 41 40 38 33 34 41 48 48 36 33 49 57 76 72 78 73 92 96 95 83
62 62 61 62 64 65 65 66 66 68 68 68 72 76 84 80 92 83 82 99 95 47 44 36 37 40 49 39 39 42 35 40 38 39 48 43 46 56 57 58 69 82 72 87 94 92 94
59 58 57 62 66 67 67 66 67 69 70 69 72 96 98 94 84 90 98 97 66 55 53 52 45 45 44 37 37 43 45 48 37 36 40 51 42 40 56 54 55 91 94 73 93 88 96
55 57 63 65 66 68 67 68 69 69 70 68 98 99 97 76 87 96 99 87 66 44 50 52 65 40 50 40 44 43 54 57 61 40 39 55 56 48 43 47 51 68 70 93 99 98 98
59 63 62 66 69 68 68 67 70 70 71 70 97 94 75 93 90 96 98 90 53 41 48 63 86 51 38 45 43 50 66 52 44 51 50 60 63 64 49 52 63 76 96 93 92 98 99
59 59 62 69 65 66 65 69 70 71 72 85 98 98 91 94 100 98 97 71 66 53 45 49 64 48 47 49 49 49 57 46 36 45 55 50 70 81 66 47 47 53 75 85 96 95 99
62 65 61 68 64 64 68 71 73 73 70 97 99 85 78 94 99 95 83 64 55 52 48 51 56 59 47 53 51 50 49 39 40 45 47 49 78 77 69 71 72 84 80 71 86 97 98
65 60 64 63 62 64 69 69 73 74 73 95 96 97 85 99 100 97 85 76 80 58 55 53 53 49 54 51 49 52 49 47 54 54 66 52 66 72 77 77 87 86 77 74 81 100 98
62 58 63 61 66 66 66 68 70 72 73 95 98 94 91 98 97 96 96 96 93 79 65 59 63 70 77 70 63 78 68 54 56 65 56 59 63 69 64 65 68 69 66 63 88 93 99
58 59 64 62 65 70 71 71 71 71 79 97 98 92 89 90 80 83 93 97 95 86 64 60 73 66 78 82 84 86 80 74 70 58 68 70 73 78 73 57 58 61 51 56 61 78 94
59 60 60 67 62 64 67 70 75 75 86 99 94 91 95 80 77 82 83 75 89 81 76 61 69 80 80 82 80 73 72 75 77 80 71 74 84 86 82 70 67 73 61 43 73 77 76
64 64 68 71 61 66 71 76 76 79 86 98 91 77 97 91 85 66 62 59 56 63 75 68 67 80 64 72 75 75 76 78 77 74 72 78 85 94 96 78 83 48 32 30 46 60 60
66 68 71 58 62 69 76 76 77 81 82 98 95 95 94 98 80 75 73 66 68 69 68 64 63 82 80 77 79 79 76 68 63 70 81 76 83 89 92 82 61 46 34 54 60 59 59
67 70 56 61 65 71 74 77 79 79 81 97 84 85 95 98 89 65 77 77 92 96 85 80 78 86 82 95 95 92 82 72 70 61 72 86 80 85 93 92 86 54 51 57 50 71 71
71 73 61 66 68 71 75 77 78 79 82 95 95 71 95 100 84 80 84 84 85 90 97 92 91 95 85 95 98 98 91 67 70 74 76 96 93 96 94 90 78 55 77 64 74 82 79
73 65 67 67 69 72 77 78 78 80 80 91 96 75 96 98 87 74 71 78 88 96 97 87 89 91 97 96 98 92 94 78 82 71 76 86 95 99 94 95 88 82 80 75 90 86 82
71 70 68 68 73 78 79 79 79 81 82 85 100 84 82 96 81 82 66 67 68 70 85 91 94 94 99 99 97 95 99 98 95 94 88 94 87 92 78 81 87 81 84 82 80 87 83

GFSGBSN_sfc_rhum_090.txt.gz
RH
68 67 67 68 70 71 69 69 69 70 71 71 72 73 75 72 70 71 75 77 72 70 70 71 71 69 76 85 58 24 46 38 71 62 45 34 30 33 37 37 43 49 41 34 29 27 28
68 66 65 65 65 66 66 67 69 69 70 70 70 71 72 74 73 72 74 77 78 76 71 71 70 70 76 94 30 25 34 33 48 63 50 34 31 28 30 28 40 38 37 32 30 31 31
63 66 67 65 66 66 67 70 70 70 68 67 68 70 75 76 74 73 75 78 78 76 76 73 73 71 76 75 39 34 36 38 34 46 55 44 34 33 30 32 30 27 34 35 36 32 31
62 61 62 70 68 68 69 69 69 68 68 68 70 72 78 79 79 80 80 79 77 75 79 79 74 72 88 46 44 50 47 50 43 39 40 39 38 43 46 40 39 46 44 52 36 32 29
59 60 62 66 72 70 68 67 66 67 69 70 72 72 75 80 81 81 80 79 76 76 77 74 77 81 85 50 52 47 49 43 34 32 28 20 25 29 35 50 52 55 64 50 41 29 30
63 64 66 67 68 68 66 64 67 72 70 68 68 69 72 78 80 80 81 78 75 79 73 70 64 86 58 37 40 35 49 40 33 29 27 25 31 32 45 58 60 60 60 65 52 40 36
61 61 62 63 62 61 60 60 68 68 68 68 70 71 71 73 76 79 82 83 66 72 74 82 74 72 68 49 39 42 37 29 32 30 34 31 37 43 42 39 40 51 54 52 50 35 35
62 70 62 63 64 60 59 61 67 67 68 69 71 71 72 74 76 79 79 71 66 82 96 68 71 70 56 47 59 44 38 30 45 45 32 34 41 32 28 35 41 46 52 55 40 30 48
62 58 60 62 62 62 63 65 68 69 68 67 69 71 72 75 78 85 94 73 54 57 97 71 54 55 56 56 68 53 41 38 46 46 38 38 33 30 28 32 37 40 45 41 39 48 50
53 54 54 59 61 62 64 68 67 66 66 67 67 70 75 78 78 96 86 60 61 58 97 62 67 59 46 50 68 38 34 28 29 54 48 44 32 31 33 31 30 36 31 35 56 61 68
55 54 55 60 61 65 67 67 66 66 66 67 68 70 71 71 84 90 72 71 61 86 92 32 47 40 42 46 31 46 32 28 31 34 50 54 53 49 44 35 31 46 53 58 72 82 93
66 63 61 60 62 65 64 65 66 68 68 68 68 69 71 86 96 89 85 73 83 98 79 47 57 51 52 43 40 34 33 30 27 31 38 45 33 40 49 73 51 67 62 76 88 87 97
63 66 60 61 64 64 64 65 66 66 67 69 68 69 74 79 85 87 86 92 96 92 38 46 57 42 49 46 43 36 37 40 39 44 45 38 35 50 62 79 70 62 66 91 84 83 88
57 60 59 57 58 65 67 66 67 68 69 70 69 73 84 78 94 88 91 94 89 44 49 55 56 56 57 44 44 44 39 44 40 40 48 46 44 50 58 54 73 81 66 84 81 92 85
65 54 54 58 65 65 67 67 68 69 70 70 76 96 97 94 90 94 95 95 62 62 62 83 68 66 52 39 42 47 43 43 37 37 45 46 45 51 57 63 54 90 83 71 84 88 98
57 52 56 63 65 68 68 67 67 70 70 71 97 97 96 87 92 95 97 76 73 50 48 84 93 84 67 44 49 54 60 65 56 42 42 50 57 52 57 51 64 61 69 87 95 97 92
55 59 63 60 68 69 68 65 68 71 72 73 95 97 75 93 91 99 98 87 64 49 53 96 97 96 77 49 49 75 74 57 50 57 52 62 58 68 51 58 76 79 90 91 85 89 95
57 58 60 61 66 65 64 66 70 74 73 85 98 97 82 94 99 99 99 75 55 59 48 74 98 99 95 60 57 73 68 60 46 49 56 54 73 81 67 66 53 60 82 82 94 92 94
56 58 64 60 67 62 63 68 71 78 71 97 97 88 84 96 98 97 83 77 63 61 48 53 86 99 87 85 74 56 76 56 57 49 57 46 76 61 81 73 61 77 80 74 89 98 97
55 63 61 61 62 62 64 66 68 72 78 95 93 98 91 99 99 89 97 81 75 62 53 72 74 87 98 74 64 73 63 58 61 58 68 56 68 62 73 70 76 85 71 73 85 97 93
58 66 57 63 62 64 63 65 69 72 75 94 93 93 90 99 96 95 93 97 95 97 62 77 97 94 92 94 74 88 73 63 52 64 65 58 68 66 64 65 71 70 70 73 89 84 91
62 64 54 59 62 63 68 66 68 75 76 97 98 91 92 97 83 84 83 96 96 84 92 83 79 72 78 85 83 85 79 78 83 65 68 66 82 76 73 61 63 70 60 62 59 59 74
63 64 62 61 60 64 61 65 70 77 85 100 96 95 96 80 79 84 82 67 74 66 86 68 70 81 78 80 81 76 76 74 78 77 72 75 78 77 71 74 66 67 67 45 40 78 83
67 59 63 63 68 69 62 69 77 81 84 99 98 99 98 93 88 71 71 68 71 66 80 65 68 80 82 78 75 80 83 81 83 78 73 80 79 89 92 76 80 47 37 39 57 54 75
66 61 64 65 71 59 64 72 78 78 80 98 98 100 99 99 77 75 79 70 69 75 79 77 85 85 88 84 77 72 72 65 63 68 78 75 84 89 90 85 60 45 48 69 68 57 70
66 63 66 72 56 62 66 74 76 80 79 97 93 94 99 98 86 76 81 81 90 95 85 82 78 85 84 93 92 90 80 73 71 64 85 87 81 85 92 88 88 55 56 68 64 52 91
64 64 68 74 60 66 68 72 76 78 80 94 96 82 99 99 87 83 84 89 84 88 96 92 88 93 86 96 98 96 88 72 72 72 78 97 96 88 93 80 79 63 84 73 74 79 91
66 67 74 74 66 66 68 72 77 78 80 92 98 84 96 98 84 76 73 77 82 92 96 84 87 89 95 96 97 95 96 83 87 74 77 84 95 97 83 91 90 90 82 83 89 87 85
68 72 74 69 69 68 70 73 79 78 79 84 99 89 88 100 86 87 73 64 69 76 85 90 94 93 98 96 92 96 96 97 93 92 83 90 92 96 91 86 90 83 84 80 81 89 86

GFSGBSN_sfc_rhum_093.txt.gz
RH
66 66 66 66 65 64 63 65 67 69 69 67 66 66 69 71 71 71 72 76 71 68 69 68 69 69 65 82 58 23 45 40 57 59 38 32 36 35 36 36 36 40 30 29 23 21 22
68 64 63 64 65 65 64 68 68 69 67 66 66 69 72 71 70 70 70 75 77 75 70 70 70 69 75 89 30 29 31 33 26 57 44 33 27 27 27 26 31 31 31 25 23 26 27
65 68 71 67 65 66 68 68 67 65 66 67 68 70 70 72 73 72 72 76 80 77 74 74 77 70 77 66 34 32 31 34 31 26 39 38 28 25 26 27 24 24 26 23 27 26 28
61 60 61 64 73 71 68 66 66 66 68 67 67 68 69 72 74 74 76 80 79 76 73 78 73 73 84 47 44 46 44 46 44 36 28 26 38 31 35 32 34 35 34 36 28 21 23
58 59 61 66 67 67 67 64 66 70 68 67 67 68 69 74 77 79 80 80 78 68 77 71 72 80 80 50 53 42 45 47 34 39 34 22 32 36 35 41 34 43 39 44 36 27 24
63 62 63 65 64 62 60 60 64 67 66 67 67 68 68 71 77 80 82 76 65 74 61 67 60 86 59 43 45 40 44 44 37 36 30 31 27 31 30 36 40 39 48 43 37 28 27
62 61 60 61 61 59 58 59 65 66 67 66 66 66 68 69 72 78 78 60 59 60 64 70 60 67 58 36 30 36 36 35 42 30 28 29 33 34 31 33 29 35 39 38 35 29 32
61 68 64 59 59 60 59 60 66 68 67 65 65 66 68 70 71 75 77 66 66 74 93 64 68 68 52 40 49 35 29 43 40 42 29 32 35 28 28 30 31 34 35 35 35 32 32
61 56 55 56 60 60 60 63 66 65 64 65 66 67 69 72 71 82 89 70 62 62 97 69 56 54 50 54 69 55 38 38 38 56 40 26 26 27 29 30 34 33 34 38 33 31 34
51 53 51 56 58 61 64 65 65 65 65 66 67 67 71 75 72 83 80 59 69 68 96 55 57 54 46 52 74 49 31 33 26 50 51 46 27 30 32 30 27 34 28 28 30 37 39
51 52 52 58 58 64 64 63 64 64 65 66 67 67 68 71 90 79 69 73 70 84 77 31 42 41 43 52 41 47 33 31 30 48 46 48 49 38 38 30 27 27 30 30 50 51 62
58 55 59 58 64 64 63 64 64 65 66 66 68 68 69 81 90 81 79 81 82 81 68 40 40 56 58 46 41 41 41 31 27 33 35 39 30 38 34 62 28 53 58 67 69 66 64
57 63 62 54 59 59 64 66 65 67 68 68 69 70 71 74 84 80 84 80 79 75 33 47 61 48 66 61 41 43 43 43 39 48 44 35 30 52 60 65 60 51 53 70 64 72 44
58 53 56 55 55 64 64 65 67 68 69 69 71 75 83 77 84 85 78 78 79 34 46 57 60 66 84 47 42 38 44 38 34 37 38 40 45 48 51 56 61 56 49 57 52 63 62
64 58 54 52 64 64 67 66 67 68 70 71 76 90 88 82 84 83 87 90 52 61 71 70 61 73 94 43 44 39 41 37 32 34 36 40 36 49 51 58 46 66 62 55 67 75 70
64 53 53 55 62 65 68 67 66 69 72 73 95 93 84 88 88 88 92 72 55 43 40 62 94 92 94 72 51 49 56 60 50 35 34 39 63 53 62 48 56 52 58 70 81 84 80
56 54 58 61 58 68 65 64 67 72 73 74 92 90 71 89 92 98 95 76 61 43 47 94 93 94 97 91 71 81 73 58 49 49 42 51 55 64 50 50 65 62 67 76 68 72 73
63 54 56 60 61 66 63 64 69 72 73 83 95 91 74 92 98 96 93 82 56 51 46 53 85 99 99 95 94 89 78 64 52 55 52 53 65 74 70 62 53 57 70 64 63 86 76
68 58 57 65 58 65 61 63 67 71 74 95 96 89 76 94 99 92 72 71 65 59 54 46 54 78 99 99 96 98 87 60 60 58 54 53 64 89 84 59 48 60 63 68 81 86 84
67 55 58 63 60 61 61 63 65 70 78 94 95 96 78 94 92 95 87 70 86 68 58 59 79 98 100 98 94 95 99 61 58 66 76 70 62 57 67 69 61 61 53 61 68 85 67
65 58 63 58 62 62 61 61 67 71 76 91 93 90 86 98 91 92 83 91 94 94 93 94 97 93 98 97 93 93 78 70 57 64 64 63 73 61 57 58 62 58 55 53 66 65 77
63 58 66 54 55 62 61 65 65 68 76 95 98 89 87 88 81 80 74 87 88 73 96 93 84 86 78 88 95 89 75 75 73 60 62 58 75 62 53 56 51 52 43 50 54 53 56
62 63 59 56 62 61 65 61 64 68 82 98 96 92 94 76 70 79 79 70 68 64 67 67 68 76 78 83 89 79 72 75 74 76 66 69 66 55 56 59 49 45 48 34 37 38 56
64 60 63 58 62 64 71 62 68 76 85 97 96 99 96 87 73 64 66 67 72 60 77 67 75 85 73 74 76 73 78 77 75 70 70 72 67 72 68 68 62 38 36 36 45 42 62
62 64 60 60 65 74 61 62 70 79 78 98 98 100 97 95 72 66 70 68 66 72 73 74 74 66 77 84 73 59 61 56 62 77 70 66 70 81 69 61 49 40 58 57 56 45 80
62 62 62 61 64 72 60 63 72 74 78 97 93 94 100 95 71 69 75 75 84 87 74 77 73 77 80 82 79 77 75 69 63 69 74 75 72 70 76 67 68 53 61 63 64 40 78
64 65 64 65 68 69 65 65 71 73 75 96 97 91 99 97 76 77 76 81 74 76 76 81 80 88 83 91 89 88 77 65 67 62 75 84 82 81 80 73 60 80 77 62 54 66 78
64 65 65 66 72 73 66 66 70 73 76 92 99 91 96 96 78 73 66 68 65 76 79 78 82 83 88 89 84 88 87 80 78 73 82 74 81 90 76 82 85 82 68 76 87 88 86
63 66 67 68 77 70 69 68 70 73 77 79 99 91 93 100 90 80 73 66 63 64 82 85 93 89 88 84 81 87 80 84 83 79 72 90 97 93 89 96 99 95 94 93 89 95 96

GFSGBSN_sfc_rhum_099.txt.gz
RH
70 69 67 65 63 61 62 64 64 64 65 65 66 66 66 67 68 69 70 71 71 70 69 70 70 72 54 24 17 8 56 42 14 9 14 17 20 17 16 15 16 15 14 14 13 12 11
69 68 66 65 63 63 62 64 62 64 66 66 66 66 66 66 66 67 67 72 76 76 71 70 70 74 53 35 9 8 8 10 10 8 8 14 14 15 15 14 17 15 15 15 14 14 13
68 68 68 68 65 66 64 63 63 66 65 64 64 65 66 66 67 68 68 71 76 77 72 70 72 58 50 28 10 8 9 10 9 9 10 15 12 14 16 19 14 15 20 17 16 16 16
70 69 72 72 71 66 63 60 65 64 63 63 63 64 66 67 68 70 71 77 78 76 71 70 74 50 55 16 12 15 14 13 11 13 12 11 16 18 17 16 17 18 20 24 17 16 15
66 64 66 69 68 63 57 56 61 61 63 64 63 65 66 69 72 76 78 78 78 72 65 72 59 48 46 27 21 16 21 22 20 18 16 10 15 24 23 25 25 21 24 23 19 14 15
65 65 68 68 63 58 56 55 60 62 64 62 63 65 67 68 73 75 77 79 56 58 47 29 31 50 37 25 11 16 17 21 29 29 26 18 15 17 20 26 34 26 27 22 21 16 16
66 67 67 63 61 58 55 55 62 64 62 62 63 66 67 68 70 74 60 21 23 23 30 30 22 26 16 11 12 13 9 10 16 29 35 24 19 18 17 23 22 25 25 34 23 17 20
68 66 64 63 58 58 55 58 60 60 63 63 64 66 68 69 70 71 44 33 36 40 60 32 24 21 18 17 26 24 20 25 16 20 27 22 19 12 14 16 24 28 70 51 29 20 21
68 68 65 61 59 58 58 60 59 60 61 63 65 66 69 71 72 54 32 28 23 33 55 30 18 22 30 34 35 30 26 24 18 21 25 28 14 10 13 15 22 36 54 40 31 23 24
66 64 61 61 60 62 60 58 59 60 62 65 67 68 69 75 62 33 25 26 30 42 66 20 17 34 34 31 40 20 21 23 19 23 27 24 11 13 15 17 18 30 26 29 28 38 46
64 61 63 61 60 64 60 59 60 61 64 67 68 68 70 72 48 34 32 34 37 60 53 13 24 28 25 20 19 22 25 26 23 20 28 31 14 16 19 20 20 23 21 28 32 27 26
63 61 61 61 66 62 59 62 60 64 66 67 68 70 70 39 37 35 38 44 46 81 44 14 20 20 18 18 28 29 32 28 17 18 19 25 16 16 17 18 20 21 23 21 22 22 32
63 64 63 63 62 57 60 61 62 64 66 69 72 72 62 37 45 40 48 42 43 31 11 14 20 18 20 70 58 42 40 42 24 27 42 43 52 18 18 25 27 26 31 50 51 47 41
66 65 64 58 56 59 62 63 62 64 67 70 74 77 59 34 40 50 46 44 40 22 22 17 21 22 45 68 56 78 41 32 21 22 41 62 64 29 28 28 35 29 30 58 56 56 39
61 60 59 58 59 64 64 63 62 64 71 73 75 41 40 50 52 48 44 50 30 27 22 28 26 36 63 60 74 84 42 25 19 18 69 58 37 36 30 24 24 31 39 33 58 40 40
62 63 60 57 62 62 66 64 61 66 71 73 43 36 38 53 56 51 56 44 34 27 28 30 60 65 90 69 81 67 24 19 20 23 34 26 56 28 29 30 26 31 27 48 45 45 38
69 64 57 57 64 64 64 61 62 68 72 72 49 36 43 51 54 51 79 41 37 29 30 38 56 63 75 96 86 70 70 17 22 18 19 23 43 33 32 40 35 33 40 36 33 39 57
70 60 61 66 60 59 66 61 63 67 72 74 49 67 43 48 81 63 53 39 46 34 34 39 42 82 98 99 93 100 98 82 35 31 24 24 38 43 37 23 37 25 37 33 54 50 40
69 61 58 60 61 63 63 60 62 67 74 44 55 37 42 53 87 60 40 39 39 42 50 54 75 79 95 100 100 100 100 71 56 49 42 42 43 45 54 38 41 39 39 27 39 46 54
61 63 58 58 68 63 63 61 61 65 74 58 55 90 40 47 57 56 57 50 56 40 51 70 91 80 86 89 74 100 100 75 56 55 77 62 44 35 48 43 32 48 33 33 36 47 40
62 70 62 57 65 61 62 64 61 66 72 63 62 76 50 78 64 55 53 61 70 67 43 44 52 47 57 91 82 89 78 81 61 61 76 65 81 79 38 26 29 38 44 41 43 33 43
66 71 64 67 64 64 63 59 63 64 71 64 96 52 40 45 43 47 52 61 54 42 47 51 57 45 45 57 66 79 64 71 99 68 78 58 51 44 38 31 28 30 24 23 24 27 29
75 70 64 67 62 59 61 64 63 62 74 60 48 44 53 44 35 42 43 37 39 39 41 40 44 47 48 48 50 54 51 53 58 58 59 50 43 47 44 25 24 42 29 22 25 29 30
73 67 66 64 60 57 61 67 62 64 75 52 46 50 68 63 35 32 33 33 33 34 48 40 41 50 42 40 40 36 49 44 37 45 44 49 34 36 44 33 44 34 27 26 34 41 41
70 68 64 62 63 63 62 64 65 67 73 87 61 66 68 78 34 34 37 36 35 33 38 38 38 38 43 45 45 37 44 49 35 39 39 40 40 42 42 38 38 36 40 42 40 66 46
61 64 64 66 64 61 74 76 68 70 72 88 69 64 69 84 47 36 43 36 39 36 36 36 36 39 46 43 48 48 51 43 39 34 31 35 38 43 44 36 56 85 49 37 35 68 61
68 64 66 68 63 65 73 69 64 68 72 83 82 81 80 90 42 44 48 51 40 37 38 37 48 51 45 63 69 53 54 35 52 44 46 47 54 56 54 48 64 83 56 44 55 97 76
71 69 70 67 65 68 75 76 65 66 72 73 94 85 89 79 50 48 46 50 46 41 54 47 53 58 68 70 57 62 70 53 55 44 53 62 76 64 59 56 75 81 53 78 98 96 88
76 73 72 72 68 68 75 72 66 67 71 71 91 89 94 96 63 60 56 51 50 47 51 44 60 57 59 68 61 74 74 67 51 89 44 81 77 82 87 93 96 81 86 87 86 92 98

GFSGBSN_sfc_rhum_102.txt.gz
RH
72 72 71 71 67 64 64 66 62 61 63 64 65 66 66 66 67 67 67 68 68 67 65 65 67 68 56 30 23 10 61 50 19 12 12 9 13 18 24 16 13 16 18 16 15 14 13
72 72 70 67 65 65 64 64 60 62 64 62 64 65 66 66 66 67 67 70 73 70 70 68 67 71 51 43 13 7 8 11 8 8 9 9 9 12 16 19 18 14 14 16 14 14 14
73 71 68 67 66 66 66 62 61 62 62 62 64 65 66 66 67 68 69 71 78 75 70 70 69 53 46 35 13 14 13 11 8 8 9 8 8 12 14 17 14 16 17 15 16 15 15
71 69 70 69 68 69 66 61 63 62 60 63 63 64 67 68 69 70 71 78 78 75 70 70 69 53 50 22 20 18 14 12 11 11 10 8 9 11 17 14 14 19 20 23 17 16 16
71 73 73 72 72 68 62 58 61 59 63 63 63 65 66 68 72 75 77 78 76 75 70 68 61 55 51 28 26 17 14 18 18 15 15 11 13 16 16 25 25 22 27 26 21 16 18
76 72 71 71 70 64 60 58 61 61 62 62 63 65 67 69 74 76 79 76 63 61 43 29 35 43 34 33 17 12 10 10 21 21 23 25 22 21 18 28 38 28 26 24 23 17 18
78 73 71 70 66 60 59 58 62 63 60 62 63 65 67 69 70 76 64 23 23 23 26 28 22 22 20 16 14 14 13 14 12 12 18 24 36 34 20 20 21 22 22 23 20 31 30
79 76 75 69 63 61 59 61 62 59 61 61 64 66 68 69 71 75 59 26 25 31 46 25 23 22 19 16 20 17 16 26 30 27 13 21 52 33 17 13 14 20 27 28 38 34 36
80 77 75 67 62 61 59 60 60 58 60 62 65 67 69 71 74 57 30 28 22 32 44 31 20 18 29 32 47 23 23 27 40 38 27 20 24 32 19 16 13 17 24 42 42 44 69
81 79 73 66 64 63 63 60 59 59 61 65 67 68 71 76 68 35 26 27 29 38 61 20 26 46 46 21 16 13 18 20 37 38 28 15 12 28 21 15 12 21 17 34 39 78 80
80 79 72 68 66 66 62 60 60 60 63 66 68 69 72 69 60 34 32 33 37 46 58 12 9 14 11 12 13 12 22 38 51 28 21 19 18 30 28 13 11 18 18 31 31 55 65
80 75 70 68 65 66 62 63 61 62 65 67 70 72 73 43 52 35 37 44 52 78 42 16 12 16 18 18 22 32 42 37 38 26 17 15 15 47 27 16 12 15 40 42 43 48 90
74 69 72 65 68 66 62 64 62 64 65 68 72 74 65 40 44 40 49 48 66 41 16 20 24 22 25 36 54 43 67 80 79 43 28 25 31 36 19 22 20 26 43 58 72 87 66
73 72 70 67 67 62 62 63 64 63 66 71 74 77 60 33 42 51 52 56 34 25 26 22 26 28 43 75 60 63 72 60 34 18 22 32 94 66 31 19 26 30 36 60 52 52 40
69 72 68 65 61 62 64 63 63 63 69 74 74 53 46 48 51 51 55 46 35 31 25 30 29 43 57 47 71 79 56 51 19 16 42 90 98 38 23 19 25 29 37 35 98 66 90
70 70 67 62 61 66 64 64 62 65 70 72 54 38 37 46 52 59 56 41 32 25 26 29 54 48 74 72 85 62 67 20 17 25 47 66 89 34 31 26 27 32 31 73 92 97 95
65 64 63 62 64 65 66 63 62 66 70 70 63 40 48 44 56 48 77 40 32 25 30 41 54 68 67 93 88 93 78 68 52 44 42 52 58 42 46 84 47 42 67 70 66 56 76
69 69 64 61 65 64 65 62 61 65 71 75 50 67 44 49 82 63 48 37 46 32 34 40 45 62 91 99 92 100 100 97 77 46 55 29 51 51 37 57 40 39 52 50 86 45 67
72 67 61 64 65 61 68 61 59 65 71 56 51 42 45 53 82 54 36 35 34 37 38 51 55 61 88 100 97 98 94 77 60 56 75 60 50 88 53 40 65 51 46 39 48 77 58
71 65 64 64 63 64 64 61 58 64 70 67 54 90 43 45 56 50 49 46 47 34 39 43 45 56 58 88 57 86 95 93 58 63 75 66 63 76 64 48 68 85 80 64 50 84 57
71 67 62 61 67 63 65 62 58 64 69 70 62 80 46 75 59 46 46 50 54 49 32 34 41 39 45 89 64 69 63 75 55 69 69 74 100 77 67 51 45 69 75 65 42 38 88
67 71 68 62 67 62 63 62 60 63 70 58 95 57 40 41 38 42 48 51 43 34 36 39 43 39 41 50 55 72 59 66 75 73 87 71 98 92 89 43 56 55 34 34 29 35 39
66 72 71 64 67 65 64 60 62 62 69 50 41 42 47 50 32 38 39 34 33 31 32 30 35 42 46 44 47 51 47 50 60 82 74 73 60 74 49 30 35 55 34 38 44 44 55
67 72 65 68 66 62 61 65 62 61 70 68 44 49 60 67 34 30 29 29 31 31 37 32 32 42 38 36 41 36 39 41 36 40 41 63 52 49 50 44 83 48 38 50 55 55 46
73 74 68 67 64 60 62 66 66 62 67 72 68 66 69 75 38 30 32 34 31 28 31 31 32 36 37 46 48 54 51 68 37 34 34 38 54 58 65 55 56 52 55 64 82 93 63
78 72 68 66 65 65 64 67 72 64 70 74 67 59 68 78 66 33 37 40 45 38 36 33 31 39 45 49 55 64 55 42 44 37 27 33 47 62 55 50 83 82 59 48 47 96 79
73 70 68 66 69 64 72 74 67 66 70 71 86 68 69 93 47 45 49 51 40 45 44 42 42 48 45 69 70 67 89 39 64 53 58 63 66 71 63 60 80 74 59 51 68 98 85
72 71 71 70 66 67 74 73 65 62 70 70 88 70 70 76 52 47 43 54 44 43 62 50 55 64 69 78 59 59 65 52 59 52 52 68 82 77 76 75 89 73 57 80 98 98 96
74 74 75 73 69 73 76 76 75 64 71 71 87 86 89 98 68 65 55 49 49 48 55 53 58 60 61 69 70 66 78 70 54 90 46 86 72 74 83 92 90 77 86 95 92 93 98

GFSGBSN_sfc_rhum_108.txt.gz
RH
80 78 81 79 76 76 72 68 71 66 65 66 66 68 68 67 67 68 68 72 70 69 69 69 70 68 76 59 48 34 54 50 49 30 26 23 22 22 28 48 38 26 20 15 14 15 17
81 82 81 80 78 75 70 69 71 67 67 66 66 67 68 68 68 68 70 71 74 72 73 72 71 65 84 42 24 22 23 28 40 35 29 24 22 20 20 18 21 25 24 26 25 21 16
84 86 83 81 79 74 70 72 70 68 67 65 65 68 67 68 68 71 71 73 77 77 76 74 71 67 82 54 31 37 35 36 32 29 29 22 19 24 22 22 18 18 22 18 18 19 24
86 89 85 82 80 77 75 74 69 69 67 63 67 66 68 69 71 73 75 81 82 79 77 75 72 76 83 41 42 34 32 19 17 17 18 19 21 23 25 22 21 23 24 26 19 20 19
86 87 83 84 80 78 77 72 69 68 65 64 65 66 67 70 74 78 81 81 81 77 76 76 84 85 86 47 30 18 20 21 18 17 18 13 20 31 29 31 31 26 32 27 22 20 22
86 86 87 83 81 78 75 72 70 68 64 66 64 65 68 70 76 79 81 80 76 66 41 62 47 76 54 30 22 20 20 21 22 23 25 23 24 31 37 43 52 39 31 27 32 27 25
89 88 84 82 79 74 74 69 67 69 67 65 64 64 68 70 73 78 82 71 44 39 44 40 32 34 30 24 22 25 22 25 29 34 42 42 51 45 30 31 46 46 33 33 26 22 29
89 88 86 84 80 76 73 67 68 70 68 64 63 66 69 70 72 78 85 44 42 44 66 43 42 38 30 28 32 26 24 36 35 51 68 58 58 49 48 48 34 36 53 58 29 21 26
90 90 87 85 82 76 71 67 68 71 66 62 64 68 69 73 76 74 55 52 44 47 76 53 36 29 30 37 33 28 23 26 33 40 46 66 48 36 49 53 57 28 30 56 56 27 26
91 90 88 87 84 75 69 67 71 68 65 62 67 70 73 79 72 74 53 54 55 55 81 31 26 32 30 27 32 22 28 36 46 51 48 50 38 39 50 55 57 59 34 61 64 45 45
91 90 89 88 87 82 76 72 69 66 63 64 67 70 74 74 94 67 53 62 62 66 50 25 24 18 20 31 32 40 34 43 54 51 54 58 49 54 60 52 46 48 33 57 50 39 51
89 90 90 86 84 82 76 73 69 66 64 66 66 69 74 70 92 72 64 70 71 64 46 33 25 28 33 32 40 42 43 42 47 61 62 66 50 62 51 32 32 40 60 56 67 58 60
90 86 88 88 87 84 75 71 69 65 65 65 67 71 76 69 70 64 76 80 63 52 30 34 36 34 38 45 56 55 60 74 81 90 73 56 62 38 39 47 46 55 70 92 90 96 79
87 89 88 87 86 80 74 69 70 66 66 64 70 77 80 67 72 76 81 76 50 38 38 32 39 42 55 58 64 62 61 71 70 74 84 66 70 48 54 56 47 75 62 74 94 91 78
89 88 89 86 84 84 76 71 68 67 65 68 73 86 81 79 74 82 84 80 51 43 35 45 47 63 71 58 70 79 68 65 74 84 99 98 76 44 38 38 51 59 70 56 73 88 84
88 88 88 88 84 77 70 71 70 66 67 71 90 88 80 68 76 89 88 52 45 36 41 46 72 66 90 75 83 80 68 50 67 64 74 94 97 55 55 59 61 60 62 70 90 84 91
89 88 86 85 81 74 72 70 69 66 69 74 93 89 70 66 82 89 90 57 46 37 42 58 77 79 77 90 85 90 88 56 54 64 70 88 100 76 59 73 80 63 81 81 70 82 98
89 88 84 81 73 74 70 69 67 67 71 81 95 93 70 77 93 99 91 50 50 45 45 54 63 72 86 96 95 86 98 76 47 63 81 71 99 94 74 66 75 71 73 68 85 88 96
89 85 82 79 78 75 74 69 65 68 76 92 93 82 72 77 94 94 63 51 49 50 48 54 65 68 80 99 98 96 91 65 55 63 86 79 88 89 74 79 80 83 64 64 88 94 99
87 84 78 73 76 72 72 68 65 68 73 90 95 96 83 89 87 71 67 64 64 48 50 46 53 60 77 93 93 87 82 64 56 65 77 82 88 89 94 80 87 100 86 87 91 99 97
83 79 74 72 70 71 72 68 64 67 73 92 94 92 77 95 93 76 63 66 72 69 44 45 53 54 67 87 80 83 70 62 66 68 80 87 98 96 98 98 94 97 100 98 99 99 93
82 78 76 75 69 70 68 67 65 67 72 97 94 88 74 65 69 64 69 67 65 46 46 47 55 49 56 70 74 72 63 77 91 84 85 83 99 100 99 96 84 98 97 90 98 100 99
77 75 76 74 71 68 68 67 66 67 78 95 84 77 78 78 67 72 74 46 47 53 49 39 47 56 63 59 56 54 54 60 70 78 89 85 91 97 96 88 90 86 99 92 94 90 88
75 67 69 73 68 68 67 67 68 67 79 97 95 86 90 91 78 59 43 40 51 55 56 56 55 64 50 48 59 61 66 62 68 71 71 82 68 83 88 94 89 99 94 81 86 86 80
75 70 68 71 70 69 69 70 68 69 73 92 97 93 95 96 76 64 58 59 56 60 59 63 59 51 60 65 78 75 80 68 64 59 56 61 74 96 97 93 97 75 75 90 91 97 93
78 74 71 74 76 75 73 72 70 73 72 95 97 96 94 94 89 67 67 64 72 76 69 67 60 65 68 83 90 94 95 72 83 68 51 61 70 97 98 88 95 89 76 66 68 92 97
79 77 76 75 75 76 73 76 72 75 74 94 97 92 93 95 82 74 80 78 71 75 81 79 76 79 75 96 97 90 92 67 95 86 81 84 89 90 92 89 84 88 79 66 80 98 98
80 77 78 77 78 76 74 75 73 75 75 92 99 97 92 96 87 83 78 86 84 85 94 80 81 86 94 94 92 90 92 86 90 72 79 91 97 94 88 84 88 87 77 82 98 99 98
83 80 78 79 79 78 78 73 69 73 74 78 99 97 96 95 82 93 82 69 70 72 86 89 87 90 93 94 94 93 93 95 95 97 78 95 90 93 90 95 97 98 99 99 98 98 98

GFSGBSN_sfc_rhum_114.txt.gz
RH
88 88 86 84 83 83 81 80 81 79 76 72 70 68 67 70 69 69 70 72 74 75 77 77 76 75 60 33 20 24 48 44 34 33 32 32 33 33 37 44 30 30 36 36 28 19 19
89 88 86 85 84 84 83 82 82 80 78 73 71 69 68 70 69 68 71 73 75 77 78 77 76 72 63 19 21 37 42 37 30 31 30 33 33 27 31 29 28 27 24 23 26 26 22
88 88 88 88 86 85 85 83 83 81 78 74 72 68 69 69 69 71 72 74 76 78 78 77 75 71 70 25 42 52 46 42 35 30 27 26 28 28 34 32 27 28 34 29 26 26 22
88 89 90 89 88 86 86 84 84 81 77 73 72 68 69 69 70 74 75 76 78 79 78 77 76 82 45 35 55 56 47 27 27 28 28 22 25 30 31 28 32 35 40 46 28 26 23
93 91 90 89 88 89 86 87 85 81 77 74 72 68 67 69 73 75 76 78 80 75 77 79 88 86 38 40 40 31 29 26 26 26 26 17 25 31 35 44 46 48 52 50 42 29 28
95 92 92 90 88 88 88 88 85 83 80 76 71 68 66 68 74 78 82 81 74 83 76 68 65 69 36 28 27 25 27 26 30 31 30 34 39 40 44 51 54 45 55 55 55 37 36
85 89 91 91 89 88 89 88 86 85 81 75 70 67 64 69 72 79 89 44 36 33 47 33 41 44 32 28 30 30 27 33 38 40 49 45 56 60 54 46 39 40 44 50 39 31 33
84 84 94 93 90 89 90 89 87 84 80 76 70 66 65 69 73 79 72 55 51 50 65 52 49 46 40 37 40 32 30 40 41 49 51 66 74 47 41 44 56 62 69 65 47 33 47
82 84 84 91 90 90 90 88 88 85 80 76 71 66 66 71 76 67 63 61 52 49 72 51 45 42 32 36 41 33 38 44 52 58 56 64 52 41 45 48 50 51 60 47 52 50 54
78 81 84 87 92 90 91 88 88 86 81 79 76 68 70 76 76 79 76 69 57 59 63 33 35 32 29 34 42 29 36 48 56 63 59 66 51 52 54 55 51 71 44 48 57 70 92
77 78 82 85 94 91 91 89 87 84 81 83 79 72 72 72 77 65 62 72 64 58 26 32 28 24 30 38 40 43 41 51 63 62 70 72 66 70 72 64 49 56 50 58 58 74 76
79 78 81 82 93 94 90 90 86 85 83 80 72 72 76 86 89 65 74 72 65 44 35 39 32 37 44 42 48 50 50 51 52 68 72 69 60 66 68 57 55 50 63 66 68 83 96
77 82 79 82 85 93 90 89 86 85 83 76 72 72 78 71 67 77 81 71 42 39 35 42 44 48 50 55 62 65 72 74 95 94 78 70 70 68 63 74 59 63 71 90 89 94 86
78 77 79 82 87 91 90 88 86 88 83 78 75 77 77 71 74 78 77 58 48 42 44 40 46 53 65 68 68 73 75 81 80 92 91 97 84 58 52 59 46 64 64 86 95 94 88
82 78 80 80 93 91 90 87 89 87 82 78 79 91 81 71 79 80 65 79 39 44 37 50 54 67 72 66 81 79 76 79 73 67 99 95 94 61 55 51 56 66 82 69 98 86 97
77 81 78 79 92 90 88 87 89 88 83 83 90 90 78 78 77 77 79 55 45 39 45 53 71 70 87 79 85 86 77 63 68 63 61 90 98 68 59 72 57 61 64 94 98 97 94
81 82 81 84 90 89 87 87 85 83 80 75 93 91 79 80 76 81 89 58 48 43 44 60 75 82 78 90 96 95 83 69 63 58 60 62 100 76 70 76 84 89 90 89 89 90 97
89 88 85 91 90 88 87 86 86 81 80 83 95 98 80 84 96 98 82 54 50 49 50 57 65 71 82 92 95 98 92 76 55 61 72 74 100 96 74 52 75 86 86 82 97 91 97
90 89 92 90 89 88 87 85 82 81 81 93 94 93 79 80 97 95 65 55 51 53 49 57 66 72 81 92 81 94 94 72 71 57 89 95 91 95 76 78 81 88 79 69 84 99 97
92 91 89 89 89 88 88 86 85 80 77 85 92 98 92 90 87 71 70 63 62 52 54 51 56 68 79 84 85 88 93 68 59 59 62 80 99 99 96 98 98 94 93 92 96 97 96
90 90 90 90 89 87 87 88 82 78 80 86 92 91 78 98 93 74 69 69 69 64 48 45 63 53 61 85 79 97 86 70 59 64 69 90 99 99 98 96 89 92 99 93 90 90 91
92 91 91 90 89 88 87 82 79 79 81 86 97 84 77 82 73 67 71 71 66 56 45 47 56 58 58 66 67 72 68 74 75 74 73 86 98 100 99 100 96 93 95 85 94 97 97
90 90 90 90 90 86 80 81 82 81 77 85 85 72 76 75 70 69 76 72 66 46 61 48 56 62 63 60 62 62 60 64 61 70 91 98 100 98 97 78 78 80 98 97 89 91 93
90 90 90 89 85 80 77 79 80 78 78 86 84 75 84 89 66 60 63 52 54 51 57 61 58 62 56 66 72 71 79 75 75 70 76 97 99 99 97 94 90 94 80 80 84 88 90
89 88 85 79 78 76 74 75 78 80 81 93 96 79 82 91 65 58 62 64 62 61 62 66 64 57 73 80 82 83 81 73 86 74 92 83 99 98 98 93 95 85 87 92 92 95 93
84 84 80 79 78 78 81 83 83 82 79 94 100 88 83 84 78 59 67 62 70 69 64 69 68 75 76 88 91 98 98 83 84 83 69 80 83 99 96 87 96 92 81 79 79 91 88
82 81 80 79 77 80 82 84 84 80 78 90 99 92 83 96 82 71 70 72 73 75 75 78 82 86 80 93 96 96 95 81 98 92 96 86 91 96 96 90 91 88 92 91 90 99 88
81 81 82 78 79 82 84 86 84 81 80 87 99 96 81 93 85 86 77 83 82 75 70 70 80 86 93 91 87 94 97 90 99 96 93 87 94 93 94 90 89 95 89 82 98 94 91
82 82 83 82 81 83 86 86 84 79 76 78 97 95 92 92 85 92 83 76 64 59 86 93 86 93 92 96 97 96 98 96 92 98 90 95 89 93 95 94 98 96 96 94 92 97 94

GFSGBSN_sfc_rhum_117.txt.gz
RH
88 87 88 88 87 86 84 84 85 85 83 79 73 69 67 66 70 70 70 72 74 76 77 76 76 75 46 16 13 24 51 41 25 23 25 26 27 25 27 24 23 23 19 22 21 19 17
89 89 88 89 88 87 85 84 86 86 84 81 75 71 68 68 70 69 70 73 75 77 78 77 75 72 37 13 19 35 42 28 25 21 20 22 23 22 25 28 27 24 22 22 22 21 22
92 90 90 90 89 87 86 86 86 87 84 80 76 72 69 69 69 69 72 74 77 79 79 77 74 62 43 16 31 40 45 28 27 21 20 19 22 22 24 27 23 24 28 23 21 19 21
95 93 90 92 91 88 88 87 87 87 85 80 75 74 70 70 69 72 75 76 80 78 76 77 75 64 26 28 39 43 32 20 21 23 22 20 21 23 25 24 25 28 28 30 23 20 21
88 94 91 93 92 90 89 88 88 87 85 82 76 74 71 71 71 74 76 79 81 78 79 78 71 59 24 34 26 24 22 22 22 23 22 17 20 26 26 31 32 36 33 31 26 22 24
79 85 92 92 93 94 91 90 88 88 87 84 78 73 70 69 71 79 83 74 81 79 75 63 63 44 24 20 24 22 21 22 26 27 25 26 31 29 32 31 36 34 34 31 33 23 26
76 78 85 89 95 93 91 90 89 90 88 84 79 72 69 67 71 77 73 35 26 28 45 24 28 37 26 24 26 23 23 26 29 30 35 36 36 39 36 36 34 37 41 40 33 29 37
79 78 78 84 86 92 91 90 89 90 88 85 79 73 68 66 69 76 58 40 35 38 41 46 44 41 36 31 31 27 24 37 37 48 40 49 54 39 40 40 43 42 48 47 39 33 33
80 81 78 76 81 85 92 90 90 90 89 87 81 73 67 68 73 63 56 50 44 46 50 40 41 36 29 31 34 30 31 38 46 50 48 58 47 40 42 45 48 46 50 46 46 36 37
82 84 82 79 78 82 86 95 93 92 89 87 83 76 74 73 63 63 57 54 51 54 36 28 32 28 30 31 36 26 30 39 48 55 54 60 48 46 48 56 50 64 41 42 45 54 60
84 83 81 81 80 79 84 89 92 91 88 86 81 73 74 70 65 59 48 65 60 54 11 27 28 22 30 36 38 36 35 42 57 60 63 50 58 59 63 58 45 40 42 46 50 59 64
83 81 80 73 77 81 82 87 95 92 87 85 81 73 76 82 76 57 64 67 60 32 18 34 31 36 40 40 43 44 47 44 47 65 62 60 50 54 58 53 48 43 54 52 55 66 80
81 83 82 79 70 75 81 84 93 91 87 87 82 74 79 72 68 66 72 67 31 26 27 35 38 43 44 52 54 57 62 78 75 71 65 60 57 54 54 56 48 56 55 70 68 74 64
80 83 82 82 77 75 84 83 94 90 88 84 84 79 78 69 69 77 70 54 29 29 33 36 45 47 52 62 58 64 62 67 72 75 75 81 59 50 48 51 56 50 51 71 91 70 73
81 83 82 80 79 76 78 80 94 91 88 88 86 98 97 83 76 74 64 61 26 36 35 47 51 55 61 57 69 69 64 65 63 62 73 86 84 52 49 52 48 57 64 51 95 77 90
79 83 80 76 78 78 77 78 92 90 86 83 93 90 84 81 83 71 72 49 41 34 44 48 52 62 78 65 68 69 65 55 56 56 52 68 98 54 54 50 53 54 53 95 91 92 82
81 83 81 74 72 79 77 79 92 88 84 76 91 96 93 82 82 81 90 57 42 40 43 54 71 72 68 82 85 85 68 56 54 55 48 57 96 61 60 58 55 58 73 96 97 82 92
82 78 76 75 80 79 77 81 91 87 82 81 99 99 95 80 98 94 81 48 51 49 47 54 62 65 75 89 80 96 83 68 51 56 62 64 97 84 60 45 60 62 69 84 92 84 90
81 84 84 81 83 78 78 90 88 85 74 94 99 100 88 83 97 91 64 54 50 49 50 57 65 66 75 88 79 88 87 66 62 50 72 83 88 85 55 62 51 70 69 82 92 97 99
91 94 94 92 86 78 89 89 86 78 72 85 96 99 99 97 86 71 67 59 59 47 50 52 62 69 73 78 76 81 85 64 59 50 64 73 89 95 86 94 95 89 87 94 98 96 92
97 96 91 86 81 87 89 87 82 72 73 92 98 94 75 95 96 76 71 72 64 64 47 45 56 51 54 75 69 84 80 66 52 58 64 84 98 99 99 98 84 93 96 88 87 80 78
95 92 88 85 90 88 87 82 76 82 85 97 99 82 80 68 74 69 74 71 58 48 47 49 56 50 53 56 57 60 56 59 61 58 64 86 96 100 97 100 96 94 96 79 90 87 92
92 91 90 90 88 87 84 80 80 86 81 98 91 73 74 75 74 70 80 67 58 54 58 42 50 54 57 54 55 52 53 55 49 54 70 93 95 94 87 95 83 89 97 96 87 86 81
93 90 89 87 84 84 81 80 84 90 84 85 79 84 91 87 63 58 62 57 53 48 62 56 56 54 51 61 63 66 72 70 69 65 58 94 88 92 86 97 93 98 90 88 81 87 87
88 91 90 91 90 89 87 88 90 87 80 88 92 81 89 78 56 64 59 62 61 61 63 61 54 53 68 66 69 72 71 72 80 72 70 78 94 91 96 88 96 94 90 89 87 91 88
90 88 87 88 89 89 87 87 86 82 76 88 97 88 81 76 72 50 60 56 62 61 58 66 63 70 68 70 77 83 86 73 78 91 78 84 81 92 93 91 93 91 91 86 79 80 83
91 91 90 88 85 83 83 86 88 80 75 86 97 93 80 95 77 62 65 63 63 58 62 65 74 72 66 78 81 79 80 72 86 80 87 74 80 87 90 89 88 84 94 96 89 90 83
89 88 86 86 86 84 87 88 84 78 76 81 97 92 78 91 86 78 70 74 68 58 63 69 72 79 79 79 67 78 82 78 89 86 86 76 87 86 88 91 92 90 96 82 91 92 81
81 81 86 88 88 87 86 84 81 78 74 72 92 90 90 91 86 83 77 72 53 50 79 82 76 86 75 81 80 81 85 85 86 94 77 86 79 84 90 90 95 98 95 97 90 86 85

GFSGBSN_sfc_rhum_123.txt.gz
RH
94 94 95 93 90 92 94 92 88 88 88 87 84 76 70 66 66 68 72 72 72 74 76 77 77 76 37 10 6 15 49 42 12 8 8 9 11 11 10 8 8 9 8 8 8 8 8
97 96 95 93 94 94 92 94 90 90 89 89 86 81 74 69 67 69 71 71 74 76 78 79 77 79 24 10 10 14 13 10 9 9 10 10 11 11 12 12 11 10 11 10 9 9 9
86 96 95 95 95 94 95 93 94 90 90 90 87 83 76 72 69 69 69 70 76 78 80 77 74 30 19 11 11 10 12 11 11 12 14 12 11 12 12 13 12 13 14 10 9 8 10
81 83 87 96 96 96 95 96 94 92 91 90 88 85 82 75 71 70 69 74 78 80 77 73 73 26 16 11 10 13 10 10 12 12 13 13 12 14 15 13 14 13 13 14 8 8 8
74 76 78 87 89 97 96 96 96 94 92 92 88 87 84 79 73 71 71 76 80 75 76 71 42 28 14 23 13 10 11 13 14 14 14 12 13 16 15 17 12 13 12 11 10 8 10
69 70 74 78 85 87 92 96 96 95 95 94 92 89 86 80 73 70 78 73 79 76 56 24 20 29 17 12 11 12 12 15 18 18 18 18 16 18 14 13 14 14 14 13 14 10 11
73 73 72 75 76 77 82 87 96 95 96 96 93 90 88 83 72 69 62 35 33 33 25 16 13 13 9 9 12 13 13 16 18 20 21 20 19 15 13 17 18 18 20 18 14 12 16
68 70 74 75 74 74 75 78 87 97 95 96 93 92 90 86 72 70 54 24 21 31 25 13 11 11 13 12 13 14 15 21 24 22 22 22 24 15 18 19 22 23 26 22 16 13 15
73 74 71 71 72 73 75 75 81 87 97 96 94 92 87 78 71 60 30 26 31 35 24 22 15 14 13 13 12 14 17 20 23 23 22 24 16 21 19 20 24 23 25 24 20 16 15
75 76 78 75 75 79 79 78 80 83 90 97 94 90 84 78 58 48 35 26 36 47 40 28 21 16 16 14 19 12 17 22 25 24 22 23 18 23 21 24 23 33 19 19 21 26 31
71 76 79 82 83 84 84 83 81 83 86 92 93 88 79 64 58 42 45 45 52 55 88 22 17 14 14 16 20 21 20 26 27 26 30 22 25 25 27 26 26 28 26 29 30 33 34
73 74 78 81 83 86 85 84 81 82 87 88 93 86 80 76 71 45 48 72 80 88 86 21 17 20 21 19 20 22 26 26 26 30 26 26 19 25 26 27 28 28 33 30 30 30 44
74 77 79 81 82 84 86 84 78 75 83 92 93 85 77 81 69 56 66 73 85 84 22 22 21 18 19 23 23 24 29 36 35 38 37 25 26 23 28 32 24 31 32 46 42 58 43
78 78 80 82 82 81 81 84 82 78 79 90 93 88 83 78 80 82 90 84 94 50 33 16 17 19 24 22 24 28 28 30 31 27 24 23 40 28 27 28 30 32 32 44 66 53 42
76 80 79 80 81 81 81 82 85 77 79 88 93 96 93 91 90 95 94 95 66 41 25 19 20 23 26 24 31 31 26 24 25 26 42 38 42 23 26 25 27 34 35 36 64 45 69
75 76 77 79 81 82 81 82 84 77 80 92 95 95 94 92 90 91 100 92 80 35 20 20 32 25 33 28 32 28 25 22 30 28 29 40 84 27 26 28 27 34 27 56 68 94 75
78 78 77 79 79 82 81 81 83 77 84 84 94 99 98 91 89 99 96 72 55 32 21 24 32 30 28 41 34 32 27 28 27 32 32 36 83 37 29 33 28 34 46 54 54 52 81
77 79 81 82 80 82 81 80 78 77 86 89 96 100 96 92 99 98 79 79 53 35 22 27 26 32 38 59 44 98 50 35 25 30 44 38 59 56 32 25 27 28 40 43 86 65 91
78 80 80 78 82 82 81 80 78 79 86 94 98 100 95 90 99 91 60 63 48 46 34 28 35 43 56 96 97 79 72 32 28 33 44 51 58 58 43 41 36 41 38 43 56 66 94
71 78 78 78 80 81 82 80 79 81 82 69 98 98 100 100 83 58 68 64 58 33 30 34 36 56 62 57 42 75 72 41 35 32 49 60 54 64 62 60 54 65 57 52 69 99 98
72 75 77 79 81 80 79 80 79 83 84 73 97 86 60 96 97 79 58 58 69 60 37 45 64 48 44 62 50 54 53 36 36 41 41 52 86 72 62 54 61 71 79 70 70 72 84
76 77 82 82 81 81 80 80 80 78 84 92 98 59 47 43 59 71 69 65 66 56 45 54 48 52 52 50 50 48 39 41 37 44 50 51 95 99 97 64 66 95 91 69 69 72 81
78 83 82 81 83 83 81 79 80 79 88 95 71 44 45 52 59 75 65 53 49 46 43 41 45 56 53 35 27 24 26 27 27 42 45 68 75 86 67 58 62 90 98 89 64 51 62
84 83 85 84 82 81 81 81 79 81 86 76 62 46 62 70 53 60 48 48 45 41 50 44 38 47 34 32 33 33 32 30 31 30 31 71 74 64 62 72 88 94 54 49 52 52 49
86 83 84 85 88 90 89 86 81 83 85 65 62 57 50 70 48 50 51 52 48 49 54 37 31 30 36 35 32 37 47 47 40 39 42 43 68 72 71 57 91 82 61 55 56 66 56
83 90 93 91 92 92 90 89 91 86 84 59 58 53 48 63 57 41 53 52 64 54 41 51 48 40 37 29 32 43 47 35 49 52 47 50 60 80 63 68 78 87 61 55 53 72 55
94 92 90 92 92 94 92 92 92 90 78 66 81 65 50 86 44 50 66 59 43 44 48 59 62 54 42 40 51 46 44 29 49 63 85 73 69 79 70 63 72 63 67 73 85 89 59
93 89 89 90 90 90 88 88 88 86 75 61 92 72 54 78 74 56 53 56 50 43 56 51 53 53 49 55 43 40 47 45 53 39 48 55 59 66 60 63 72 67 96 96 79 64 59
88 92 90 88 86 86 84 81 76 74 70 57 77 78 61 80 91 63 55 42 35 32 38 49 40 42 38 43 35 34 54 56 42 69 42 60 45 61 66 82 76 94 98 78 71 74 64

GFSGBSN_sfc_rhum_129.txt.gz
RH
91 97 97 95 93 93 93 94 95 95 95 93 90 88 84 78 75 77 78 80 78 72 72 76 76 81 78 49 30 21 55 45 35 20 18 12 14 16 17 15 13 13 11 10 10 11 11
90 91 96 96 96 94 93 94 96 97 96 95 92 90 87 83 80 79 79 80 80 76 71 76 78 83 73 37 16 17 28 17 15 15 14 14 16 15 16 15 18 15 15 15 14 13 12
81 85 88 93 97 96 96 96 96 96 96 96 94 90 89 85 82 81 80 80 80 77 72 76 80 55 45 33 13 16 12 14 13 16 16 15 16 19 20 20 16 16 18 16 13 13 14
74 78 82 87 90 98 97 97 96 96 96 96 95 94 91 86 83 82 81 81 79 73 72 80 80 58 47 17 18 12 14 15 12 13 15 16 18 21 24 19 20 22 24 26 17 15 13
72 72 72 82 86 88 91 98 98 98 97 97 97 95 92 88 84 80 82 81 78 69 76 81 72 67 45 24 16 11 14 13 14 14 16 12 20 23 23 30 32 28 32 25 20 12 13
66 71 73 77 80 82 85 86 92 98 98 98 98 97 95 93 88 86 85 79 63 70 53 48 40 44 26 19 13 12 13 14 19 20 21 23 28 31 32 34 36 29 28 23 21 16 17
66 63 74 75 77 75 76 82 84 85 97 98 97 97 96 93 90 88 80 61 44 62 62 37 30 26 20 16 13 14 12 15 19 24 32 27 38 40 31 26 22 22 23 22 22 17 20
65 64 66 67 69 72 71 76 81 82 88 98 97 97 96 93 88 79 68 56 35 39 46 29 31 31 24 21 16 13 12 22 26 30 27 32 37 26 22 19 22 22 26 29 24 19 22
72 64 69 64 65 68 69 74 80 81 84 95 98 97 95 90 79 63 58 52 35 34 44 43 32 34 31 28 24 17 16 20 25 27 29 36 30 21 21 24 24 23 24 27 27 25 26
71 64 71 69 68 72 74 78 79 79 82 89 98 97 93 82 77 61 53 42 38 55 90 52 43 28 27 17 22 14 13 18 24 28 26 28 21 20 22 23 24 33 21 25 31 40 55
72 73 74 72 76 81 85 84 81 77 80 84 94 95 87 84 71 60 54 49 60 73 94 25 24 15 17 22 21 18 17 23 29 28 28 33 29 27 29 27 18 23 33 33 36 44 48
75 74 72 74 77 81 85 85 83 78 78 85 98 92 88 81 73 57 52 59 74 93 96 40 23 24 24 22 21 20 23 24 26 32 31 32 25 26 27 23 26 27 34 37 38 44 76
78 77 76 74 76 81 85 84 86 82 78 82 90 92 83 72 85 64 74 85 96 99 43 40 36 25 27 29 26 23 34 40 43 47 49 32 28 20 21 29 32 32 46 81 78 81 69
78 79 77 76 77 80 84 84 86 88 82 77 82 90 85 89 71 82 90 94 99 56 53 34 32 27 32 28 29 29 28 35 34 34 40 45 57 32 22 25 34 38 39 72 80 91 82
75 78 79 79 78 80 85 83 83 85 85 88 91 98 96 93 89 92 95 99 85 56 37 44 47 66 66 29 36 36 34 35 26 22 48 64 62 34 26 28 30 36 45 34 64 65 90
72 76 77 79 80 81 83 86 85 85 91 87 98 97 97 96 91 91 98 85 76 44 40 46 71 60 71 41 39 34 38 30 30 26 38 60 78 37 29 30 29 34 31 67 83 92 91
75 75 75 77 78 80 82 81 86 85 91 82 96 99 98 93 90 97 96 88 55 40 39 54 65 67 60 63 58 50 44 31 39 33 34 49 76 55 40 38 37 37 44 65 75 78 95
75 76 74 75 78 80 79 84 85 85 88 85 98 99 98 87 99 100 94 70 57 48 44 47 50 57 62 60 61 73 63 46 39 41 46 49 71 78 52 35 34 33 44 56 91 76 90
78 76 75 76 73 74 77 80 84 85 87 95 99 100 96 82 98 96 80 64 56 51 52 50 53 54 76 88 78 72 68 47 38 38 54 58 74 89 68 51 51 49 42 46 62 76 90
77 76 76 74 74 76 77 80 83 83 83 94 98 99 100 96 92 89 71 74 68 48 52 47 51 50 71 80 70 81 80 54 48 42 60 63 76 85 97 89 91 99 85 52 74 99 94
80 78 77 74 73 75 78 80 82 81 80 96 99 96 84 98 98 96 84 71 74 69 53 52 58 57 70 83 79 77 66 56 51 54 50 58 92 83 77 70 64 68 94 69 74 76 84
80 80 77 76 74 75 74 76 81 82 80 95 100 98 82 79 71 84 79 78 78 64 56 53 63 57 55 70 67 67 52 70 65 52 55 55 92 98 92 64 69 80 93 81 77 75 84
78 81 80 76 76 75 72 74 76 81 82 98 89 87 81 73 82 90 82 74 71 65 58 45 61 65 58 56 47 50 50 51 49 54 60 68 89 98 86 67 88 88 84 87 74 72 72
76 79 78 76 75 74 74 73 75 79 82 92 79 81 88 89 72 76 65 71 72 64 66 54 59 67 58 45 43 46 46 42 50 48 47 70 84 92 94 76 95 88 66 67 60 51 65
77 78 77 76 76 76 76 76 75 76 79 94 88 75 85 88 61 60 64 64 66 62 62 57 58 60 50 55 66 69 64 56 50 42 42 45 83 94 94 88 85 75 61 64 62 69 61
78 78 77 77 78 78 77 77 75 75 78 92 81 75 84 89 77 51 56 61 70 72 70 63 62 63 63 79 88 92 73 54 48 42 37 41 73 88 91 87 89 88 74 62 58 96 59
76 77 77 76 76 76 75 77 78 78 77 89 84 74 92 93 65 61 59 59 56 67 84 88 74 76 66 92 96 76 65 36 58 61 59 58 74 86 89 93 88 75 76 68 89 91 62
76 77 77 74 74 74 76 77 77 79 78 89 82 73 84 85 75 60 56 71 68 59 91 79 76 81 83 93 80 64 70 57 51 54 56 57 89 96 93 91 89 80 83 93 85 74 76
76 75 74 75 76 78 76 79 82 82 80 83 90 71 79 89 89 65 69 66 60 62 83 73 76 67 72 74 68 58 73 79 60 93 61 91 79 93 92 96 90 98 95 84 76 86 87

GFSGBSN_sfc_rhum_132.txt.gz
RH
93 92 97 96 95 95 93 93 93 93 92 92 91 89 87 82 80 80 81 81 80 74 71 69 74 82 65 35 35 21 55 50 34 23 20 17 17 19 22 18 16 16 15 15 16 15 16
92 90 93 98 98 96 94 94 95 95 94 95 94 92 90 86 84 82 81 81 82 79 72 70 78 83 52 32 19 18 28 25 23 18 17 18 22 19 20 20 22 19 19 18 17 16 16
90 92 90 88 95 97 96 96 96 96 96 96 95 94 92 88 86 84 82 82 82 80 72 70 79 60 50 29 20 22 24 15 16 17 20 18 22 21 24 24 21 19 20 20 17 16 15
80 81 82 86 87 92 98 97 97 97 97 96 96 95 93 91 87 84 83 83 83 78 71 70 78 61 38 24 22 15 16 15 16 17 17 17 20 25 25 22 23 26 28 28 19 17 16
76 77 72 82 85 87 90 98 98 98 98 97 97 96 95 93 88 83 85 86 84 80 70 76 80 66 52 30 17 13 13 14 16 16 20 14 22 27 26 33 35 34 35 31 22 15 16
71 75 76 79 82 83 85 86 90 98 98 98 98 98 96 94 90 87 90 89 81 71 58 49 45 53 36 23 16 12 13 14 19 21 21 28 30 33 36 36 35 32 34 40 23 16 21
72 71 70 78 79 78 78 82 84 85 95 98 98 98 97 95 91 86 72 56 49 62 60 42 39 33 26 20 14 14 12 15 22 28 33 30 39 42 34 32 28 30 28 26 25 20 27
70 70 65 68 70 72 72 79 81 81 86 94 98 98 97 95 90 78 64 48 37 41 50 32 35 36 30 25 32 16 14 19 26 30 29 36 43 30 27 28 32 30 26 28 27 23 27
72 73 71 65 66 68 70 77 80 79 83 92 95 98 96 93 85 67 65 59 39 43 51 46 34 38 36 34 41 38 16 22 26 27 30 38 35 24 25 30 32 28 27 28 28 34 35
75 73 72 71 69 71 75 77 80 78 80 90 98 97 95 90 83 73 65 52 50 60 83 59 54 40 33 26 31 17 16 20 27 28 28 33 26 28 30 30 28 35 23 26 36 45 56
74 71 72 72 73 77 83 84 81 76 81 89 98 95 91 82 77 65 50 54 60 69 59 31 27 18 19 31 24 23 22 23 30 30 34 37 32 32 35 32 26 30 35 39 43 46 54
76 74 73 75 72 75 81 84 82 75 78 94 96 92 91 78 72 56 56 68 76 87 90 50 26 27 24 24 24 24 27 26 31 35 36 38 32 34 34 27 28 31 40 42 48 51 80
79 76 74 73 73 74 79 82 83 78 76 92 96 92 87 70 81 66 74 84 94 94 47 46 37 30 29 30 29 27 34 43 42 48 55 37 36 29 26 35 31 31 50 80 81 88 77
80 79 77 76 75 77 81 83 85 85 80 77 95 93 86 85 81 79 88 94 95 65 57 41 48 47 38 34 34 34 34 47 41 38 49 53 63 38 33 30 34 38 45 74 80 85 82
78 80 80 78 78 79 81 84 84 84 84 84 92 98 95 90 88 91 93 99 83 62 44 50 52 64 74 41 36 40 38 38 31 36 56 60 57 37 26 30 29 39 47 38 65 72 91
76 76 81 81 80 81 82 84 81 84 91 85 97 96 96 94 88 90 98 84 80 55 44 53 72 64 83 52 49 40 37 34 41 37 40 62 73 40 36 32 33 34 32 61 84 83 92
77 76 79 80 81 82 84 84 86 88 88 83 95 98 94 93 89 97 98 90 64 45 46 56 71 73 69 71 59 56 47 41 48 47 46 59 77 56 40 42 44 44 51 65 69 82 93
80 78 78 80 79 82 83 82 85 86 86 84 97 98 96 90 100 100 94 80 62 51 49 54 61 65 71 67 63 73 58 52 45 48 62 55 76 84 53 38 38 39 50 55 89 79 91
81 80 78 78 76 79 80 82 84 85 87 96 99 100 97 95 96 96 86 74 62 57 58 58 59 61 68 76 74 72 72 53 46 48 62 56 82 91 56 56 71 78 63 54 69 80 88
78 81 80 79 76 79 78 77 84 84 85 94 99 99 100 100 94 82 79 80 76 60 59 53 58 63 78 76 71 74 82 60 54 55 65 65 79 84 85 87 86 89 80 88 85 96 92
77 79 82 81 78 75 75 76 78 82 84 94 98 96 86 98 95 86 83 75 76 79 59 62 66 66 75 82 76 80 70 66 57 61 53 62 91 84 75 69 68 71 72 77 92 81 90
74 78 81 79 79 77 75 78 80 80 82 98 100 97 93 92 74 87 80 81 79 76 67 66 71 63 70 73 67 70 67 74 72 65 62 62 84 94 72 67 76 80 73 74 78 77 86
70 72 76 80 80 78 76 77 79 81 80 97 98 93 86 85 86 78 76 77 75 70 66 58 60 67 66 64 58 52 52 56 62 65 72 69 83 98 82 59 74 94 86 88 80 73 71
69 70 73 79 80 78 76 77 78 79 80 96 89 92 95 97 87 81 73 72 73 70 78 68 63 66 65 58 54 52 48 48 55 56 58 74 76 88 92 75 92 70 69 72 70 63 73
71 72 72 78 82 79 76 77 74 78 79 93 94 78 92 91 77 72 75 76 71 68 72 69 60 66 67 64 83 89 87 68 67 58 60 55 81 97 89 85 79 78 71 74 78 75 70
73 70 73 77 81 84 82 75 75 76 78 89 88 95 84 88 78 57 69 66 85 92 85 76 64 72 70 83 87 94 90 78 65 55 45 51 62 88 97 87 88 83 76 64 62 94 68
74 74 75 78 83 83 82 79 76 76 76 87 86 85 96 97 73 66 71 73 67 77 86 91 84 78 74 99 98 95 89 52 61 58 66 66 80 81 86 87 78 77 76 73 88 84 74
74 74 77 79 80 80 79 78 77 78 77 88 83 81 92 99 80 62 59 77 83 78 87 86 93 91 98 99 97 91 78 61 58 49 55 63 74 79 88 93 82 86 80 84 86 88 83
77 77 77 79 80 80 80 80 79 78 78 78 91 74 86 95 89 61 65 68 56 63 84 85 84 90 92 93 88 70 76 77 56 71 70 80 72 89 88 88 95 96 96 88 78 88 96

GFSGBSN_sfc_rhum_135.txt.gz
RH
92 91 93 97 96 95 94 92 92 93 93 91 90 90 88 85 84 83 82 82 82 78 73 69 72 83 54 30 24 25 56 44 23 19 18 19 21 23 24 22 19 20 20 19 18 18 17
92 92 92 94 96 98 96 96 94 94 94 93 93 93 90 89 87 85 83 83 83 82 77 69 74 80 34 47 20 20 26 22 19 18 18 19 23 22 24 25 26 22 23 21 19 17 18
88 91 92 92 92 95 99 98 98 95 96 95 95 95 94 92 89 86 85 84 83 83 78 70 77 59 41 37 23 22 25 18 16 18 20 21 23 22 25 26 23 22 24 22 18 21 18
88 88 89 90 91 91 95 99 98 97 96 95 96 96 95 94 91 89 86 86 85 83 82 72 77 59 41 26 27 19 22 17 17 19 20 19 22 26 27 25 26 29 30 27 16 18 18
84 82 79 82 84 85 86 93 99 98 98 97 97 96 96 95 93 90 86 88 88 86 83 72 77 62 46 34 20 16 15 16 17 19 24 15 23 28 26 34 30 33 33 35 26 18 17
79 81 79 78 82 82 83 84 88 98 99 98 97 97 97 96 94 90 90 90 84 78 64 53 50 57 38 23 19 15 14 15 19 24 22 25 33 34 37 34 26 35 35 46 30 21 23
77 77 79 79 81 78 79 80 83 84 95 98 98 98 98 96 94 90 74 55 57 67 63 51 45 36 30 25 15 14 13 16 22 26 33 33 38 40 35 33 30 35 38 38 29 21 31
81 79 72 74 76 76 75 80 80 80 84 92 98 98 97 96 92 82 61 51 48 47 67 42 41 41 35 31 35 20 14 18 25 28 30 37 42 30 30 32 36 38 41 40 27 25 29
76 77 74 69 70 71 71 79 80 78 80 88 95 98 97 95 88 72 65 59 42 42 66 52 39 42 40 39 46 42 17 20 28 32 32 35 30 26 28 32 34 38 40 32 30 38 38
76 76 78 72 69 73 76 79 79 75 78 86 93 98 96 90 86 80 78 57 51 60 73 51 53 47 39 39 41 22 18 21 28 28 29 32 29 32 37 38 34 43 30 29 32 49 54
77 76 78 76 76 79 82 81 84 75 80 88 98 97 93 82 86 70 56 59 65 58 51 27 44 25 22 34 25 25 26 23 31 31 34 35 34 32 34 33 34 36 34 37 42 49 57
77 76 76 76 76 75 82 83 83 76 82 95 98 96 92 75 79 69 59 71 74 79 68 49 29 28 28 26 26 26 29 28 31 36 37 36 34 37 38 32 32 31 43 44 58 57 78
79 77 73 75 76 76 75 82 81 77 85 95 96 94 92 73 80 64 70 83 92 93 44 51 38 32 33 34 31 30 36 42 39 45 49 40 38 33 32 37 37 37 46 73 77 91 76
78 79 77 78 77 78 77 82 83 80 84 93 96 94 89 87 88 78 87 89 96 59 66 47 51 45 39 36 34 38 43 44 42 41 52 55 61 41 36 38 37 42 42 68 83 84 75
80 80 79 79 77 77 78 83 85 84 83 95 89 96 94 93 91 87 92 89 82 68 50 52 53 65 71 51 42 45 42 44 35 40 54 61 58 40 32 36 37 40 54 42 64 72 92
79 80 80 80 80 80 77 84 86 85 88 90 96 96 95 94 90 88 97 85 80 61 50 53 62 66 80 59 52 45 43 38 41 41 40 55 75 46 42 39 34 38 35 76 86 94 87
79 78 79 81 81 81 82 84 81 89 90 82 91 97 93 90 88 97 93 78 69 50 49 60 73 75 69 74 63 61 46 45 51 50 52 62 74 57 51 48 58 57 57 63 65 80 90
79 79 79 82 83 81 81 84 84 89 86 83 97 98 94 92 99 100 88 80 65 55 51 55 63 68 72 71 72 73 62 49 47 51 60 59 78 87 62 43 41 53 67 63 98 78 95
82 81 78 78 81 80 82 85 85 88 83 94 100 100 97 93 98 97 90 76 69 60 59 58 64 64 71 80 79 72 67 56 52 53 64 61 78 89 64 68 69 80 77 88 99 98 97
82 82 80 79 79 80 80 82 80 86 83 94 98 99 100 100 92 87 90 84 80 63 59 55 60 63 77 78 74 74 77 64 56 60 68 64 80 76 80 76 83 87 66 69 84 98 87
82 83 82 80 80 77 76 80 79 82 83 93 96 94 88 97 97 86 80 77 82 74 62 63 71 63 64 82 80 83 72 69 59 60 58 65 88 86 83 74 69 71 73 68 78 81 93
81 83 83 82 80 78 76 78 76 80 82 97 100 98 94 91 76 85 74 87 83 68 71 70 75 67 70 80 74 75 72 74 70 69 64 66 83 93 91 66 63 70 72 72 71 74 84
77 79 80 81 82 81 78 77 78 78 80 96 98 89 82 85 86 85 76 76 77 73 70 66 70 74 73 70 69 62 52 57 61 66 76 73 82 96 75 63 65 82 77 77 82 77 77
72 74 77 79 80 80 80 78 74 76 75 92 89 88 93 95 86 80 71 72 76 75 72 74 69 74 67 63 60 62 58 54 58 59 64 78 81 87 83 85 92 68 73 72 80 69 68
72 73 73 75 76 79 79 79 76 77 78 88 97 89 92 91 77 78 77 74 71 69 72 71 64 66 66 63 84 85 90 76 66 59 61 64 80 93 94 83 71 64 74 78 87 81 73
73 72 71 72 73 77 80 79 77 77 79 84 82 97 92 93 86 64 77 76 91 94 89 81 68 70 75 81 98 95 92 80 74 64 57 59 66 77 98 93 95 71 77 67 69 91 74
74 74 72 73 74 75 80 80 77 76 78 83 91 84 98 99 78 67 81 84 78 88 90 90 86 85 79 98 96 96 91 66 73 63 64 80 88 96 96 94 83 74 74 74 90 81 77
72 74 75 74 75 76 77 82 79 77 78 86 82 83 96 100 83 70 66 76 80 84 92 84 90 94 97 99 98 93 96 73 69 59 60 63 86 92 91 96 87 81 77 83 85 91 85
74 74 75 76 76 78 80 79 86 82 78 81 90 81 89 99 98 86 76 60 64 67 83 89 87 90 92 95 97 93 89 85 72 86 50 76 69 85 73 79 94 92 95 89 81 88 90

GFSGBSN_sfc_rhum_138.txt.gz
RH
95 96 96 96 96 95 94 94 94 93 93 92 91 90 90 89 87 86 85 85 85 82 79 77 70 80 53 42 28 26 51 42 22 17 19 20 22 26 27 26 22 23 22 21 20 20 21
94 94 92 92 92 94 97 96 96 95 94 94 93 92 92 91 91 90 87 86 86 86 83 82 71 79 38 57 23 20 24 20 17 18 19 19 24 26 27 29 28 25 25 24 21 20 20
94 94 93 92 92 91 94 98 98 98 98 97 94 94 94 93 93 91 89 87 87 86 84 85 72 61 43 49 28 23 24 21 18 20 22 22 23 24 30 28 28 26 28 25 18 22 22
91 91 91 93 93 92 89 93 98 99 98 97 96 96 96 95 94 93 91 89 88 87 88 86 70 57 48 30 34 30 27 22 18 20 21 22 22 25 30 29 26 32 31 30 15 19 18
89 89 89 91 88 87 87 87 93 98 99 98 98 97 97 97 96 94 92 90 90 90 82 78 72 59 49 38 27 19 19 19 18 21 22 16 22 30 28 33 25 32 35 37 29 22 20
89 89 87 84 84 83 83 84 85 91 98 99 99 98 98 98 96 94 90 89 84 82 65 56 53 55 39 29 22 16 18 18 21 24 24 27 35 36 37 33 38 33 39 45 36 26 24
78 85 86 82 83 81 79 81 82 83 87 98 98 98 98 98 96 90 78 49 57 73 70 54 51 41 33 27 18 18 16 19 24 24 32 38 36 39 34 33 31 36 41 42 36 29 30
82 83 82 81 82 80 77 81 82 78 78 86 97 98 98 97 94 81 64 55 44 52 71 50 47 47 41 39 46 27 15 19 27 26 30 36 39 29 32 34 38 41 46 48 38 30 29
80 83 80 76 76 75 74 79 82 77 76 83 91 98 98 96 88 79 66 61 39 46 71 55 46 46 45 43 53 50 18 24 28 32 35 36 31 27 32 36 40 43 47 46 40 36 41
78 82 81 76 72 74 76 80 83 77 74 79 90 96 98 90 88 82 86 57 48 56 74 47 56 46 42 45 45 30 22 21 32 29 32 34 29 34 39 38 37 48 36 37 37 49 58
79 81 82 80 78 79 82 82 84 79 76 79 92 98 95 83 86 80 60 57 61 49 48 27 58 28 33 41 28 28 26 25 32 33 33 35 34 33 34 32 35 39 35 38 43 52 66
79 80 79 80 78 77 80 84 82 82 77 87 96 97 94 77 72 67 62 70 69 74 69 45 31 29 32 28 28 29 31 29 32 36 42 35 36 38 38 35 36 35 40 48 64 61 79
78 79 78 80 79 77 77 82 81 81 82 94 98 95 89 70 82 71 74 81 90 85 43 49 37 31 37 36 33 33 39 41 38 45 50 44 42 38 37 40 39 42 52 74 76 91 69
80 80 79 77 78 77 78 77 81 81 91 95 98 93 92 92 88 81 86 84 97 55 66 49 54 37 42 40 38 40 43 42 43 41 53 55 53 45 39 40 42 46 49 69 79 90 73
80 80 81 77 79 77 77 78 82 82 92 96 90 97 97 94 91 87 88 96 82 65 56 56 56 61 62 52 44 45 44 45 39 42 52 64 61 42 39 41 40 42 58 46 71 73 93
79 78 79 80 80 79 78 80 83 83 94 89 96 94 95 93 89 87 95 82 76 65 55 55 60 68 79 60 52 46 46 42 43 45 45 53 75 49 45 43 37 45 42 68 93 96 94
79 80 81 80 80 82 79 80 84 85 92 83 93 96 89 91 88 95 95 80 73 57 51 62 69 74 70 74 64 63 52 44 52 53 49 60 74 60 55 52 50 54 62 75 79 85 97
80 80 81 80 80 81 81 81 82 89 89 83 96 97 94 91 99 100 92 78 69 60 54 54 62 71 73 73 71 77 63 51 51 52 57 60 76 84 59 47 61 57 69 83 96 94 93
81 80 79 79 80 81 81 80 83 86 82 93 99 100 96 95 95 95 88 81 71 62 60 59 62 63 74 79 76 75 68 54 57 57 64 63 74 87 62 64 62 77 84 88 92 97 94
81 82 80 80 80 79 81 79 81 82 84 90 98 99 100 100 89 88 89 84 80 67 65 60 63 65 75 78 77 76 74 66 56 54 67 67 76 72 83 75 83 90 74 67 79 98 90
82 82 80 80 79 79 80 80 78 83 86 90 95 94 90 99 97 87 80 80 83 73 68 65 67 63 69 81 82 80 79 69 63 57 72 72 92 90 84 81 82 79 80 75 74 73 91
87 82 82 80 80 80 80 77 79 79 85 97 99 94 88 90 76 81 81 86 82 72 66 67 76 69 69 68 59 79 77 77 70 69 64 69 87 93 93 72 76 78 74 70 64 67 76
81 86 81 82 81 80 79 78 79 80 84 99 99 92 84 86 88 90 80 80 79 72 70 63 68 72 75 70 69 63 64 65 65 68 74 74 82 94 80 67 76 79 77 72 72 74 73
80 78 78 82 81 80 80 78 79 80 76 96 98 91 88 94 88 74 73 68 75 76 68 75 71 78 70 63 63 69 69 70 72 73 66 80 82 82 88 86 94 65 66 70 76 73 76
82 81 78 78 79 79 81 79 79 80 79 92 98 97 92 96 82 80 78 76 72 73 78 76 70 68 69 70 86 85 88 78 70 64 66 70 82 92 96 86 70 60 57 85 86 77 76
79 79 78 79 80 81 81 81 83 79 80 92 89 97 95 92 88 66 79 77 88 93 89 82 72 71 73 90 100 94 92 82 74 62 63 70 74 84 97 96 92 70 78 73 73 86 81
77 75 75 76 78 79 80 80 81 76 74 93 96 91 98 100 84 73 88 84 78 87 90 86 86 89 81 98 97 93 94 71 79 66 64 83 94 95 91 93 84 68 73 73 91 76 84
78 76 76 76 75 75 76 80 82 81 79 89 89 90 95 100 95 75 67 82 88 89 92 82 90 93 95 95 99 97 99 81 78 63 65 72 90 96 91 95 89 81 78 83 81 88 86
78 78 76 75 74 75 76 77 79 81 81 82 96 85 91 99 99 93 92 86 66 67 84 90 83 91 92 91 98 95 99 95 75 90 59 81 77 84 80 82 88 89 95 90 82 81 86

GFSGBSN_sfc_rhum_141.txt.gz
RH
95 94 94 94 94 94 94 94 94 94 93 92 92 90 89 89 90 89 89 87 87 86 83 84 84 78 43 42 32 19 53 37 16 14 16 17 19 19 19 19 17 14 15 16 15 16 16
96 95 96 96 95 96 96 96 96 95 95 94 93 92 91 91 91 91 91 89 88 88 86 86 85 78 33 55 20 19 19 14 13 14 15 16 18 18 20 20 18 19 19 17 17 15 16
94 95 94 94 93 92 92 94 97 97 97 96 94 94 92 93 93 92 92 91 90 89 87 88 78 58 38 48 21 25 20 16 14 15 16 16 17 19 21 20 20 20 21 17 15 15 15
94 96 95 97 96 93 92 90 93 96 97 97 97 97 95 95 95 94 93 92 91 89 90 82 73 50 51 29 27 28 20 17 14 15 15 16 17 20 21 21 19 21 22 19 15 15 14
93 93 92 94 94 91 90 88 86 92 96 94 98 98 98 97 97 96 94 92 90 90 85 78 56 47 49 36 24 16 18 15 14 16 20 16 20 25 22 23 19 25 20 26 22 18 16
91 92 93 93 92 88 85 85 85 83 92 97 98 98 98 98 99 97 92 90 86 77 61 54 50 53 39 29 18 13 16 14 16 19 21 24 27 27 28 24 28 26 28 28 28 22 22
88 89 91 91 86 83 80 82 85 84 80 92 98 98 98 99 98 90 81 51 53 62 58 54 48 44 33 24 19 15 14 16 18 19 25 30 28 30 29 28 25 28 32 33 30 25 29
84 84 84 88 85 82 80 80 86 82 78 81 94 98 98 98 93 74 63 58 43 43 63 50 48 46 39 35 43 33 14 18 20 24 27 28 35 27 26 29 31 34 36 36 32 27 29
83 82 84 85 83 82 78 79 86 81 76 79 83 96 98 96 88 79 68 57 36 40 60 53 48 47 43 39 47 44 17 20 22 25 28 32 28 24 26 30 35 36 38 38 34 29 29
82 82 84 84 81 79 78 79 85 81 77 77 82 94 97 92 90 77 80 54 45 53 59 44 47 40 41 42 40 34 19 20 23 27 29 29 26 29 32 31 28 35 29 32 34 35 36
83 83 86 83 82 81 79 82 82 84 76 78 80 94 94 86 85 80 63 55 58 54 37 29 52 31 39 41 27 24 20 22 28 28 29 30 29 29 30 28 29 30 30 33 34 36 43
82 82 84 82 84 81 80 82 82 84 79 79 86 97 91 79 73 62 59 63 66 66 60 37 28 26 32 24 23 25 26 26 25 28 32 31 28 29 29 31 31 30 33 38 50 44 50
82 81 81 80 80 80 78 80 84 83 80 84 90 97 92 75 85 66 75 77 87 73 40 41 32 28 32 30 28 27 30 34 32 36 39 35 33 30 32 32 32 32 40 48 53 62 47
79 81 80 79 78 78 77 78 80 82 82 94 97 94 89 91 82 82 83 83 92 54 57 47 42 32 38 33 31 32 34 34 34 32 41 40 40 36 31 31 33 36 37 45 72 62 50
79 79 80 79 78 77 78 77 76 80 87 96 91 98 97 94 89 86 87 94 72 63 53 51 49 53 49 43 39 36 36 37 32 36 43 51 48 34 32 32 30 36 44 38 53 50 73
80 80 80 80 80 78 78 76 78 81 92 93 96 96 98 91 88 84 93 79 68 57 52 52 60 59 64 51 43 38 38 35 38 38 37 43 59 42 40 34 32 31 32 52 66 85 73
80 81 80 80 80 81 78 78 80 84 91 85 93 98 91 95 90 95 95 79 63 53 49 54 58 66 62 67 53 50 40 37 43 47 42 47 65 46 43 40 40 39 48 59 59 62 79
83 81 81 80 80 81 77 78 83 84 86 82 95 97 90 96 100 99 97 69 65 54 46 47 54 61 67 68 57 82 55 45 42 42 45 50 64 59 45 38 54 56 55 61 75 79 88
79 84 83 79 81 80 79 78 81 86 83 91 97 99 95 90 96 99 90 75 61 57 52 51 53 56 66 81 73 70 62 52 50 45 50 52 58 59 39 59 50 60 67 73 82 85 87
81 81 82 81 81 81 81 79 80 85 82 87 97 99 100 99 83 76 80 84 78 62 59 52 56 60 69 70 66 70 65 57 54 47 62 59 64 60 64 60 56 65 58 58 65 90 77
87 81 81 80 81 81 80 80 79 80 84 87 94 94 86 98 98 84 74 75 78 72 64 60 60 59 68 77 70 75 68 61 54 53 61 64 80 73 68 64 64 66 72 64 64 66 77
87 87 82 81 80 80 80 80 79 80 86 95 98 88 81 79 82 79 80 79 75 67 67 64 68 64 61 60 56 64 61 62 63 57 61 63 82 83 85 62 61 71 78 70 64 66 67
85 88 88 83 82 79 80 80 79 79 85 99 97 82 76 81 83 81 78 78 74 70 66 58 61 64 67 63 59 56 57 58 56 59 65 66 73 79 70 57 61 70 76 75 55 54 54
86 88 88 86 84 81 79 81 79 80 74 97 99 83 81 89 84 81 70 66 72 70 62 67 68 68 63 54 57 58 64 65 68 68 62 73 75 73 72 73 80 64 46 52 58 53 55
89 88 86 84 82 87 84 82 81 81 78 87 98 96 84 92 75 74 74 74 70 68 72 69 63 61 63 61 67 81 74 71 65 62 69 65 68 87 92 69 60 52 44 55 74 58 48
87 85 83 85 88 89 81 86 82 82 82 93 90 98 98 90 82 66 73 73 80 81 78 75 66 67 67 75 74 80 76 70 67 53 61 68 66 84 93 84 75 52 54 60 62 62 66
88 85 84 85 84 81 79 82 80 81 80 93 92 91 98 100 82 71 79 77 73 77 74 75 79 82 74 89 85 80 63 66 68 59 64 77 81 88 83 83 60 53 61 61 76 70 70
89 82 78 77 78 80 81 82 82 86 86 94 93 90 95 100 97 81 68 79 81 78 80 78 87 92 89 89 78 79 88 73 68 55 54 52 70 82 76 84 79 66 69 76 73 71 72
80 78 79 81 82 81 82 80 80 80 81 87 99 86 92 97 99 92 85 82 72 64 79 86 75 83 84 78 84 78 85 84 66 81 52 72 54 67 64 62 69 75 75 72 73 71 72

GFSGBSN_sfc_rhum_144.txt.gz
RH
93 93 94 94 94 94 93 94 94 94 93 92 92 91 89 88 88 90 90 90 88 88 87 85 88 81 40 36 28 13 52 37 10 10 11 13 14 14 14 12 12 11 10 9 9 9 8
96 96 95 95 95 94 94 95 96 96 95 95 94 93 91 90 90 91 91 91 90 90 89 88 87 78 38 45 17 13 12 10 9 9 11 12 14 12 15 14 12 13 11 10 10 10 11
98 97 97 96 96 96 95 94 95 96 96 97 96 95 94 92 91 92 93 92 91 90 89 89 81 40 44 40 17 14 14 11 10 10 11 12 13 14 16 15 14 14 14 10 11 11 11
93 95 95 98 97 96 96 94 91 92 95 96 94 96 97 95 94 94 94 94 93 91 89 86 75 41 48 25 17 18 16 13 10 10 11 13 13 15 17 16 14 13 14 12 13 11 12
90 92 93 94 97 97 97 94 90 88 91 94 94 96 97 97 96 96 96 94 93 90 84 74 47 41 42 33 23 13 14 14 11 12 14 13 15 18 17 17 16 16 13 16 14 13 12
90 91 92 93 94 95 95 92 89 89 83 92 96 97 98 98 98 98 96 93 86 73 53 40 35 49 35 27 14 11 12 11 13 14 16 18 18 19 17 16 17 18 18 17 18 14 16
84 85 89 93 94 94 88 85 87 87 84 80 94 97 98 98 98 98 89 60 52 47 44 45 42 37 30 23 18 14 12 14 14 16 23 21 22 20 22 21 21 21 22 20 17 15 21
89 89 88 88 92 88 82 82 86 86 81 78 82 96 98 98 96 89 68 60 42 37 54 38 37 36 32 29 35 24 13 21 20 22 21 23 22 21 19 21 22 22 24 22 19 20 22
87 86 84 82 88 87 83 82 85 84 79 75 79 92 98 95 87 79 65 56 26 30 52 40 36 37 34 32 34 29 24 20 23 24 24 26 23 21 21 22 25 22 24 22 22 20 18
86 84 82 81 85 87 86 84 84 85 79 75 76 89 97 92 88 75 76 54 31 39 46 26 28 29 34 31 36 28 24 21 21 24 24 24 20 22 23 22 20 25 20 22 23 23 23
86 84 82 85 86 86 85 83 83 84 80 75 76 92 95 92 65 63 56 44 45 50 38 19 34 25 30 33 20 21 18 21 26 24 24 24 23 24 24 22 22 24 23 24 25 26 30
84 84 83 87 86 85 83 82 82 82 85 77 79 92 93 77 62 52 46 44 51 61 45 32 29 32 38 23 19 22 24 20 20 23 24 22 20 21 22 23 24 24 26 28 31 28 34
82 82 83 83 83 83 82 82 83 81 85 79 84 94 90 71 69 50 55 51 77 66 26 26 31 24 33 24 23 22 26 26 24 28 28 23 23 21 24 26 25 22 28 33 35 46 33
83 82 82 84 82 82 80 80 79 81 84 82 89 97 86 85 64 75 66 70 88 31 28 38 27 25 36 29 27 27 26 25 24 24 22 21 34 25 24 24 26 28 27 34 49 44 34
82 82 82 82 82 81 79 78 79 78 83 94 93 96 92 93 87 79 75 91 53 34 30 42 32 32 38 30 29 28 26 25 25 25 29 32 31 24 26 23 22 25 28 29 44 36 49
81 82 82 82 81 80 79 78 79 77 85 93 95 97 94 85 83 86 93 75 54 42 43 44 42 42 42 35 34 30 30 28 31 28 27 33 46 28 27 27 24 25 23 37 44 74 49
82 81 82 82 81 81 79 78 78 79 87 89 96 98 96 83 82 91 97 57 49 43 40 45 49 52 46 51 36 34 28 32 31 34 29 31 52 30 30 29 24 26 26 34 38 38 58
82 82 82 82 82 82 80 79 78 83 85 86 95 97 90 95 98 96 84 54 56 42 40 41 46 48 49 52 43 74 32 31 33 31 33 35 40 34 28 21 30 32 32 40 62 52 63
87 81 82 83 82 80 80 79 79 82 85 72 93 92 95 83 100 98 94 63 50 46 42 43 46 48 52 68 81 41 38 44 37 26 27 39 36 35 25 33 40 40 43 44 47 63 74
84 86 82 87 83 80 79 78 80 81 83 58 89 100 99 99 79 84 95 82 63 48 47 44 45 49 49 48 43 55 46 47 42 30 61 40 33 39 38 38 36 46 38 36 42 88 68
83 90 84 86 91 87 80 77 79 82 81 56 73 79 59 96 98 81 77 76 68 65 49 46 48 45 47 58 47 48 42 45 42 44 40 38 53 45 40 36 38 40 44 40 38 42 57
80 86 88 84 88 89 82 79 79 79 81 88 96 63 65 49 57 68 67 60 58 55 56 54 54 44 45 42 39 45 42 42 37 38 43 47 69 80 84 44 42 52 71 48 46 45 47
81 83 84 87 84 87 83 80 80 80 79 97 68 55 47 61 58 66 62 52 53 52 54 42 51 47 51 41 43 39 35 35 33 41 49 50 49 60 49 32 39 55 73 73 43 32 36
79 83 84 87 84 84 85 82 81 83 81 97 78 49 56 75 55 54 47 48 53 53 54 49 52 50 47 41 44 46 43 42 44 41 38 44 47 46 50 44 70 49 29 28 32 31 30
80 88 88 89 92 80 82 82 82 84 83 86 94 73 45 70 54 59 57 55 51 51 52 50 52 44 44 43 44 42 47 52 46 41 39 40 46 62 68 48 41 33 28 32 38 40 33
83 90 87 88 92 88 79 80 82 84 80 92 75 93 74 58 57 52 58 55 58 55 63 57 53 48 47 39 43 48 36 34 42 52 46 43 54 68 63 79 63 32 27 39 40 54 47
84 91 87 86 87 91 87 81 82 84 86 94 96 88 97 97 56 53 56 61 52 55 44 53 64 62 51 54 60 46 43 36 45 39 62 66 66 80 70 68 45 27 40 44 70 64 53
91 91 90 90 89 91 90 91 86 92 89 88 98 82 90 100 87 60 54 62 59 51 53 72 73 75 66 68 50 45 48 40 42 34 37 44 50 65 56 66 68 42 55 58 56 57 54
89 92 90 90 91 91 91 89 91 89 85 82 98 73 77 89 98 79 70 64 53 41 45 67 62 59 56 54 45 44 57 57 45 61 34 54 36 42 43 42 43 48 45 42 52 50 51